<?xml version="1.0" encoding="UTF-8" standalone="no" ?>
<gpx xmlns="http://www.topografix.com/GPX/1/1" xmlns:xsi="http://www.w3.org/2001/XMLSchema-instance" xsi:schemaLocation="http://www.topografix.com/GPX/1/1 http://www.topografix.com/GPX/1/1/gpx.xsd" version="1.1" creator="VisuGPX - https://www.visugpx.com">
  <metadata>
    <name>161116HR3Jeunes</name>
    <desc><![CDATA[Excellente sortie beau temps et tout le monde content]]></desc>
  </metadata>
  <trk>
    <name><![CDATA[161116HR3Jeunes]]></name>
    <trkseg>
      <trkpt lat="43.41584" lon="6.07037">
        <ele>202.19999694824</ele>
        <time>2016-11-16T13:03:42Z</time>
      </trkpt>
      <trkpt lat="43.41584" lon="6.07037">
        <ele>202.39999389648</ele>
        <time>2016-11-16T13:03:44Z</time>
      </trkpt>
      <trkpt lat="43.41583" lon="6.07035">
        <ele>202.60000610352</ele>
        <time>2016-11-16T13:03:54Z</time>
      </trkpt>
      <trkpt lat="43.41583" lon="6.07035">
        <ele>202.60000610352</ele>
        <time>2016-11-16T13:04:04Z</time>
      </trkpt>
      <trkpt lat="43.41583" lon="6.07035">
        <ele>202.39999389648</ele>
        <time>2016-11-16T13:04:14Z</time>
      </trkpt>
      <trkpt lat="43.41583" lon="6.07036">
        <ele>202.60000610352</ele>
        <time>2016-11-16T13:04:24Z</time>
      </trkpt>
      <trkpt lat="43.41582" lon="6.07039">
        <ele>201.80000305176</ele>
        <time>2016-11-16T13:04:34Z</time>
      </trkpt>
      <trkpt lat="43.41582" lon="6.07038">
        <ele>202.39999389648</ele>
        <time>2016-11-16T13:04:44Z</time>
      </trkpt>
      <trkpt lat="43.41582" lon="6.07038">
        <ele>201.80000305176</ele>
        <time>2016-11-16T13:04:54Z</time>
      </trkpt>
      <trkpt lat="43.41582" lon="6.07038">
        <ele>202</ele>
        <time>2016-11-16T13:05:02Z</time>
      </trkpt>
      <trkpt lat="43.41582" lon="6.07038">
        <ele>201.80000305176</ele>
        <time>2016-11-16T13:05:04Z</time>
      </trkpt>
      <trkpt lat="43.41582" lon="6.07037">
        <ele>201.80000305176</ele>
        <time>2016-11-16T13:05:14Z</time>
      </trkpt>
      <trkpt lat="43.41582" lon="6.07037">
        <ele>201.39999389648</ele>
        <time>2016-11-16T13:05:24Z</time>
      </trkpt>
      <trkpt lat="43.41582" lon="6.07037">
        <ele>201.39999389648</ele>
        <time>2016-11-16T13:05:34Z</time>
      </trkpt>
      <trkpt lat="43.41583" lon="6.07037">
        <ele>201.60000610352</ele>
        <time>2016-11-16T13:06:04Z</time>
      </trkpt>
      <trkpt lat="43.41583" lon="6.07037">
        <ele>201.80000305176</ele>
        <time>2016-11-16T13:06:14Z</time>
      </trkpt>
      <trkpt lat="43.41583" lon="6.07038">
        <ele>201.60000610352</ele>
        <time>2016-11-16T13:06:24Z</time>
      </trkpt>
      <trkpt lat="43.41583" lon="6.07039">
        <ele>201.60000610352</ele>
        <time>2016-11-16T13:06:34Z</time>
      </trkpt>
      <trkpt lat="43.41584" lon="6.07045">
        <ele>201.60000610352</ele>
        <time>2016-11-16T13:06:52Z</time>
      </trkpt>
      <trkpt lat="43.41584" lon="6.07051">
        <ele>201.39999389648</ele>
        <time>2016-11-16T13:06:54Z</time>
      </trkpt>
      <trkpt lat="43.41588" lon="6.0709">
        <ele>201.19999694824</ele>
        <time>2016-11-16T13:07:01Z</time>
      </trkpt>
      <trkpt lat="43.41589" lon="6.07107">
        <ele>201.19999694824</ele>
        <time>2016-11-16T13:07:04Z</time>
      </trkpt>
      <trkpt lat="43.41587" lon="6.07111">
        <ele>201</ele>
        <time>2016-11-16T13:07:05Z</time>
      </trkpt>
      <trkpt lat="43.41572" lon="6.07116">
        <ele>200.80000305176</ele>
        <time>2016-11-16T13:07:10Z</time>
      </trkpt>
      <trkpt lat="43.4156" lon="6.07118">
        <ele>200.39999389648</ele>
        <time>2016-11-16T13:07:13Z</time>
      </trkpt>
      <trkpt lat="43.41556" lon="6.07118">
        <ele>200.39999389648</ele>
        <time>2016-11-16T13:07:14Z</time>
      </trkpt>
      <trkpt lat="43.4155" lon="6.07113">
        <ele>200.19999694824</ele>
        <time>2016-11-16T13:07:16Z</time>
      </trkpt>
      <trkpt lat="43.41547" lon="6.07091">
        <ele>200.39999389648</ele>
        <time>2016-11-16T13:07:20Z</time>
      </trkpt>
      <trkpt lat="43.41543" lon="6.07081">
        <ele>200.39999389648</ele>
        <time>2016-11-16T13:07:22Z</time>
      </trkpt>
      <trkpt lat="43.41534" lon="6.07077">
        <ele>200.19999694824</ele>
        <time>2016-11-16T13:07:24Z</time>
      </trkpt>
      <trkpt lat="43.41529" lon="6.07077">
        <ele>200</ele>
        <time>2016-11-16T13:07:25Z</time>
      </trkpt>
      <trkpt lat="43.41523" lon="6.07078">
        <ele>199.60000610352</ele>
        <time>2016-11-16T13:07:26Z</time>
      </trkpt>
      <trkpt lat="43.41499" lon="6.07081">
        <ele>199.19999694824</ele>
        <time>2016-11-16T13:07:31Z</time>
      </trkpt>
      <trkpt lat="43.41486" lon="6.07075">
        <ele>199.19999694824</ele>
        <time>2016-11-16T13:07:34Z</time>
      </trkpt>
      <trkpt lat="43.4147" lon="6.07067">
        <ele>199</ele>
        <time>2016-11-16T13:07:39Z</time>
      </trkpt>
      <trkpt lat="43.4147" lon="6.0706">
        <ele>199</ele>
        <time>2016-11-16T13:07:42Z</time>
      </trkpt>
      <trkpt lat="43.41471" lon="6.07057">
        <ele>199</ele>
        <time>2016-11-16T13:07:43Z</time>
      </trkpt>
      <trkpt lat="43.41473" lon="6.07054">
        <ele>199</ele>
        <time>2016-11-16T13:07:44Z</time>
      </trkpt>
      <trkpt lat="43.41475" lon="6.07049">
        <ele>198.80000305176</ele>
        <time>2016-11-16T13:07:45Z</time>
      </trkpt>
      <trkpt lat="43.41484" lon="6.07028">
        <ele>199</ele>
        <time>2016-11-16T13:07:49Z</time>
      </trkpt>
      <trkpt lat="43.41493" lon="6.07006">
        <ele>199.19999694824</ele>
        <time>2016-11-16T13:07:53Z</time>
      </trkpt>
      <trkpt lat="43.41495" lon="6.06994">
        <ele>199.39999389648</ele>
        <time>2016-11-16T13:07:55Z</time>
      </trkpt>
      <trkpt lat="43.41495" lon="6.06981">
        <ele>199.39999389648</ele>
        <time>2016-11-16T13:07:57Z</time>
      </trkpt>
      <trkpt lat="43.41492" lon="6.0697">
        <ele>199.39999389648</ele>
        <time>2016-11-16T13:07:59Z</time>
      </trkpt>
      <trkpt lat="43.4148" lon="6.06946">
        <ele>200.39999389648</ele>
        <time>2016-11-16T13:08:04Z</time>
      </trkpt>
      <trkpt lat="43.41475" lon="6.06936">
        <ele>200.60000610352</ele>
        <time>2016-11-16T13:08:06Z</time>
      </trkpt>
      <trkpt lat="43.41471" lon="6.06928">
        <ele>200.80000305176</ele>
        <time>2016-11-16T13:08:08Z</time>
      </trkpt>
      <trkpt lat="43.41475" lon="6.06911">
        <ele>201.19999694824</ele>
        <time>2016-11-16T13:08:12Z</time>
      </trkpt>
      <trkpt lat="43.41477" lon="6.06903">
        <ele>201.39999389648</ele>
        <time>2016-11-16T13:08:14Z</time>
      </trkpt>
      <trkpt lat="43.41476" lon="6.06896">
        <ele>202</ele>
        <time>2016-11-16T13:08:24Z</time>
      </trkpt>
      <trkpt lat="43.41476" lon="6.06894">
        <ele>202</ele>
        <time>2016-11-16T13:08:27Z</time>
      </trkpt>
      <trkpt lat="43.41476" lon="6.06887">
        <ele>201.80000305176</ele>
        <time>2016-11-16T13:08:29Z</time>
      </trkpt>
      <trkpt lat="43.41477" lon="6.06867">
        <ele>201.80000305176</ele>
        <time>2016-11-16T13:08:33Z</time>
      </trkpt>
      <trkpt lat="43.41476" lon="6.06862">
        <ele>201.60000610352</ele>
        <time>2016-11-16T13:08:34Z</time>
      </trkpt>
      <trkpt lat="43.41476" lon="6.06851">
        <ele>201.60000610352</ele>
        <time>2016-11-16T13:08:36Z</time>
      </trkpt>
      <trkpt lat="43.41478" lon="6.06833">
        <ele>201.39999389648</ele>
        <time>2016-11-16T13:08:39Z</time>
      </trkpt>
      <trkpt lat="43.41487" lon="6.06803">
        <ele>201.19999694824</ele>
        <time>2016-11-16T13:08:44Z</time>
      </trkpt>
      <trkpt lat="43.41495" lon="6.06763">
        <ele>201.80000305176</ele>
        <time>2016-11-16T13:08:50Z</time>
      </trkpt>
      <trkpt lat="43.41497" lon="6.0673">
        <ele>202.19999694824</ele>
        <time>2016-11-16T13:08:55Z</time>
      </trkpt>
      <trkpt lat="43.41499" lon="6.06685">
        <ele>203.19999694824</ele>
        <time>2016-11-16T13:09:02Z</time>
      </trkpt>
      <trkpt lat="43.415" lon="6.06671">
        <ele>203.39999389648</ele>
        <time>2016-11-16T13:09:04Z</time>
      </trkpt>
      <trkpt lat="43.41512" lon="6.06603">
        <ele>204.19999694824</ele>
        <time>2016-11-16T13:09:14Z</time>
      </trkpt>
      <trkpt lat="43.41524" lon="6.06529">
        <ele>204.19999694824</ele>
        <time>2016-11-16T13:09:24Z</time>
      </trkpt>
      <trkpt lat="43.41526" lon="6.06522">
        <ele>204.39999389648</ele>
        <time>2016-11-16T13:09:25Z</time>
      </trkpt>
      <trkpt lat="43.41529" lon="6.06509">
        <ele>204.80000305176</ele>
        <time>2016-11-16T13:09:27Z</time>
      </trkpt>
      <trkpt lat="43.41533" lon="6.06498">
        <ele>204.80000305176</ele>
        <time>2016-11-16T13:09:29Z</time>
      </trkpt>
      <trkpt lat="43.41541" lon="6.06484">
        <ele>205.39999389648</ele>
        <time>2016-11-16T13:09:32Z</time>
      </trkpt>
      <trkpt lat="43.41544" lon="6.06475">
        <ele>206</ele>
        <time>2016-11-16T13:09:34Z</time>
      </trkpt>
      <trkpt lat="43.41545" lon="6.06463">
        <ele>206.19999694824</ele>
        <time>2016-11-16T13:09:36Z</time>
      </trkpt>
      <trkpt lat="43.41544" lon="6.0645">
        <ele>206.39999389648</ele>
        <time>2016-11-16T13:09:38Z</time>
      </trkpt>
      <trkpt lat="43.41545" lon="6.06438">
        <ele>206.60000610352</ele>
        <time>2016-11-16T13:09:40Z</time>
      </trkpt>
      <trkpt lat="43.41546" lon="6.06432">
        <ele>206.60000610352</ele>
        <time>2016-11-16T13:09:41Z</time>
      </trkpt>
      <trkpt lat="43.4155" lon="6.06414">
        <ele>207</ele>
        <time>2016-11-16T13:09:44Z</time>
      </trkpt>
      <trkpt lat="43.41552" lon="6.06403">
        <ele>207.80000305176</ele>
        <time>2016-11-16T13:09:46Z</time>
      </trkpt>
      <trkpt lat="43.41556" lon="6.0638">
        <ele>208.80000305176</ele>
        <time>2016-11-16T13:09:50Z</time>
      </trkpt>
      <trkpt lat="43.41561" lon="6.0636">
        <ele>210.19999694824</ele>
        <time>2016-11-16T13:09:54Z</time>
      </trkpt>
      <trkpt lat="43.41579" lon="6.06329">
        <ele>212.39999389648</ele>
        <time>2016-11-16T13:10:02Z</time>
      </trkpt>
      <trkpt lat="43.41583" lon="6.06322">
        <ele>212.80000305176</ele>
        <time>2016-11-16T13:10:04Z</time>
      </trkpt>
      <trkpt lat="43.41589" lon="6.0631">
        <ele>213.60000610352</ele>
        <time>2016-11-16T13:10:07Z</time>
      </trkpt>
      <trkpt lat="43.41588" lon="6.06281">
        <ele>214.19999694824</ele>
        <time>2016-11-16T13:10:14Z</time>
      </trkpt>
      <trkpt lat="43.41586" lon="6.06273">
        <ele>214.60000610352</ele>
        <time>2016-11-16T13:10:16Z</time>
      </trkpt>
      <trkpt lat="43.41587" lon="6.06269">
        <ele>214.60000610352</ele>
        <time>2016-11-16T13:10:17Z</time>
      </trkpt>
      <trkpt lat="43.416" lon="6.06255">
        <ele>215.60000610352</ele>
        <time>2016-11-16T13:10:24Z</time>
      </trkpt>
      <trkpt lat="43.416" lon="6.06254">
        <ele>215.80000305176</ele>
        <time>2016-11-16T13:10:26Z</time>
      </trkpt>
      <trkpt lat="43.416" lon="6.06255">
        <ele>216.39999389648</ele>
        <time>2016-11-16T13:10:31Z</time>
      </trkpt>
      <trkpt lat="43.41601" lon="6.06254">
        <ele>216.19999694824</ele>
        <time>2016-11-16T13:10:33Z</time>
      </trkpt>
      <trkpt lat="43.41602" lon="6.06253">
        <ele>216</ele>
        <time>2016-11-16T13:10:34Z</time>
      </trkpt>
      <trkpt lat="43.41604" lon="6.06248">
        <ele>215.80000305176</ele>
        <time>2016-11-16T13:10:36Z</time>
      </trkpt>
      <trkpt lat="43.4161" lon="6.06236">
        <ele>215.80000305176</ele>
        <time>2016-11-16T13:10:40Z</time>
      </trkpt>
      <trkpt lat="43.41619" lon="6.06233">
        <ele>216.19999694824</ele>
        <time>2016-11-16T13:10:44Z</time>
      </trkpt>
      <trkpt lat="43.41623" lon="6.06232">
        <ele>216.80000305176</ele>
        <time>2016-11-16T13:10:46Z</time>
      </trkpt>
      <trkpt lat="43.41624" lon="6.0623">
        <ele>216.80000305176</ele>
        <time>2016-11-16T13:10:47Z</time>
      </trkpt>
      <trkpt lat="43.41627" lon="6.06229">
        <ele>217</ele>
        <time>2016-11-16T13:10:49Z</time>
      </trkpt>
      <trkpt lat="43.4163" lon="6.0623">
        <ele>217</ele>
        <time>2016-11-16T13:10:51Z</time>
      </trkpt>
      <trkpt lat="43.41637" lon="6.06236">
        <ele>217</ele>
        <time>2016-11-16T13:10:54Z</time>
      </trkpt>
      <trkpt lat="43.41666" lon="6.0625">
        <ele>218.39999389648</ele>
        <time>2016-11-16T13:11:04Z</time>
      </trkpt>
      <trkpt lat="43.41688" lon="6.06254">
        <ele>218.39999389648</ele>
        <time>2016-11-16T13:11:10Z</time>
      </trkpt>
      <trkpt lat="43.41703" lon="6.06254">
        <ele>218.19999694824</ele>
        <time>2016-11-16T13:11:14Z</time>
      </trkpt>
      <trkpt lat="43.41738" lon="6.06254">
        <ele>218.80000305176</ele>
        <time>2016-11-16T13:11:24Z</time>
      </trkpt>
      <trkpt lat="43.41741" lon="6.06255">
        <ele>219</ele>
        <time>2016-11-16T13:11:25Z</time>
      </trkpt>
      <trkpt lat="43.41757" lon="6.06258">
        <ele>219.80000305176</ele>
        <time>2016-11-16T13:11:30Z</time>
      </trkpt>
      <trkpt lat="43.41763" lon="6.0626">
        <ele>220.19999694824</ele>
        <time>2016-11-16T13:11:32Z</time>
      </trkpt>
      <trkpt lat="43.41769" lon="6.06262">
        <ele>220.39999389648</ele>
        <time>2016-11-16T13:11:34Z</time>
      </trkpt>
      <trkpt lat="43.4178" lon="6.0627">
        <ele>221.19999694824</ele>
        <time>2016-11-16T13:11:38Z</time>
      </trkpt>
      <trkpt lat="43.418" lon="6.06288">
        <ele>222.60000610352</ele>
        <time>2016-11-16T13:11:45Z</time>
      </trkpt>
      <trkpt lat="43.41817" lon="6.06295">
        <ele>223.39999389648</ele>
        <time>2016-11-16T13:11:50Z</time>
      </trkpt>
      <trkpt lat="43.4182" lon="6.06295">
        <ele>223.60000610352</ele>
        <time>2016-11-16T13:11:51Z</time>
      </trkpt>
      <trkpt lat="43.4183" lon="6.06295">
        <ele>224</ele>
        <time>2016-11-16T13:11:54Z</time>
      </trkpt>
      <trkpt lat="43.41845" lon="6.06296">
        <ele>224.80000305176</ele>
        <time>2016-11-16T13:11:59Z</time>
      </trkpt>
      <trkpt lat="43.41859" lon="6.06294">
        <ele>225.39999389648</ele>
        <time>2016-11-16T13:12:04Z</time>
      </trkpt>
      <trkpt lat="43.41861" lon="6.06294">
        <ele>225.80000305176</ele>
        <time>2016-11-16T13:12:05Z</time>
      </trkpt>
      <trkpt lat="43.41874" lon="6.06294">
        <ele>226.80000305176</ele>
        <time>2016-11-16T13:12:10Z</time>
      </trkpt>
      <trkpt lat="43.41886" lon="6.06296">
        <ele>228</ele>
        <time>2016-11-16T13:12:15Z</time>
      </trkpt>
      <trkpt lat="43.41906" lon="6.06295">
        <ele>229</ele>
        <time>2016-11-16T13:12:24Z</time>
      </trkpt>
      <trkpt lat="43.41922" lon="6.06292">
        <ele>230.19999694824</ele>
        <time>2016-11-16T13:12:31Z</time>
      </trkpt>
      <trkpt lat="43.41929" lon="6.0629">
        <ele>230.39999389648</ele>
        <time>2016-11-16T13:12:34Z</time>
      </trkpt>
      <trkpt lat="43.41949" lon="6.06285">
        <ele>231.19999694824</ele>
        <time>2016-11-16T13:12:42Z</time>
      </trkpt>
      <trkpt lat="43.41954" lon="6.06284">
        <ele>231.39999389648</ele>
        <time>2016-11-16T13:12:44Z</time>
      </trkpt>
      <trkpt lat="43.41969" lon="6.06278">
        <ele>232.39999389648</ele>
        <time>2016-11-16T13:12:51Z</time>
      </trkpt>
      <trkpt lat="43.41975" lon="6.06276">
        <ele>232.80000305176</ele>
        <time>2016-11-16T13:12:54Z</time>
      </trkpt>
      <trkpt lat="43.41979" lon="6.06275">
        <ele>233.39999389648</ele>
        <time>2016-11-16T13:12:56Z</time>
      </trkpt>
      <trkpt lat="43.41988" lon="6.06274">
        <ele>234.39999389648</ele>
        <time>2016-11-16T13:13:01Z</time>
      </trkpt>
      <trkpt lat="43.41994" lon="6.06272">
        <ele>235</ele>
        <time>2016-11-16T13:13:04Z</time>
      </trkpt>
      <trkpt lat="43.41998" lon="6.06271">
        <ele>235.39999389648</ele>
        <time>2016-11-16T13:13:06Z</time>
      </trkpt>
      <trkpt lat="43.42007" lon="6.06268">
        <ele>236.60000610352</ele>
        <time>2016-11-16T13:13:11Z</time>
      </trkpt>
      <trkpt lat="43.42012" lon="6.06266">
        <ele>237.39999389648</ele>
        <time>2016-11-16T13:13:14Z</time>
      </trkpt>
      <trkpt lat="43.42014" lon="6.06266">
        <ele>237.60000610352</ele>
        <time>2016-11-16T13:13:15Z</time>
      </trkpt>
      <trkpt lat="43.42024" lon="6.06262">
        <ele>238.80000305176</ele>
        <time>2016-11-16T13:13:21Z</time>
      </trkpt>
      <trkpt lat="43.4203" lon="6.06259">
        <ele>240</ele>
        <time>2016-11-16T13:13:25Z</time>
      </trkpt>
      <trkpt lat="43.42041" lon="6.06256">
        <ele>241</ele>
        <time>2016-11-16T13:13:32Z</time>
      </trkpt>
      <trkpt lat="43.42044" lon="6.06255">
        <ele>241.39999389648</ele>
        <time>2016-11-16T13:13:34Z</time>
      </trkpt>
      <trkpt lat="43.42051" lon="6.06254">
        <ele>242.19999694824</ele>
        <time>2016-11-16T13:13:39Z</time>
      </trkpt>
      <trkpt lat="43.42059" lon="6.06251">
        <ele>243.19999694824</ele>
        <time>2016-11-16T13:13:44Z</time>
      </trkpt>
      <trkpt lat="43.42061" lon="6.06251">
        <ele>243.39999389648</ele>
        <time>2016-11-16T13:13:45Z</time>
      </trkpt>
      <trkpt lat="43.42069" lon="6.06248">
        <ele>244.39999389648</ele>
        <time>2016-11-16T13:13:50Z</time>
      </trkpt>
      <trkpt lat="43.42075" lon="6.06246">
        <ele>245</ele>
        <time>2016-11-16T13:13:54Z</time>
      </trkpt>
      <trkpt lat="43.42078" lon="6.06244">
        <ele>245.39999389648</ele>
        <time>2016-11-16T13:13:56Z</time>
      </trkpt>
      <trkpt lat="43.42085" lon="6.06239">
        <ele>246.60000610352</ele>
        <time>2016-11-16T13:14:02Z</time>
      </trkpt>
      <trkpt lat="43.42088" lon="6.06239">
        <ele>247</ele>
        <time>2016-11-16T13:14:04Z</time>
      </trkpt>
      <trkpt lat="43.42096" lon="6.06238">
        <ele>247.60000610352</ele>
        <time>2016-11-16T13:14:09Z</time>
      </trkpt>
      <trkpt lat="43.42105" lon="6.06236">
        <ele>248.80000305176</ele>
        <time>2016-11-16T13:14:15Z</time>
      </trkpt>
      <trkpt lat="43.4212" lon="6.06231">
        <ele>249.60000610352</ele>
        <time>2016-11-16T13:14:24Z</time>
      </trkpt>
      <trkpt lat="43.42122" lon="6.0623">
        <ele>249.80000305176</ele>
        <time>2016-11-16T13:14:25Z</time>
      </trkpt>
      <trkpt lat="43.42138" lon="6.06224">
        <ele>251</ele>
        <time>2016-11-16T13:14:34Z</time>
      </trkpt>
      <trkpt lat="43.42143" lon="6.06222">
        <ele>251.39999389648</ele>
        <time>2016-11-16T13:14:39Z</time>
      </trkpt>
      <trkpt lat="43.42147" lon="6.0622">
        <ele>251.39999389648</ele>
        <time>2016-11-16T13:14:42Z</time>
      </trkpt>
      <trkpt lat="43.42149" lon="6.06218">
        <ele>251.39999389648</ele>
        <time>2016-11-16T13:14:44Z</time>
      </trkpt>
      <trkpt lat="43.42154" lon="6.06214">
        <ele>251.80000305176</ele>
        <time>2016-11-16T13:14:49Z</time>
      </trkpt>
      <trkpt lat="43.42154" lon="6.0621">
        <ele>251.80000305176</ele>
        <time>2016-11-16T13:14:51Z</time>
      </trkpt>
      <trkpt lat="43.42152" lon="6.06207">
        <ele>251.80000305176</ele>
        <time>2016-11-16T13:14:54Z</time>
      </trkpt>
      <trkpt lat="43.42152" lon="6.06207">
        <ele>252</ele>
        <time>2016-11-16T13:15:01Z</time>
      </trkpt>
      <trkpt lat="43.42152" lon="6.06207">
        <ele>251.80000305176</ele>
        <time>2016-11-16T13:15:03Z</time>
      </trkpt>
      <trkpt lat="43.42152" lon="6.06207">
        <ele>251.80000305176</ele>
        <time>2016-11-16T13:15:09Z</time>
      </trkpt>
      <trkpt lat="43.42152" lon="6.06207">
        <ele>252</ele>
        <time>2016-11-16T13:15:13Z</time>
      </trkpt>
      <trkpt lat="43.42152" lon="6.06207">
        <ele>252</ele>
        <time>2016-11-16T13:15:14Z</time>
      </trkpt>
      <trkpt lat="43.42152" lon="6.06207">
        <ele>251.60000610352</ele>
        <time>2016-11-16T13:15:21Z</time>
      </trkpt>
      <trkpt lat="43.42152" lon="6.06207">
        <ele>251.80000305176</ele>
        <time>2016-11-16T13:15:34Z</time>
      </trkpt>
      <trkpt lat="43.42152" lon="6.06208">
        <ele>252</ele>
        <time>2016-11-16T13:15:50Z</time>
      </trkpt>
      <trkpt lat="43.42152" lon="6.06208">
        <ele>252</ele>
        <time>2016-11-16T13:15:54Z</time>
      </trkpt>
      <trkpt lat="43.42152" lon="6.06207">
        <ele>252</ele>
        <time>2016-11-16T13:16:03Z</time>
      </trkpt>
      <trkpt lat="43.42151" lon="6.06207">
        <ele>252</ele>
        <time>2016-11-16T13:16:04Z</time>
      </trkpt>
      <trkpt lat="43.42152" lon="6.06208">
        <ele>252</ele>
        <time>2016-11-16T13:16:12Z</time>
      </trkpt>
      <trkpt lat="43.42152" lon="6.06208">
        <ele>252</ele>
        <time>2016-11-16T13:16:24Z</time>
      </trkpt>
      <trkpt lat="43.42152" lon="6.06207">
        <ele>252</ele>
        <time>2016-11-16T13:16:28Z</time>
      </trkpt>
      <trkpt lat="43.42152" lon="6.06206">
        <ele>252</ele>
        <time>2016-11-16T13:16:34Z</time>
      </trkpt>
      <trkpt lat="43.42151" lon="6.06203">
        <ele>252</ele>
        <time>2016-11-16T13:16:43Z</time>
      </trkpt>
      <trkpt lat="43.4215" lon="6.062">
        <ele>251.80000305176</ele>
        <time>2016-11-16T13:16:45Z</time>
      </trkpt>
      <trkpt lat="43.42141" lon="6.06177">
        <ele>251.19999694824</ele>
        <time>2016-11-16T13:16:53Z</time>
      </trkpt>
      <trkpt lat="43.42139" lon="6.06173">
        <ele>251</ele>
        <time>2016-11-16T13:16:54Z</time>
      </trkpt>
      <trkpt lat="43.42131" lon="6.06148">
        <ele>249.80000305176</ele>
        <time>2016-11-16T13:16:59Z</time>
      </trkpt>
      <trkpt lat="43.42123" lon="6.06118">
        <ele>249.60000610352</ele>
        <time>2016-11-16T13:17:04Z</time>
      </trkpt>
      <trkpt lat="43.4212" lon="6.06107">
        <ele>249.80000305176</ele>
        <time>2016-11-16T13:17:06Z</time>
      </trkpt>
      <trkpt lat="43.42117" lon="6.06085">
        <ele>250.39999389648</ele>
        <time>2016-11-16T13:17:10Z</time>
      </trkpt>
      <trkpt lat="43.42116" lon="6.06074">
        <ele>251</ele>
        <time>2016-11-16T13:17:12Z</time>
      </trkpt>
      <trkpt lat="43.42115" lon="6.06065">
        <ele>251.80000305176</ele>
        <time>2016-11-16T13:17:14Z</time>
      </trkpt>
      <trkpt lat="43.42113" lon="6.0605">
        <ele>253</ele>
        <time>2016-11-16T13:17:17Z</time>
      </trkpt>
      <trkpt lat="43.42111" lon="6.06041">
        <ele>253.19999694824</ele>
        <time>2016-11-16T13:17:19Z</time>
      </trkpt>
      <trkpt lat="43.42107" lon="6.0602">
        <ele>253.60000610352</ele>
        <time>2016-11-16T13:17:24Z</time>
      </trkpt>
      <trkpt lat="43.42097" lon="6.05981">
        <ele>253.60000610352</ele>
        <time>2016-11-16T13:17:33Z</time>
      </trkpt>
      <trkpt lat="43.42096" lon="6.05976">
        <ele>253.60000610352</ele>
        <time>2016-11-16T13:17:34Z</time>
      </trkpt>
      <trkpt lat="43.42083" lon="6.05917">
        <ele>252.39999389648</ele>
        <time>2016-11-16T13:17:44Z</time>
      </trkpt>
      <trkpt lat="43.42076" lon="6.05893">
        <ele>252.19999694824</ele>
        <time>2016-11-16T13:17:48Z</time>
      </trkpt>
      <trkpt lat="43.42067" lon="6.05856">
        <ele>251.80000305176</ele>
        <time>2016-11-16T13:17:54Z</time>
      </trkpt>
      <trkpt lat="43.42061" lon="6.05833">
        <ele>251.39999389648</ele>
        <time>2016-11-16T13:17:57Z</time>
      </trkpt>
      <trkpt lat="43.42059" lon="6.05823">
        <ele>251</ele>
        <time>2016-11-16T13:17:58Z</time>
      </trkpt>
      <trkpt lat="43.42054" lon="6.05804">
        <ele>249.60000610352</ele>
        <time>2016-11-16T13:18:00Z</time>
      </trkpt>
      <trkpt lat="43.42047" lon="6.05767">
        <ele>248.60000610352</ele>
        <time>2016-11-16T13:18:04Z</time>
      </trkpt>
      <trkpt lat="43.42042" lon="6.0574">
        <ele>248.39999389648</ele>
        <time>2016-11-16T13:18:07Z</time>
      </trkpt>
      <trkpt lat="43.42035" lon="6.05705">
        <ele>247.60000610352</ele>
        <time>2016-11-16T13:18:11Z</time>
      </trkpt>
      <trkpt lat="43.42031" lon="6.05678">
        <ele>247.60000610352</ele>
        <time>2016-11-16T13:18:14Z</time>
      </trkpt>
      <trkpt lat="43.42029" lon="6.05669">
        <ele>247.60000610352</ele>
        <time>2016-11-16T13:18:15Z</time>
      </trkpt>
      <trkpt lat="43.42025" lon="6.05651">
        <ele>247.80000305176</ele>
        <time>2016-11-16T13:18:17Z</time>
      </trkpt>
      <trkpt lat="43.42022" lon="6.05633">
        <ele>248.19999694824</ele>
        <time>2016-11-16T13:18:19Z</time>
      </trkpt>
      <trkpt lat="43.42019" lon="6.0561">
        <ele>250</ele>
        <time>2016-11-16T13:18:22Z</time>
      </trkpt>
      <trkpt lat="43.42016" lon="6.05596">
        <ele>251</ele>
        <time>2016-11-16T13:18:24Z</time>
      </trkpt>
      <trkpt lat="43.42015" lon="6.05589">
        <ele>251.39999389648</ele>
        <time>2016-11-16T13:18:25Z</time>
      </trkpt>
      <trkpt lat="43.42009" lon="6.05556">
        <ele>253.39999389648</ele>
        <time>2016-11-16T13:18:30Z</time>
      </trkpt>
      <trkpt lat="43.42008" lon="6.0555">
        <ele>254</ele>
        <time>2016-11-16T13:18:31Z</time>
      </trkpt>
      <trkpt lat="43.42005" lon="6.05533">
        <ele>255.60000610352</ele>
        <time>2016-11-16T13:18:34Z</time>
      </trkpt>
      <trkpt lat="43.42002" lon="6.05512">
        <ele>256.20001220703</ele>
        <time>2016-11-16T13:18:38Z</time>
      </trkpt>
      <trkpt lat="43.41999" lon="6.05497">
        <ele>257.39999389648</ele>
        <time>2016-11-16T13:18:42Z</time>
      </trkpt>
      <trkpt lat="43.41998" lon="6.05489">
        <ele>258</ele>
        <time>2016-11-16T13:18:44Z</time>
      </trkpt>
      <trkpt lat="43.41994" lon="6.0547">
        <ele>258.20001220703</ele>
        <time>2016-11-16T13:18:49Z</time>
      </trkpt>
      <trkpt lat="43.41992" lon="6.05456">
        <ele>258</ele>
        <time>2016-11-16T13:18:52Z</time>
      </trkpt>
      <trkpt lat="43.41989" lon="6.05447">
        <ele>257.60000610352</ele>
        <time>2016-11-16T13:18:54Z</time>
      </trkpt>
      <trkpt lat="43.41983" lon="6.05423">
        <ele>256.79998779297</ele>
        <time>2016-11-16T13:18:58Z</time>
      </trkpt>
      <trkpt lat="43.4198" lon="6.0541">
        <ele>256.20001220703</ele>
        <time>2016-11-16T13:19:00Z</time>
      </trkpt>
      <trkpt lat="43.41976" lon="6.0539">
        <ele>255.19999694824</ele>
        <time>2016-11-16T13:19:03Z</time>
      </trkpt>
      <trkpt lat="43.41974" lon="6.05383">
        <ele>255</ele>
        <time>2016-11-16T13:19:04Z</time>
      </trkpt>
      <trkpt lat="43.41969" lon="6.05359">
        <ele>254</ele>
        <time>2016-11-16T13:19:07Z</time>
      </trkpt>
      <trkpt lat="43.41963" lon="6.05333">
        <ele>252.80000305176</ele>
        <time>2016-11-16T13:19:10Z</time>
      </trkpt>
      <trkpt lat="43.41957" lon="6.05295">
        <ele>251.39999389648</ele>
        <time>2016-11-16T13:19:14Z</time>
      </trkpt>
      <trkpt lat="43.41953" lon="6.05274">
        <ele>250</ele>
        <time>2016-11-16T13:19:16Z</time>
      </trkpt>
      <trkpt lat="43.41949" lon="6.05252">
        <ele>248.80000305176</ele>
        <time>2016-11-16T13:19:18Z</time>
      </trkpt>
      <trkpt lat="43.41945" lon="6.05217">
        <ele>247.39999389648</ele>
        <time>2016-11-16T13:19:21Z</time>
      </trkpt>
      <trkpt lat="43.41943" lon="6.05197">
        <ele>246.19999694824</ele>
        <time>2016-11-16T13:19:23Z</time>
      </trkpt>
      <trkpt lat="43.41941" lon="6.05171">
        <ele>245</ele>
        <time>2016-11-16T13:19:26Z</time>
      </trkpt>
      <trkpt lat="43.41941" lon="6.05164">
        <ele>244.39999389648</ele>
        <time>2016-11-16T13:19:27Z</time>
      </trkpt>
      <trkpt lat="43.41945" lon="6.0515">
        <ele>243.60000610352</ele>
        <time>2016-11-16T13:19:29Z</time>
      </trkpt>
      <trkpt lat="43.41953" lon="6.05144">
        <ele>243.19999694824</ele>
        <time>2016-11-16T13:19:31Z</time>
      </trkpt>
      <trkpt lat="43.41965" lon="6.05138">
        <ele>243.39999389648</ele>
        <time>2016-11-16T13:19:34Z</time>
      </trkpt>
      <trkpt lat="43.41972" lon="6.05135">
        <ele>243.80000305176</ele>
        <time>2016-11-16T13:19:36Z</time>
      </trkpt>
      <trkpt lat="43.41983" lon="6.05132">
        <ele>244.60000610352</ele>
        <time>2016-11-16T13:19:39Z</time>
      </trkpt>
      <trkpt lat="43.41993" lon="6.0513">
        <ele>245.39999389648</ele>
        <time>2016-11-16T13:19:42Z</time>
      </trkpt>
      <trkpt lat="43.42001" lon="6.05129">
        <ele>245.80000305176</ele>
        <time>2016-11-16T13:19:44Z</time>
      </trkpt>
      <trkpt lat="43.42042" lon="6.05117">
        <ele>246.39999389648</ele>
        <time>2016-11-16T13:19:54Z</time>
      </trkpt>
      <trkpt lat="43.42057" lon="6.05114">
        <ele>246.80000305176</ele>
        <time>2016-11-16T13:19:58Z</time>
      </trkpt>
      <trkpt lat="43.42076" lon="6.05112">
        <ele>247.80000305176</ele>
        <time>2016-11-16T13:20:04Z</time>
      </trkpt>
      <trkpt lat="43.42099" lon="6.05116">
        <ele>249</ele>
        <time>2016-11-16T13:20:11Z</time>
      </trkpt>
      <trkpt lat="43.4211" lon="6.05116">
        <ele>249.60000610352</ele>
        <time>2016-11-16T13:20:14Z</time>
      </trkpt>
      <trkpt lat="43.42116" lon="6.05118">
        <ele>250</ele>
        <time>2016-11-16T13:20:16Z</time>
      </trkpt>
      <trkpt lat="43.42126" lon="6.05124">
        <ele>251</ele>
        <time>2016-11-16T13:20:21Z</time>
      </trkpt>
      <trkpt lat="43.42131" lon="6.05128">
        <ele>251.39999389648</ele>
        <time>2016-11-16T13:20:24Z</time>
      </trkpt>
      <trkpt lat="43.42144" lon="6.05144">
        <ele>252.19999694824</ele>
        <time>2016-11-16T13:20:33Z</time>
      </trkpt>
      <trkpt lat="43.42146" lon="6.05146">
        <ele>252.39999389648</ele>
        <time>2016-11-16T13:20:34Z</time>
      </trkpt>
      <trkpt lat="43.42165" lon="6.05166">
        <ele>252.80000305176</ele>
        <time>2016-11-16T13:20:44Z</time>
      </trkpt>
      <trkpt lat="43.42183" lon="6.05177">
        <ele>253.19999694824</ele>
        <time>2016-11-16T13:20:52Z</time>
      </trkpt>
      <trkpt lat="43.42188" lon="6.0518">
        <ele>253.39999389648</ele>
        <time>2016-11-16T13:20:54Z</time>
      </trkpt>
      <trkpt lat="43.42212" lon="6.05192">
        <ele>254.19999694824</ele>
        <time>2016-11-16T13:21:04Z</time>
      </trkpt>
      <trkpt lat="43.42229" lon="6.05209">
        <ele>255.39999389648</ele>
        <time>2016-11-16T13:21:12Z</time>
      </trkpt>
      <trkpt lat="43.42233" lon="6.05214">
        <ele>255.80000305176</ele>
        <time>2016-11-16T13:21:14Z</time>
      </trkpt>
      <trkpt lat="43.42243" lon="6.05218">
        <ele>256.39999389648</ele>
        <time>2016-11-16T13:21:18Z</time>
      </trkpt>
      <trkpt lat="43.42265" lon="6.05217">
        <ele>257.39999389648</ele>
        <time>2016-11-16T13:21:26Z</time>
      </trkpt>
      <trkpt lat="43.42288" lon="6.0522">
        <ele>258</ele>
        <time>2016-11-16T13:21:34Z</time>
      </trkpt>
      <trkpt lat="43.42302" lon="6.05224">
        <ele>258.79998779297</ele>
        <time>2016-11-16T13:21:39Z</time>
      </trkpt>
      <trkpt lat="43.42314" lon="6.05227">
        <ele>259.39999389648</ele>
        <time>2016-11-16T13:21:44Z</time>
      </trkpt>
      <trkpt lat="43.42322" lon="6.05229">
        <ele>259.79998779297</ele>
        <time>2016-11-16T13:21:48Z</time>
      </trkpt>
      <trkpt lat="43.42332" lon="6.05231">
        <ele>260.79998779297</ele>
        <time>2016-11-16T13:21:53Z</time>
      </trkpt>
      <trkpt lat="43.42338" lon="6.05233">
        <ele>262</ele>
        <time>2016-11-16T13:21:57Z</time>
      </trkpt>
      <trkpt lat="43.42351" lon="6.05235">
        <ele>263</ele>
        <time>2016-11-16T13:22:04Z</time>
      </trkpt>
      <trkpt lat="43.42369" lon="6.0523">
        <ele>264.20001220703</ele>
        <time>2016-11-16T13:22:14Z</time>
      </trkpt>
      <trkpt lat="43.42379" lon="6.0523">
        <ele>265.20001220703</ele>
        <time>2016-11-16T13:22:20Z</time>
      </trkpt>
      <trkpt lat="43.42405" lon="6.05225">
        <ele>266</ele>
        <time>2016-11-16T13:22:33Z</time>
      </trkpt>
      <trkpt lat="43.42412" lon="6.05225">
        <ele>266.20001220703</ele>
        <time>2016-11-16T13:22:36Z</time>
      </trkpt>
      <trkpt lat="43.42431" lon="6.05225">
        <ele>266.60000610352</ele>
        <time>2016-11-16T13:22:44Z</time>
      </trkpt>
      <trkpt lat="43.42445" lon="6.05222">
        <ele>267.20001220703</ele>
        <time>2016-11-16T13:22:50Z</time>
      </trkpt>
      <trkpt lat="43.42453" lon="6.05219">
        <ele>267.79998779297</ele>
        <time>2016-11-16T13:22:54Z</time>
      </trkpt>
      <trkpt lat="43.42457" lon="6.05217">
        <ele>268.39999389648</ele>
        <time>2016-11-16T13:22:56Z</time>
      </trkpt>
      <trkpt lat="43.42459" lon="6.05215">
        <ele>269.39999389648</ele>
        <time>2016-11-16T13:22:58Z</time>
      </trkpt>
      <trkpt lat="43.42462" lon="6.05214">
        <ele>270</ele>
        <time>2016-11-16T13:23:00Z</time>
      </trkpt>
      <trkpt lat="43.42466" lon="6.05214">
        <ele>270.79998779297</ele>
        <time>2016-11-16T13:23:03Z</time>
      </trkpt>
      <trkpt lat="43.42467" lon="6.05214">
        <ele>271</ele>
        <time>2016-11-16T13:23:04Z</time>
      </trkpt>
      <trkpt lat="43.42484" lon="6.05219">
        <ele>271.20001220703</ele>
        <time>2016-11-16T13:23:12Z</time>
      </trkpt>
      <trkpt lat="43.42488" lon="6.05221">
        <ele>271</ele>
        <time>2016-11-16T13:23:14Z</time>
      </trkpt>
      <trkpt lat="43.42496" lon="6.05224">
        <ele>270.79998779297</ele>
        <time>2016-11-16T13:23:17Z</time>
      </trkpt>
      <trkpt lat="43.42509" lon="6.05228">
        <ele>270.60000610352</ele>
        <time>2016-11-16T13:23:23Z</time>
      </trkpt>
      <trkpt lat="43.42511" lon="6.05228">
        <ele>270.60000610352</ele>
        <time>2016-11-16T13:23:24Z</time>
      </trkpt>
      <trkpt lat="43.42531" lon="6.05225">
        <ele>271.20001220703</ele>
        <time>2016-11-16T13:23:34Z</time>
      </trkpt>
      <trkpt lat="43.42544" lon="6.05225">
        <ele>272</ele>
        <time>2016-11-16T13:23:40Z</time>
      </trkpt>
      <trkpt lat="43.42548" lon="6.05224">
        <ele>273</ele>
        <time>2016-11-16T13:23:43Z</time>
      </trkpt>
      <trkpt lat="43.4255" lon="6.05223">
        <ele>273.20001220703</ele>
        <time>2016-11-16T13:23:44Z</time>
      </trkpt>
      <trkpt lat="43.42554" lon="6.05222">
        <ele>273.39999389648</ele>
        <time>2016-11-16T13:23:47Z</time>
      </trkpt>
      <trkpt lat="43.42568" lon="6.05224">
        <ele>273.79998779297</ele>
        <time>2016-11-16T13:23:54Z</time>
      </trkpt>
      <trkpt lat="43.42578" lon="6.05229">
        <ele>273.39999389648</ele>
        <time>2016-11-16T13:23:59Z</time>
      </trkpt>
      <trkpt lat="43.42586" lon="6.05237">
        <ele>273.60000610352</ele>
        <time>2016-11-16T13:24:04Z</time>
      </trkpt>
      <trkpt lat="43.42594" lon="6.05244">
        <ele>274</ele>
        <time>2016-11-16T13:24:09Z</time>
      </trkpt>
      <trkpt lat="43.42604" lon="6.05252">
        <ele>274.20001220703</ele>
        <time>2016-11-16T13:24:14Z</time>
      </trkpt>
      <trkpt lat="43.42616" lon="6.05262">
        <ele>275</ele>
        <time>2016-11-16T13:24:21Z</time>
      </trkpt>
      <trkpt lat="43.42621" lon="6.05265">
        <ele>275.60000610352</ele>
        <time>2016-11-16T13:24:24Z</time>
      </trkpt>
      <trkpt lat="43.42627" lon="6.05268">
        <ele>276</ele>
        <time>2016-11-16T13:24:29Z</time>
      </trkpt>
      <trkpt lat="43.42627" lon="6.05268">
        <ele>276.20001220703</ele>
        <time>2016-11-16T13:24:32Z</time>
      </trkpt>
      <trkpt lat="43.42627" lon="6.05268">
        <ele>276.39999389648</ele>
        <time>2016-11-16T13:24:34Z</time>
      </trkpt>
      <trkpt lat="43.42627" lon="6.05267">
        <ele>276.20001220703</ele>
        <time>2016-11-16T13:24:39Z</time>
      </trkpt>
      <trkpt lat="43.42628" lon="6.05269">
        <ele>276.39999389648</ele>
        <time>2016-11-16T13:24:44Z</time>
      </trkpt>
      <trkpt lat="43.42629" lon="6.05271">
        <ele>276</ele>
        <time>2016-11-16T13:24:54Z</time>
      </trkpt>
      <trkpt lat="43.4263" lon="6.05271">
        <ele>275.60000610352</ele>
        <time>2016-11-16T13:25:00Z</time>
      </trkpt>
      <trkpt lat="43.42629" lon="6.05271">
        <ele>275.60000610352</ele>
        <time>2016-11-16T13:25:04Z</time>
      </trkpt>
      <trkpt lat="43.42631" lon="6.0527">
        <ele>276.20001220703</ele>
        <time>2016-11-16T13:25:10Z</time>
      </trkpt>
      <trkpt lat="43.42631" lon="6.0527">
        <ele>276.20001220703</ele>
        <time>2016-11-16T13:25:14Z</time>
      </trkpt>
      <trkpt lat="43.42632" lon="6.05268">
        <ele>276.39999389648</ele>
        <time>2016-11-16T13:25:24Z</time>
      </trkpt>
      <trkpt lat="43.42633" lon="6.05267">
        <ele>276.20001220703</ele>
        <time>2016-11-16T13:25:32Z</time>
      </trkpt>
      <trkpt lat="43.42632" lon="6.05268">
        <ele>276</ele>
        <time>2016-11-16T13:25:33Z</time>
      </trkpt>
      <trkpt lat="43.42632" lon="6.05268">
        <ele>276.39999389648</ele>
        <time>2016-11-16T13:25:34Z</time>
      </trkpt>
      <trkpt lat="43.42632" lon="6.05268">
        <ele>276.39999389648</ele>
        <time>2016-11-16T13:25:44Z</time>
      </trkpt>
      <trkpt lat="43.42632" lon="6.05271">
        <ele>276.39999389648</ele>
        <time>2016-11-16T13:25:52Z</time>
      </trkpt>
      <trkpt lat="43.42632" lon="6.05271">
        <ele>276.39999389648</ele>
        <time>2016-11-16T13:25:54Z</time>
      </trkpt>
      <trkpt lat="43.42632" lon="6.05271">
        <ele>276.39999389648</ele>
        <time>2016-11-16T13:25:58Z</time>
      </trkpt>
      <trkpt lat="43.42633" lon="6.05272">
        <ele>276.39999389648</ele>
        <time>2016-11-16T13:26:20Z</time>
      </trkpt>
      <trkpt lat="43.42633" lon="6.05272">
        <ele>276.39999389648</ele>
        <time>2016-11-16T13:26:24Z</time>
      </trkpt>
      <trkpt lat="43.42632" lon="6.05271">
        <ele>276.39999389648</ele>
        <time>2016-11-16T13:26:34Z</time>
      </trkpt>
      <trkpt lat="43.42632" lon="6.05271">
        <ele>276.39999389648</ele>
        <time>2016-11-16T13:26:40Z</time>
      </trkpt>
      <trkpt lat="43.4263" lon="6.05271">
        <ele>276.39999389648</ele>
        <time>2016-11-16T13:26:51Z</time>
      </trkpt>
      <trkpt lat="43.42628" lon="6.05272">
        <ele>276.39999389648</ele>
        <time>2016-11-16T13:26:54Z</time>
      </trkpt>
      <trkpt lat="43.42627" lon="6.05273">
        <ele>276.39999389648</ele>
        <time>2016-11-16T13:26:59Z</time>
      </trkpt>
      <trkpt lat="43.42628" lon="6.05274">
        <ele>276.39999389648</ele>
        <time>2016-11-16T13:27:04Z</time>
      </trkpt>
      <trkpt lat="43.42628" lon="6.05274">
        <ele>276.39999389648</ele>
        <time>2016-11-16T13:27:06Z</time>
      </trkpt>
      <trkpt lat="43.42628" lon="6.05273">
        <ele>276.39999389648</ele>
        <time>2016-11-16T13:27:11Z</time>
      </trkpt>
      <trkpt lat="43.42629" lon="6.05274">
        <ele>276.39999389648</ele>
        <time>2016-11-16T13:27:14Z</time>
      </trkpt>
      <trkpt lat="43.42631" lon="6.05273">
        <ele>276.39999389648</ele>
        <time>2016-11-16T13:27:34Z</time>
      </trkpt>
      <trkpt lat="43.42632" lon="6.0527">
        <ele>276.39999389648</ele>
        <time>2016-11-16T13:27:44Z</time>
      </trkpt>
      <trkpt lat="43.42632" lon="6.05269">
        <ele>276.39999389648</ele>
        <time>2016-11-16T13:27:47Z</time>
      </trkpt>
      <trkpt lat="43.42636" lon="6.05266">
        <ele>276.79998779297</ele>
        <time>2016-11-16T13:27:50Z</time>
      </trkpt>
      <trkpt lat="43.4264" lon="6.05264">
        <ele>276.79998779297</ele>
        <time>2016-11-16T13:27:52Z</time>
      </trkpt>
      <trkpt lat="43.42645" lon="6.05262">
        <ele>276.60000610352</ele>
        <time>2016-11-16T13:27:54Z</time>
      </trkpt>
      <trkpt lat="43.42646" lon="6.0526">
        <ele>276.79998779297</ele>
        <time>2016-11-16T13:27:55Z</time>
      </trkpt>
      <trkpt lat="43.42656" lon="6.0525">
        <ele>277</ele>
        <time>2016-11-16T13:28:00Z</time>
      </trkpt>
      <trkpt lat="43.42658" lon="6.05248">
        <ele>277.39999389648</ele>
        <time>2016-11-16T13:28:01Z</time>
      </trkpt>
      <trkpt lat="43.42665" lon="6.05243">
        <ele>278</ele>
        <time>2016-11-16T13:28:04Z</time>
      </trkpt>
      <trkpt lat="43.42669" lon="6.05239">
        <ele>278.39999389648</ele>
        <time>2016-11-16T13:28:06Z</time>
      </trkpt>
      <trkpt lat="43.42671" lon="6.05237">
        <ele>278.60000610352</ele>
        <time>2016-11-16T13:28:07Z</time>
      </trkpt>
      <trkpt lat="43.42678" lon="6.05232">
        <ele>279</ele>
        <time>2016-11-16T13:28:11Z</time>
      </trkpt>
      <trkpt lat="43.42684" lon="6.0523">
        <ele>279.20001220703</ele>
        <time>2016-11-16T13:28:14Z</time>
      </trkpt>
      <trkpt lat="43.42691" lon="6.05226">
        <ele>281</ele>
        <time>2016-11-16T13:28:18Z</time>
      </trkpt>
      <trkpt lat="43.42698" lon="6.05223">
        <ele>282.20001220703</ele>
        <time>2016-11-16T13:28:22Z</time>
      </trkpt>
      <trkpt lat="43.42701" lon="6.05221">
        <ele>282.39999389648</ele>
        <time>2016-11-16T13:28:24Z</time>
      </trkpt>
      <trkpt lat="43.42707" lon="6.05217">
        <ele>282.79998779297</ele>
        <time>2016-11-16T13:28:27Z</time>
      </trkpt>
      <trkpt lat="43.42713" lon="6.05209">
        <ele>283.20001220703</ele>
        <time>2016-11-16T13:28:31Z</time>
      </trkpt>
      <trkpt lat="43.42717" lon="6.05205">
        <ele>283.79998779297</ele>
        <time>2016-11-16T13:28:34Z</time>
      </trkpt>
      <trkpt lat="43.42719" lon="6.05201">
        <ele>284.39999389648</ele>
        <time>2016-11-16T13:28:36Z</time>
      </trkpt>
      <trkpt lat="43.42725" lon="6.05181">
        <ele>285.79998779297</ele>
        <time>2016-11-16T13:28:47Z</time>
      </trkpt>
      <trkpt lat="43.42727" lon="6.05172">
        <ele>286.60000610352</ele>
        <time>2016-11-16T13:28:51Z</time>
      </trkpt>
      <trkpt lat="43.42728" lon="6.05168">
        <ele>287.39999389648</ele>
        <time>2016-11-16T13:28:54Z</time>
      </trkpt>
      <trkpt lat="43.42729" lon="6.05167">
        <ele>287.60000610352</ele>
        <time>2016-11-16T13:28:55Z</time>
      </trkpt>
      <trkpt lat="43.42734" lon="6.05161">
        <ele>288.79998779297</ele>
        <time>2016-11-16T13:29:00Z</time>
      </trkpt>
      <trkpt lat="43.42738" lon="6.05155">
        <ele>289.20001220703</ele>
        <time>2016-11-16T13:29:04Z</time>
      </trkpt>
      <trkpt lat="43.42746" lon="6.05139">
        <ele>289.79998779297</ele>
        <time>2016-11-16T13:29:13Z</time>
      </trkpt>
      <trkpt lat="43.42747" lon="6.05137">
        <ele>289.79998779297</ele>
        <time>2016-11-16T13:29:14Z</time>
      </trkpt>
      <trkpt lat="43.4275" lon="6.05127">
        <ele>290</ele>
        <time>2016-11-16T13:29:19Z</time>
      </trkpt>
      <trkpt lat="43.42752" lon="6.05121">
        <ele>290.60000610352</ele>
        <time>2016-11-16T13:29:22Z</time>
      </trkpt>
      <trkpt lat="43.42752" lon="6.05116">
        <ele>290.60000610352</ele>
        <time>2016-11-16T13:29:24Z</time>
      </trkpt>
      <trkpt lat="43.42751" lon="6.05106">
        <ele>290.79998779297</ele>
        <time>2016-11-16T13:29:29Z</time>
      </trkpt>
      <trkpt lat="43.42747" lon="6.05096">
        <ele>291.39999389648</ele>
        <time>2016-11-16T13:29:34Z</time>
      </trkpt>
      <trkpt lat="43.42748" lon="6.05077">
        <ele>292</ele>
        <time>2016-11-16T13:29:42Z</time>
      </trkpt>
      <trkpt lat="43.42749" lon="6.05065">
        <ele>292.60000610352</ele>
        <time>2016-11-16T13:29:47Z</time>
      </trkpt>
      <trkpt lat="43.42752" lon="6.05056">
        <ele>293.20001220703</ele>
        <time>2016-11-16T13:29:51Z</time>
      </trkpt>
      <trkpt lat="43.42754" lon="6.0505">
        <ele>293.79998779297</ele>
        <time>2016-11-16T13:29:54Z</time>
      </trkpt>
      <trkpt lat="43.42762" lon="6.05028">
        <ele>294.20001220703</ele>
        <time>2016-11-16T13:30:04Z</time>
      </trkpt>
      <trkpt lat="43.42762" lon="6.05001">
        <ele>295.20001220703</ele>
        <time>2016-11-16T13:30:14Z</time>
      </trkpt>
      <trkpt lat="43.42762" lon="6.04999">
        <ele>295.20001220703</ele>
        <time>2016-11-16T13:30:15Z</time>
      </trkpt>
      <trkpt lat="43.42761" lon="6.04976">
        <ele>295.60000610352</ele>
        <time>2016-11-16T13:30:24Z</time>
      </trkpt>
      <trkpt lat="43.4276" lon="6.0496">
        <ele>296.39999389648</ele>
        <time>2016-11-16T13:30:30Z</time>
      </trkpt>
      <trkpt lat="43.42759" lon="6.04949">
        <ele>297</ele>
        <time>2016-11-16T13:30:34Z</time>
      </trkpt>
      <trkpt lat="43.4276" lon="6.04936">
        <ele>297.60000610352</ele>
        <time>2016-11-16T13:30:39Z</time>
      </trkpt>
      <trkpt lat="43.42757" lon="6.04925">
        <ele>298.60000610352</ele>
        <time>2016-11-16T13:30:43Z</time>
      </trkpt>
      <trkpt lat="43.42756" lon="6.04924">
        <ele>298.60000610352</ele>
        <time>2016-11-16T13:30:44Z</time>
      </trkpt>
      <trkpt lat="43.42756" lon="6.04907">
        <ele>299.79998779297</ele>
        <time>2016-11-16T13:30:52Z</time>
      </trkpt>
      <trkpt lat="43.42757" lon="6.04903">
        <ele>299.79998779297</ele>
        <time>2016-11-16T13:30:54Z</time>
      </trkpt>
      <trkpt lat="43.42765" lon="6.04886">
        <ele>300.79998779297</ele>
        <time>2016-11-16T13:31:03Z</time>
      </trkpt>
      <trkpt lat="43.42766" lon="6.04884">
        <ele>301</ele>
        <time>2016-11-16T13:31:04Z</time>
      </trkpt>
      <trkpt lat="43.42771" lon="6.04869">
        <ele>301.79998779297</ele>
        <time>2016-11-16T13:31:12Z</time>
      </trkpt>
      <trkpt lat="43.42772" lon="6.04866">
        <ele>302</ele>
        <time>2016-11-16T13:31:14Z</time>
      </trkpt>
      <trkpt lat="43.42775" lon="6.04851">
        <ele>303</ele>
        <time>2016-11-16T13:31:22Z</time>
      </trkpt>
      <trkpt lat="43.42776" lon="6.04847">
        <ele>303.20001220703</ele>
        <time>2016-11-16T13:31:24Z</time>
      </trkpt>
      <trkpt lat="43.42777" lon="6.04837">
        <ele>304.20001220703</ele>
        <time>2016-11-16T13:31:29Z</time>
      </trkpt>
      <trkpt lat="43.42778" lon="6.04834">
        <ele>304.20001220703</ele>
        <time>2016-11-16T13:31:31Z</time>
      </trkpt>
      <trkpt lat="43.4278" lon="6.04832">
        <ele>304.39999389648</ele>
        <time>2016-11-16T13:31:34Z</time>
      </trkpt>
      <trkpt lat="43.42781" lon="6.04832">
        <ele>304.79998779297</ele>
        <time>2016-11-16T13:31:41Z</time>
      </trkpt>
      <trkpt lat="43.42781" lon="6.04832">
        <ele>304.79998779297</ele>
        <time>2016-11-16T13:31:44Z</time>
      </trkpt>
      <trkpt lat="43.42781" lon="6.04832">
        <ele>304.79998779297</ele>
        <time>2016-11-16T13:31:47Z</time>
      </trkpt>
      <trkpt lat="43.42781" lon="6.04832">
        <ele>304.60000610352</ele>
        <time>2016-11-16T13:31:53Z</time>
      </trkpt>
      <trkpt lat="43.42781" lon="6.04832">
        <ele>304.60000610352</ele>
        <time>2016-11-16T13:31:54Z</time>
      </trkpt>
      <trkpt lat="43.42782" lon="6.04832">
        <ele>304.60000610352</ele>
        <time>2016-11-16T13:31:56Z</time>
      </trkpt>
      <trkpt lat="43.42782" lon="6.04832">
        <ele>304.60000610352</ele>
        <time>2016-11-16T13:31:59Z</time>
      </trkpt>
      <trkpt lat="43.42782" lon="6.04832">
        <ele>304.60000610352</ele>
        <time>2016-11-16T13:32:04Z</time>
      </trkpt>
      <trkpt lat="43.42782" lon="6.04832">
        <ele>304.39999389648</ele>
        <time>2016-11-16T13:32:09Z</time>
      </trkpt>
      <trkpt lat="43.42782" lon="6.04832">
        <ele>304.60000610352</ele>
        <time>2016-11-16T13:32:34Z</time>
      </trkpt>
      <trkpt lat="43.42783" lon="6.04832">
        <ele>304.60000610352</ele>
        <time>2016-11-16T13:32:39Z</time>
      </trkpt>
      <trkpt lat="43.42786" lon="6.0483">
        <ele>304.79998779297</ele>
        <time>2016-11-16T13:32:42Z</time>
      </trkpt>
      <trkpt lat="43.42788" lon="6.0483">
        <ele>304.60000610352</ele>
        <time>2016-11-16T13:32:44Z</time>
      </trkpt>
      <trkpt lat="43.42789" lon="6.04831">
        <ele>304.60000610352</ele>
        <time>2016-11-16T13:32:45Z</time>
      </trkpt>
      <trkpt lat="43.42793" lon="6.04836">
        <ele>304.60000610352</ele>
        <time>2016-11-16T13:32:50Z</time>
      </trkpt>
      <trkpt lat="43.42798" lon="6.0484">
        <ele>304.79998779297</ele>
        <time>2016-11-16T13:32:54Z</time>
      </trkpt>
      <trkpt lat="43.42802" lon="6.04845">
        <ele>305.20001220703</ele>
        <time>2016-11-16T13:32:57Z</time>
      </trkpt>
      <trkpt lat="43.42808" lon="6.04852">
        <ele>305.39999389648</ele>
        <time>2016-11-16T13:33:01Z</time>
      </trkpt>
      <trkpt lat="43.42812" lon="6.04855">
        <ele>305.39999389648</ele>
        <time>2016-11-16T13:33:03Z</time>
      </trkpt>
      <trkpt lat="43.42815" lon="6.04855">
        <ele>305.39999389648</ele>
        <time>2016-11-16T13:33:04Z</time>
      </trkpt>
      <trkpt lat="43.4282" lon="6.04856">
        <ele>305.60000610352</ele>
        <time>2016-11-16T13:33:06Z</time>
      </trkpt>
      <trkpt lat="43.42822" lon="6.04856">
        <ele>306.39999389648</ele>
        <time>2016-11-16T13:33:08Z</time>
      </trkpt>
      <trkpt lat="43.42826" lon="6.04856">
        <ele>307.39999389648</ele>
        <time>2016-11-16T13:33:10Z</time>
      </trkpt>
      <trkpt lat="43.4283" lon="6.04855">
        <ele>307.79998779297</ele>
        <time>2016-11-16T13:33:12Z</time>
      </trkpt>
      <trkpt lat="43.42833" lon="6.04856">
        <ele>308.20001220703</ele>
        <time>2016-11-16T13:33:14Z</time>
      </trkpt>
      <trkpt lat="43.42836" lon="6.04856">
        <ele>308.60000610352</ele>
        <time>2016-11-16T13:33:16Z</time>
      </trkpt>
      <trkpt lat="43.42841" lon="6.04859">
        <ele>309.20001220703</ele>
        <time>2016-11-16T13:33:19Z</time>
      </trkpt>
      <trkpt lat="43.42845" lon="6.04862">
        <ele>309.60000610352</ele>
        <time>2016-11-16T13:33:22Z</time>
      </trkpt>
      <trkpt lat="43.42848" lon="6.04865">
        <ele>310</ele>
        <time>2016-11-16T13:33:24Z</time>
      </trkpt>
      <trkpt lat="43.42854" lon="6.04871">
        <ele>310.79998779297</ele>
        <time>2016-11-16T13:33:28Z</time>
      </trkpt>
      <trkpt lat="43.42861" lon="6.04883">
        <ele>311</ele>
        <time>2016-11-16T13:33:34Z</time>
      </trkpt>
      <trkpt lat="43.42866" lon="6.04891">
        <ele>310.79998779297</ele>
        <time>2016-11-16T13:33:38Z</time>
      </trkpt>
      <trkpt lat="43.42873" lon="6.04904">
        <ele>310.60000610352</ele>
        <time>2016-11-16T13:33:44Z</time>
      </trkpt>
      <trkpt lat="43.42891" lon="6.04926">
        <ele>310.79998779297</ele>
        <time>2016-11-16T13:33:54Z</time>
      </trkpt>
      <trkpt lat="43.42913" lon="6.0492">
        <ele>311</ele>
        <time>2016-11-16T13:34:04Z</time>
      </trkpt>
      <trkpt lat="43.42927" lon="6.04924">
        <ele>311.60000610352</ele>
        <time>2016-11-16T13:34:12Z</time>
      </trkpt>
      <trkpt lat="43.42928" lon="6.04927">
        <ele>312</ele>
        <time>2016-11-16T13:34:14Z</time>
      </trkpt>
      <trkpt lat="43.42932" lon="6.04939">
        <ele>312.39999389648</ele>
        <time>2016-11-16T13:34:21Z</time>
      </trkpt>
      <trkpt lat="43.42932" lon="6.04945">
        <ele>312.39999389648</ele>
        <time>2016-11-16T13:34:24Z</time>
      </trkpt>
      <trkpt lat="43.42931" lon="6.04957">
        <ele>312.79998779297</ele>
        <time>2016-11-16T13:34:31Z</time>
      </trkpt>
      <trkpt lat="43.42931" lon="6.0496">
        <ele>313</ele>
        <time>2016-11-16T13:34:34Z</time>
      </trkpt>
      <trkpt lat="43.42931" lon="6.04965">
        <ele>313</ele>
        <time>2016-11-16T13:34:39Z</time>
      </trkpt>
      <trkpt lat="43.4293" lon="6.04973">
        <ele>313.20001220703</ele>
        <time>2016-11-16T13:34:44Z</time>
      </trkpt>
      <trkpt lat="43.42926" lon="6.04995">
        <ele>313.39999389648</ele>
        <time>2016-11-16T13:34:54Z</time>
      </trkpt>
      <trkpt lat="43.42925" lon="6.0502">
        <ele>314</ele>
        <time>2016-11-16T13:35:01Z</time>
      </trkpt>
      <trkpt lat="43.42924" lon="6.05029">
        <ele>313.60000610352</ele>
        <time>2016-11-16T13:35:03Z</time>
      </trkpt>
      <trkpt lat="43.42924" lon="6.05034">
        <ele>313.60000610352</ele>
        <time>2016-11-16T13:35:04Z</time>
      </trkpt>
      <trkpt lat="43.42923" lon="6.05048">
        <ele>313.79998779297</ele>
        <time>2016-11-16T13:35:07Z</time>
      </trkpt>
      <trkpt lat="43.4292" lon="6.05063">
        <ele>314.39999389648</ele>
        <time>2016-11-16T13:35:10Z</time>
      </trkpt>
      <trkpt lat="43.42919" lon="6.05079">
        <ele>315</ele>
        <time>2016-11-16T13:35:13Z</time>
      </trkpt>
      <trkpt lat="43.42918" lon="6.05085">
        <ele>315</ele>
        <time>2016-11-16T13:35:14Z</time>
      </trkpt>
      <trkpt lat="43.42916" lon="6.05101">
        <ele>315.20001220703</ele>
        <time>2016-11-16T13:35:17Z</time>
      </trkpt>
      <trkpt lat="43.42913" lon="6.05126">
        <ele>316</ele>
        <time>2016-11-16T13:35:22Z</time>
      </trkpt>
      <trkpt lat="43.42912" lon="6.05136">
        <ele>316.60000610352</ele>
        <time>2016-11-16T13:35:24Z</time>
      </trkpt>
      <trkpt lat="43.42909" lon="6.05156">
        <ele>316.79998779297</ele>
        <time>2016-11-16T13:35:28Z</time>
      </trkpt>
      <trkpt lat="43.42908" lon="6.05161">
        <ele>317</ele>
        <time>2016-11-16T13:35:29Z</time>
      </trkpt>
      <trkpt lat="43.42907" lon="6.05178">
        <ele>318.39999389648</ele>
        <time>2016-11-16T13:35:33Z</time>
      </trkpt>
      <trkpt lat="43.42906" lon="6.05182">
        <ele>318.39999389648</ele>
        <time>2016-11-16T13:35:34Z</time>
      </trkpt>
      <trkpt lat="43.42902" lon="6.05215">
        <ele>319</ele>
        <time>2016-11-16T13:35:44Z</time>
      </trkpt>
      <trkpt lat="43.429" lon="6.0523">
        <ele>319</ele>
        <time>2016-11-16T13:35:49Z</time>
      </trkpt>
      <trkpt lat="43.42898" lon="6.05246">
        <ele>319.20001220703</ele>
        <time>2016-11-16T13:35:54Z</time>
      </trkpt>
      <trkpt lat="43.42896" lon="6.05264">
        <ele>319.39999389648</ele>
        <time>2016-11-16T13:36:00Z</time>
      </trkpt>
      <trkpt lat="43.42895" lon="6.05277">
        <ele>319.39999389648</ele>
        <time>2016-11-16T13:36:04Z</time>
      </trkpt>
      <trkpt lat="43.42892" lon="6.05302">
        <ele>319.79998779297</ele>
        <time>2016-11-16T13:36:11Z</time>
      </trkpt>
      <trkpt lat="43.42891" lon="6.05315">
        <ele>319.39999389648</ele>
        <time>2016-11-16T13:36:14Z</time>
      </trkpt>
      <trkpt lat="43.42888" lon="6.05335">
        <ele>318.79998779297</ele>
        <time>2016-11-16T13:36:18Z</time>
      </trkpt>
      <trkpt lat="43.42886" lon="6.05347">
        <ele>318.20001220703</ele>
        <time>2016-11-16T13:36:20Z</time>
      </trkpt>
      <trkpt lat="43.42881" lon="6.05372">
        <ele>317.20001220703</ele>
        <time>2016-11-16T13:36:24Z</time>
      </trkpt>
      <trkpt lat="43.42881" lon="6.05386">
        <ele>316.79998779297</ele>
        <time>2016-11-16T13:36:26Z</time>
      </trkpt>
      <trkpt lat="43.4288" lon="6.0541">
        <ele>316</ele>
        <time>2016-11-16T13:36:29Z</time>
      </trkpt>
      <trkpt lat="43.42879" lon="6.05417">
        <ele>315.60000610352</ele>
        <time>2016-11-16T13:36:30Z</time>
      </trkpt>
      <trkpt lat="43.42877" lon="6.05432">
        <ele>314.79998779297</ele>
        <time>2016-11-16T13:36:32Z</time>
      </trkpt>
      <trkpt lat="43.42873" lon="6.05466">
        <ele>314.20001220703</ele>
        <time>2016-11-16T13:36:37Z</time>
      </trkpt>
      <trkpt lat="43.42868" lon="6.05508">
        <ele>314</ele>
        <time>2016-11-16T13:36:44Z</time>
      </trkpt>
      <trkpt lat="43.42867" lon="6.05523">
        <ele>313.79998779297</ele>
        <time>2016-11-16T13:36:47Z</time>
      </trkpt>
      <trkpt lat="43.42867" lon="6.05543">
        <ele>313.79998779297</ele>
        <time>2016-11-16T13:36:52Z</time>
      </trkpt>
      <trkpt lat="43.42872" lon="6.05546">
        <ele>313.79998779297</ele>
        <time>2016-11-16T13:36:54Z</time>
      </trkpt>
      <trkpt lat="43.42895" lon="6.05558">
        <ele>312.79998779297</ele>
        <time>2016-11-16T13:37:01Z</time>
      </trkpt>
      <trkpt lat="43.42899" lon="6.05558">
        <ele>312.60000610352</ele>
        <time>2016-11-16T13:37:02Z</time>
      </trkpt>
      <trkpt lat="43.42906" lon="6.05555">
        <ele>312.39999389648</ele>
        <time>2016-11-16T13:37:04Z</time>
      </trkpt>
      <trkpt lat="43.42914" lon="6.0555">
        <ele>311.79998779297</ele>
        <time>2016-11-16T13:37:06Z</time>
      </trkpt>
      <trkpt lat="43.42923" lon="6.05545">
        <ele>311</ele>
        <time>2016-11-16T13:37:08Z</time>
      </trkpt>
      <trkpt lat="43.42927" lon="6.05541">
        <ele>310.79998779297</ele>
        <time>2016-11-16T13:37:09Z</time>
      </trkpt>
      <trkpt lat="43.42945" lon="6.05528">
        <ele>311</ele>
        <time>2016-11-16T13:37:14Z</time>
      </trkpt>
      <trkpt lat="43.42953" lon="6.05524">
        <ele>311.20001220703</ele>
        <time>2016-11-16T13:37:16Z</time>
      </trkpt>
      <trkpt lat="43.42959" lon="6.05521">
        <ele>312.20001220703</ele>
        <time>2016-11-16T13:37:18Z</time>
      </trkpt>
      <trkpt lat="43.42964" lon="6.05519">
        <ele>313.20001220703</ele>
        <time>2016-11-16T13:37:20Z</time>
      </trkpt>
      <trkpt lat="43.42968" lon="6.05516">
        <ele>314.20001220703</ele>
        <time>2016-11-16T13:37:22Z</time>
      </trkpt>
      <trkpt lat="43.4297" lon="6.05515">
        <ele>314.60000610352</ele>
        <time>2016-11-16T13:37:23Z</time>
      </trkpt>
      <trkpt lat="43.42972" lon="6.05514">
        <ele>315</ele>
        <time>2016-11-16T13:37:24Z</time>
      </trkpt>
      <trkpt lat="43.42974" lon="6.05513">
        <ele>315.39999389648</ele>
        <time>2016-11-16T13:37:25Z</time>
      </trkpt>
      <trkpt lat="43.42978" lon="6.0551">
        <ele>315.79998779297</ele>
        <time>2016-11-16T13:37:27Z</time>
      </trkpt>
      <trkpt lat="43.42982" lon="6.05507">
        <ele>316.20001220703</ele>
        <time>2016-11-16T13:37:29Z</time>
      </trkpt>
      <trkpt lat="43.42986" lon="6.05505">
        <ele>316.79998779297</ele>
        <time>2016-11-16T13:37:31Z</time>
      </trkpt>
      <trkpt lat="43.4299" lon="6.05504">
        <ele>317.79998779297</ele>
        <time>2016-11-16T13:37:34Z</time>
      </trkpt>
      <trkpt lat="43.42992" lon="6.05503">
        <ele>318.39999389648</ele>
        <time>2016-11-16T13:37:36Z</time>
      </trkpt>
      <trkpt lat="43.42995" lon="6.05504">
        <ele>318.79998779297</ele>
        <time>2016-11-16T13:37:38Z</time>
      </trkpt>
      <trkpt lat="43.43002" lon="6.05504">
        <ele>319.79998779297</ele>
        <time>2016-11-16T13:37:44Z</time>
      </trkpt>
      <trkpt lat="43.43004" lon="6.05504">
        <ele>319.79998779297</ele>
        <time>2016-11-16T13:37:46Z</time>
      </trkpt>
      <trkpt lat="43.43004" lon="6.05504">
        <ele>319.79998779297</ele>
        <time>2016-11-16T13:37:53Z</time>
      </trkpt>
      <trkpt lat="43.43004" lon="6.05504">
        <ele>319.79998779297</ele>
        <time>2016-11-16T13:37:54Z</time>
      </trkpt>
      <trkpt lat="43.43004" lon="6.05504">
        <ele>319.79998779297</ele>
        <time>2016-11-16T13:38:00Z</time>
      </trkpt>
      <trkpt lat="43.43004" lon="6.05504">
        <ele>319.79998779297</ele>
        <time>2016-11-16T13:38:04Z</time>
      </trkpt>
      <trkpt lat="43.43004" lon="6.05504">
        <ele>319.79998779297</ele>
        <time>2016-11-16T13:38:14Z</time>
      </trkpt>
      <trkpt lat="43.43004" lon="6.05504">
        <ele>319</ele>
        <time>2016-11-16T13:38:24Z</time>
      </trkpt>
      <trkpt lat="43.43005" lon="6.05503">
        <ele>319.39999389648</ele>
        <time>2016-11-16T13:38:27Z</time>
      </trkpt>
      <trkpt lat="43.43005" lon="6.05503">
        <ele>319.79998779297</ele>
        <time>2016-11-16T13:38:30Z</time>
      </trkpt>
      <trkpt lat="43.43005" lon="6.05503">
        <ele>319.60000610352</ele>
        <time>2016-11-16T13:38:34Z</time>
      </trkpt>
      <trkpt lat="43.43005" lon="6.05504">
        <ele>319.79998779297</ele>
        <time>2016-11-16T13:38:44Z</time>
      </trkpt>
      <trkpt lat="43.43005" lon="6.05503">
        <ele>319.60000610352</ele>
        <time>2016-11-16T13:38:50Z</time>
      </trkpt>
      <trkpt lat="43.43005" lon="6.05502">
        <ele>319.60000610352</ele>
        <time>2016-11-16T13:39:04Z</time>
      </trkpt>
      <trkpt lat="43.43005" lon="6.05503">
        <ele>319.60000610352</ele>
        <time>2016-11-16T13:39:12Z</time>
      </trkpt>
      <trkpt lat="43.43005" lon="6.05503">
        <ele>319.60000610352</ele>
        <time>2016-11-16T13:39:14Z</time>
      </trkpt>
      <trkpt lat="43.43005" lon="6.05503">
        <ele>319.60000610352</ele>
        <time>2016-11-16T13:39:18Z</time>
      </trkpt>
      <trkpt lat="43.43005" lon="6.05503">
        <ele>319.60000610352</ele>
        <time>2016-11-16T13:39:22Z</time>
      </trkpt>
      <trkpt lat="43.43005" lon="6.05503">
        <ele>319.60000610352</ele>
        <time>2016-11-16T13:39:24Z</time>
      </trkpt>
      <trkpt lat="43.43005" lon="6.05503">
        <ele>319.60000610352</ele>
        <time>2016-11-16T13:39:28Z</time>
      </trkpt>
      <trkpt lat="43.43006" lon="6.05502">
        <ele>319.60000610352</ele>
        <time>2016-11-16T13:39:44Z</time>
      </trkpt>
      <trkpt lat="43.43006" lon="6.05502">
        <ele>319.60000610352</ele>
        <time>2016-11-16T13:39:49Z</time>
      </trkpt>
      <trkpt lat="43.43006" lon="6.05502">
        <ele>319.60000610352</ele>
        <time>2016-11-16T13:39:54Z</time>
      </trkpt>
      <trkpt lat="43.43005" lon="6.05502">
        <ele>319.60000610352</ele>
        <time>2016-11-16T13:40:11Z</time>
      </trkpt>
      <trkpt lat="43.43005" lon="6.05502">
        <ele>319.60000610352</ele>
        <time>2016-11-16T13:40:14Z</time>
      </trkpt>
      <trkpt lat="43.43004" lon="6.05501">
        <ele>319.60000610352</ele>
        <time>2016-11-16T13:40:24Z</time>
      </trkpt>
      <trkpt lat="43.43003" lon="6.05503">
        <ele>319.60000610352</ele>
        <time>2016-11-16T13:40:34Z</time>
      </trkpt>
      <trkpt lat="43.43003" lon="6.05503">
        <ele>319.60000610352</ele>
        <time>2016-11-16T13:40:44Z</time>
      </trkpt>
      <trkpt lat="43.43002" lon="6.05504">
        <ele>319.60000610352</ele>
        <time>2016-11-16T13:40:50Z</time>
      </trkpt>
      <trkpt lat="43.43002" lon="6.05504">
        <ele>319.60000610352</ele>
        <time>2016-11-16T13:40:54Z</time>
      </trkpt>
      <trkpt lat="43.43008" lon="6.05509">
        <ele>318.60000610352</ele>
        <time>2016-11-16T13:41:09Z</time>
      </trkpt>
      <trkpt lat="43.43015" lon="6.05525">
        <ele>317.79998779297</ele>
        <time>2016-11-16T13:41:14Z</time>
      </trkpt>
      <trkpt lat="43.43017" lon="6.05537">
        <ele>317.60000610352</ele>
        <time>2016-11-16T13:41:16Z</time>
      </trkpt>
      <trkpt lat="43.43019" lon="6.05543">
        <ele>317.39999389648</ele>
        <time>2016-11-16T13:41:17Z</time>
      </trkpt>
      <trkpt lat="43.43024" lon="6.05561">
        <ele>316.79998779297</ele>
        <time>2016-11-16T13:41:20Z</time>
      </trkpt>
      <trkpt lat="43.43028" lon="6.05582">
        <ele>316.20001220703</ele>
        <time>2016-11-16T13:41:24Z</time>
      </trkpt>
      <trkpt lat="43.43033" lon="6.056">
        <ele>315</ele>
        <time>2016-11-16T13:41:28Z</time>
      </trkpt>
      <trkpt lat="43.43032" lon="6.05622">
        <ele>313.79998779297</ele>
        <time>2016-11-16T13:41:33Z</time>
      </trkpt>
      <trkpt lat="43.43031" lon="6.05627">
        <ele>313.79998779297</ele>
        <time>2016-11-16T13:41:34Z</time>
      </trkpt>
      <trkpt lat="43.4303" lon="6.0565">
        <ele>312.79998779297</ele>
        <time>2016-11-16T13:41:38Z</time>
      </trkpt>
      <trkpt lat="43.43029" lon="6.05664">
        <ele>312.20001220703</ele>
        <time>2016-11-16T13:41:40Z</time>
      </trkpt>
      <trkpt lat="43.43031" lon="6.05678">
        <ele>311.60000610352</ele>
        <time>2016-11-16T13:41:42Z</time>
      </trkpt>
      <trkpt lat="43.43032" lon="6.05684">
        <ele>311.39999389648</ele>
        <time>2016-11-16T13:41:43Z</time>
      </trkpt>
      <trkpt lat="43.43032" lon="6.0569">
        <ele>311</ele>
        <time>2016-11-16T13:41:44Z</time>
      </trkpt>
      <trkpt lat="43.43028" lon="6.05701">
        <ele>310.39999389648</ele>
        <time>2016-11-16T13:41:46Z</time>
      </trkpt>
      <trkpt lat="43.43024" lon="6.0572">
        <ele>309.39999389648</ele>
        <time>2016-11-16T13:41:49Z</time>
      </trkpt>
      <trkpt lat="43.43023" lon="6.05726">
        <ele>309</ele>
        <time>2016-11-16T13:41:50Z</time>
      </trkpt>
      <trkpt lat="43.43015" lon="6.0574">
        <ele>308.20001220703</ele>
        <time>2016-11-16T13:41:53Z</time>
      </trkpt>
      <trkpt lat="43.4301" lon="6.05749">
        <ele>307.79998779297</ele>
        <time>2016-11-16T13:41:55Z</time>
      </trkpt>
      <trkpt lat="43.43007" lon="6.05761">
        <ele>307.60000610352</ele>
        <time>2016-11-16T13:41:57Z</time>
      </trkpt>
      <trkpt lat="43.43003" lon="6.05783">
        <ele>307.20001220703</ele>
        <time>2016-11-16T13:42:02Z</time>
      </trkpt>
      <trkpt lat="43.43003" lon="6.05792">
        <ele>306.79998779297</ele>
        <time>2016-11-16T13:42:04Z</time>
      </trkpt>
      <trkpt lat="43.43005" lon="6.05806">
        <ele>305.60000610352</ele>
        <time>2016-11-16T13:42:07Z</time>
      </trkpt>
      <trkpt lat="43.43006" lon="6.05831">
        <ele>302.79998779297</ele>
        <time>2016-11-16T13:42:12Z</time>
      </trkpt>
      <trkpt lat="43.43006" lon="6.05842">
        <ele>301.79998779297</ele>
        <time>2016-11-16T13:42:14Z</time>
      </trkpt>
      <trkpt lat="43.43007" lon="6.05846">
        <ele>301</ele>
        <time>2016-11-16T13:42:15Z</time>
      </trkpt>
      <trkpt lat="43.43007" lon="6.0585">
        <ele>300.20001220703</ele>
        <time>2016-11-16T13:42:16Z</time>
      </trkpt>
      <trkpt lat="43.43009" lon="6.05853">
        <ele>299.39999389648</ele>
        <time>2016-11-16T13:42:17Z</time>
      </trkpt>
      <trkpt lat="43.43014" lon="6.05858">
        <ele>298.39999389648</ele>
        <time>2016-11-16T13:42:19Z</time>
      </trkpt>
      <trkpt lat="43.4302" lon="6.05861">
        <ele>297.39999389648</ele>
        <time>2016-11-16T13:42:21Z</time>
      </trkpt>
      <trkpt lat="43.43024" lon="6.05862">
        <ele>296.39999389648</ele>
        <time>2016-11-16T13:42:22Z</time>
      </trkpt>
      <trkpt lat="43.43029" lon="6.05863">
        <ele>295</ele>
        <time>2016-11-16T13:42:23Z</time>
      </trkpt>
      <trkpt lat="43.43033" lon="6.05862">
        <ele>293.79998779297</ele>
        <time>2016-11-16T13:42:24Z</time>
      </trkpt>
      <trkpt lat="43.4304" lon="6.0586">
        <ele>292</ele>
        <time>2016-11-16T13:42:26Z</time>
      </trkpt>
      <trkpt lat="43.43046" lon="6.05857">
        <ele>291</ele>
        <time>2016-11-16T13:42:28Z</time>
      </trkpt>
      <trkpt lat="43.43058" lon="6.05853">
        <ele>289.20001220703</ele>
        <time>2016-11-16T13:42:31Z</time>
      </trkpt>
      <trkpt lat="43.43062" lon="6.05852">
        <ele>288.20001220703</ele>
        <time>2016-11-16T13:42:32Z</time>
      </trkpt>
      <trkpt lat="43.43065" lon="6.05851">
        <ele>286.79998779297</ele>
        <time>2016-11-16T13:42:33Z</time>
      </trkpt>
      <trkpt lat="43.43069" lon="6.05851">
        <ele>286</ele>
        <time>2016-11-16T13:42:34Z</time>
      </trkpt>
      <trkpt lat="43.43072" lon="6.05851">
        <ele>285.20001220703</ele>
        <time>2016-11-16T13:42:35Z</time>
      </trkpt>
      <trkpt lat="43.43077" lon="6.0585">
        <ele>283.60000610352</ele>
        <time>2016-11-16T13:42:37Z</time>
      </trkpt>
      <trkpt lat="43.43084" lon="6.05849">
        <ele>282.20001220703</ele>
        <time>2016-11-16T13:42:39Z</time>
      </trkpt>
      <trkpt lat="43.43093" lon="6.05846">
        <ele>280.79998779297</ele>
        <time>2016-11-16T13:42:42Z</time>
      </trkpt>
      <trkpt lat="43.43098" lon="6.05845">
        <ele>279.39999389648</ele>
        <time>2016-11-16T13:42:44Z</time>
      </trkpt>
      <trkpt lat="43.43109" lon="6.05844">
        <ele>278.39999389648</ele>
        <time>2016-11-16T13:42:48Z</time>
      </trkpt>
      <trkpt lat="43.43116" lon="6.05846">
        <ele>276.79998779297</ele>
        <time>2016-11-16T13:42:50Z</time>
      </trkpt>
      <trkpt lat="43.43125" lon="6.05845">
        <ele>275.20001220703</ele>
        <time>2016-11-16T13:42:52Z</time>
      </trkpt>
      <trkpt lat="43.43134" lon="6.05845">
        <ele>273.79998779297</ele>
        <time>2016-11-16T13:42:54Z</time>
      </trkpt>
      <trkpt lat="43.43141" lon="6.05843">
        <ele>272.39999389648</ele>
        <time>2016-11-16T13:42:56Z</time>
      </trkpt>
      <trkpt lat="43.43148" lon="6.05842">
        <ele>271.20001220703</ele>
        <time>2016-11-16T13:42:58Z</time>
      </trkpt>
      <trkpt lat="43.43155" lon="6.05839">
        <ele>269.60000610352</ele>
        <time>2016-11-16T13:43:00Z</time>
      </trkpt>
      <trkpt lat="43.43165" lon="6.05835">
        <ele>268.60000610352</ele>
        <time>2016-11-16T13:43:03Z</time>
      </trkpt>
      <trkpt lat="43.4317" lon="6.05834">
        <ele>268.20001220703</ele>
        <time>2016-11-16T13:43:04Z</time>
      </trkpt>
      <trkpt lat="43.43174" lon="6.05832">
        <ele>267.79998779297</ele>
        <time>2016-11-16T13:43:05Z</time>
      </trkpt>
      <trkpt lat="43.43178" lon="6.05828">
        <ele>267.20001220703</ele>
        <time>2016-11-16T13:43:06Z</time>
      </trkpt>
      <trkpt lat="43.4318" lon="6.05823">
        <ele>266.39999389648</ele>
        <time>2016-11-16T13:43:07Z</time>
      </trkpt>
      <trkpt lat="43.43182" lon="6.05817">
        <ele>265.79998779297</ele>
        <time>2016-11-16T13:43:08Z</time>
      </trkpt>
      <trkpt lat="43.43182" lon="6.05813">
        <ele>265</ele>
        <time>2016-11-16T13:43:14Z</time>
      </trkpt>
      <trkpt lat="43.43182" lon="6.05814">
        <ele>265</ele>
        <time>2016-11-16T13:43:24Z</time>
      </trkpt>
      <trkpt lat="43.43181" lon="6.05814">
        <ele>264.79998779297</ele>
        <time>2016-11-16T13:43:34Z</time>
      </trkpt>
      <trkpt lat="43.43181" lon="6.05813">
        <ele>264.79998779297</ele>
        <time>2016-11-16T13:43:44Z</time>
      </trkpt>
      <trkpt lat="43.43181" lon="6.05814">
        <ele>264.60000610352</ele>
        <time>2016-11-16T13:43:54Z</time>
      </trkpt>
      <trkpt lat="43.43181" lon="6.05814">
        <ele>264.79998779297</ele>
        <time>2016-11-16T13:44:04Z</time>
      </trkpt>
      <trkpt lat="43.43181" lon="6.05814">
        <ele>264.79998779297</ele>
        <time>2016-11-16T13:44:14Z</time>
      </trkpt>
      <trkpt lat="43.43181" lon="6.05814">
        <ele>264.60000610352</ele>
        <time>2016-11-16T13:44:34Z</time>
      </trkpt>
      <trkpt lat="43.43181" lon="6.05815">
        <ele>264.79998779297</ele>
        <time>2016-11-16T13:44:43Z</time>
      </trkpt>
      <trkpt lat="43.4318" lon="6.05815">
        <ele>264.79998779297</ele>
        <time>2016-11-16T13:44:44Z</time>
      </trkpt>
      <trkpt lat="43.43183" lon="6.05815">
        <ele>264.39999389648</ele>
        <time>2016-11-16T13:44:54Z</time>
      </trkpt>
      <trkpt lat="43.43182" lon="6.05815">
        <ele>264.39999389648</ele>
        <time>2016-11-16T13:45:04Z</time>
      </trkpt>
      <trkpt lat="43.43183" lon="6.05815">
        <ele>265.20001220703</ele>
        <time>2016-11-16T13:45:14Z</time>
      </trkpt>
      <trkpt lat="43.43185" lon="6.05815">
        <ele>264.79998779297</ele>
        <time>2016-11-16T13:45:22Z</time>
      </trkpt>
      <trkpt lat="43.43185" lon="6.05815">
        <ele>264.79998779297</ele>
        <time>2016-11-16T13:45:24Z</time>
      </trkpt>
      <trkpt lat="43.43184" lon="6.05815">
        <ele>264.60000610352</ele>
        <time>2016-11-16T13:45:34Z</time>
      </trkpt>
      <trkpt lat="43.43185" lon="6.05816">
        <ele>264.39999389648</ele>
        <time>2016-11-16T13:45:44Z</time>
      </trkpt>
      <trkpt lat="43.43185" lon="6.05816">
        <ele>264.39999389648</ele>
        <time>2016-11-16T13:45:51Z</time>
      </trkpt>
      <trkpt lat="43.43185" lon="6.05816">
        <ele>264.39999389648</ele>
        <time>2016-11-16T13:45:54Z</time>
      </trkpt>
      <trkpt lat="43.43187" lon="6.05807">
        <ele>264.60000610352</ele>
        <time>2016-11-16T13:46:04Z</time>
      </trkpt>
      <trkpt lat="43.432" lon="6.05781">
        <ele>263.79998779297</ele>
        <time>2016-11-16T13:46:13Z</time>
      </trkpt>
      <trkpt lat="43.43202" lon="6.05775">
        <ele>263.79998779297</ele>
        <time>2016-11-16T13:46:14Z</time>
      </trkpt>
      <trkpt lat="43.43212" lon="6.0574">
        <ele>263.20001220703</ele>
        <time>2016-11-16T13:46:21Z</time>
      </trkpt>
      <trkpt lat="43.43214" lon="6.05721">
        <ele>263</ele>
        <time>2016-11-16T13:46:24Z</time>
      </trkpt>
      <trkpt lat="43.43216" lon="6.05708">
        <ele>262.79998779297</ele>
        <time>2016-11-16T13:46:26Z</time>
      </trkpt>
      <trkpt lat="43.43216" lon="6.05701">
        <ele>262.60000610352</ele>
        <time>2016-11-16T13:46:27Z</time>
      </trkpt>
      <trkpt lat="43.43218" lon="6.05679">
        <ele>262.39999389648</ele>
        <time>2016-11-16T13:46:30Z</time>
      </trkpt>
      <trkpt lat="43.43219" lon="6.05649">
        <ele>261.79998779297</ele>
        <time>2016-11-16T13:46:34Z</time>
      </trkpt>
      <trkpt lat="43.43222" lon="6.05625">
        <ele>261.60000610352</ele>
        <time>2016-11-16T13:46:37Z</time>
      </trkpt>
      <trkpt lat="43.43226" lon="6.05574">
        <ele>261.20001220703</ele>
        <time>2016-11-16T13:46:43Z</time>
      </trkpt>
      <trkpt lat="43.43227" lon="6.05566">
        <ele>261</ele>
        <time>2016-11-16T13:46:44Z</time>
      </trkpt>
      <trkpt lat="43.43241" lon="6.05516">
        <ele>260.60000610352</ele>
        <time>2016-11-16T13:46:50Z</time>
      </trkpt>
      <trkpt lat="43.43247" lon="6.05498">
        <ele>259.39999389648</ele>
        <time>2016-11-16T13:46:52Z</time>
      </trkpt>
      <trkpt lat="43.4325" lon="6.05488">
        <ele>258.20001220703</ele>
        <time>2016-11-16T13:46:53Z</time>
      </trkpt>
      <trkpt lat="43.43252" lon="6.05478">
        <ele>257</ele>
        <time>2016-11-16T13:46:54Z</time>
      </trkpt>
      <trkpt lat="43.43256" lon="6.05468">
        <ele>256.20001220703</ele>
        <time>2016-11-16T13:46:55Z</time>
      </trkpt>
      <trkpt lat="43.43259" lon="6.05458">
        <ele>255.60000610352</ele>
        <time>2016-11-16T13:46:56Z</time>
      </trkpt>
      <trkpt lat="43.43281" lon="6.05399">
        <ele>254.39999389648</ele>
        <time>2016-11-16T13:47:02Z</time>
      </trkpt>
      <trkpt lat="43.43289" lon="6.0538">
        <ele>254.19999694824</ele>
        <time>2016-11-16T13:47:04Z</time>
      </trkpt>
      <trkpt lat="43.43301" lon="6.05356">
        <ele>254.19999694824</ele>
        <time>2016-11-16T13:47:07Z</time>
      </trkpt>
      <trkpt lat="43.43312" lon="6.05333">
        <ele>254.60000610352</ele>
        <time>2016-11-16T13:47:10Z</time>
      </trkpt>
      <trkpt lat="43.43319" lon="6.05317">
        <ele>255</ele>
        <time>2016-11-16T13:47:12Z</time>
      </trkpt>
      <trkpt lat="43.43325" lon="6.05301">
        <ele>254.60000610352</ele>
        <time>2016-11-16T13:47:14Z</time>
      </trkpt>
      <trkpt lat="43.43334" lon="6.05276">
        <ele>253.80000305176</ele>
        <time>2016-11-16T13:47:17Z</time>
      </trkpt>
      <trkpt lat="43.43354" lon="6.05222">
        <ele>253.60000610352</ele>
        <time>2016-11-16T13:47:24Z</time>
      </trkpt>
      <trkpt lat="43.4337" lon="6.05179">
        <ele>255</ele>
        <time>2016-11-16T13:47:31Z</time>
      </trkpt>
      <trkpt lat="43.43375" lon="6.05164">
        <ele>255.39999389648</ele>
        <time>2016-11-16T13:47:34Z</time>
      </trkpt>
      <trkpt lat="43.43385" lon="6.05134">
        <ele>256.60000610352</ele>
        <time>2016-11-16T13:47:41Z</time>
      </trkpt>
      <trkpt lat="43.43388" lon="6.05124">
        <ele>257.20001220703</ele>
        <time>2016-11-16T13:47:44Z</time>
      </trkpt>
      <trkpt lat="43.4339" lon="6.05119">
        <ele>257.60000610352</ele>
        <time>2016-11-16T13:47:46Z</time>
      </trkpt>
      <trkpt lat="43.43396" lon="6.05103">
        <ele>258.20001220703</ele>
        <time>2016-11-16T13:47:54Z</time>
      </trkpt>
      <trkpt lat="43.43397" lon="6.05099">
        <ele>258.20001220703</ele>
        <time>2016-11-16T13:47:57Z</time>
      </trkpt>
      <trkpt lat="43.43398" lon="6.051">
        <ele>258.39999389648</ele>
        <time>2016-11-16T13:48:03Z</time>
      </trkpt>
      <trkpt lat="43.43398" lon="6.051">
        <ele>258.20001220703</ele>
        <time>2016-11-16T13:48:04Z</time>
      </trkpt>
      <trkpt lat="43.43398" lon="6.051">
        <ele>258.20001220703</ele>
        <time>2016-11-16T13:48:08Z</time>
      </trkpt>
      <trkpt lat="43.43398" lon="6.051">
        <ele>258.60000610352</ele>
        <time>2016-11-16T13:48:17Z</time>
      </trkpt>
      <trkpt lat="43.43398" lon="6.05099">
        <ele>258.39999389648</ele>
        <time>2016-11-16T13:48:34Z</time>
      </trkpt>
      <trkpt lat="43.43398" lon="6.05099">
        <ele>258.20001220703</ele>
        <time>2016-11-16T13:48:44Z</time>
      </trkpt>
      <trkpt lat="43.43398" lon="6.05099">
        <ele>258.39999389648</ele>
        <time>2016-11-16T13:48:54Z</time>
      </trkpt>
      <trkpt lat="43.43398" lon="6.05099">
        <ele>258</ele>
        <time>2016-11-16T13:49:04Z</time>
      </trkpt>
      <trkpt lat="43.43398" lon="6.05099">
        <ele>258</ele>
        <time>2016-11-16T13:49:06Z</time>
      </trkpt>
      <trkpt lat="43.43398" lon="6.05096">
        <ele>258.20001220703</ele>
        <time>2016-11-16T13:49:08Z</time>
      </trkpt>
      <trkpt lat="43.43404" lon="6.0508">
        <ele>257.60000610352</ele>
        <time>2016-11-16T13:49:14Z</time>
      </trkpt>
      <trkpt lat="43.43413" lon="6.05027">
        <ele>256.39999389648</ele>
        <time>2016-11-16T13:49:22Z</time>
      </trkpt>
      <trkpt lat="43.43415" lon="6.05011">
        <ele>255.19999694824</ele>
        <time>2016-11-16T13:49:24Z</time>
      </trkpt>
      <trkpt lat="43.43418" lon="6.04995">
        <ele>254</ele>
        <time>2016-11-16T13:49:26Z</time>
      </trkpt>
      <trkpt lat="43.43423" lon="6.04961">
        <ele>253.19999694824</ele>
        <time>2016-11-16T13:49:30Z</time>
      </trkpt>
      <trkpt lat="43.43424" lon="6.04953">
        <ele>253</ele>
        <time>2016-11-16T13:49:31Z</time>
      </trkpt>
      <trkpt lat="43.43425" lon="6.04935">
        <ele>253</ele>
        <time>2016-11-16T13:49:33Z</time>
      </trkpt>
      <trkpt lat="43.43426" lon="6.04927">
        <ele>252.80000305176</ele>
        <time>2016-11-16T13:49:34Z</time>
      </trkpt>
      <trkpt lat="43.43428" lon="6.049">
        <ele>252.80000305176</ele>
        <time>2016-11-16T13:49:37Z</time>
      </trkpt>
      <trkpt lat="43.4343" lon="6.0486">
        <ele>253.39999389648</ele>
        <time>2016-11-16T13:49:42Z</time>
      </trkpt>
      <trkpt lat="43.4343" lon="6.04846">
        <ele>253.19999694824</ele>
        <time>2016-11-16T13:49:44Z</time>
      </trkpt>
      <trkpt lat="43.4343" lon="6.04823">
        <ele>253.60000610352</ele>
        <time>2016-11-16T13:49:47Z</time>
      </trkpt>
      <trkpt lat="43.43431" lon="6.04808">
        <ele>254</ele>
        <time>2016-11-16T13:49:49Z</time>
      </trkpt>
      <trkpt lat="43.43433" lon="6.04778">
        <ele>255</ele>
        <time>2016-11-16T13:49:53Z</time>
      </trkpt>
      <trkpt lat="43.43435" lon="6.04764">
        <ele>255.19999694824</ele>
        <time>2016-11-16T13:49:55Z</time>
      </trkpt>
      <trkpt lat="43.43439" lon="6.04725">
        <ele>256</ele>
        <time>2016-11-16T13:50:01Z</time>
      </trkpt>
      <trkpt lat="43.4344" lon="6.04707">
        <ele>256.20001220703</ele>
        <time>2016-11-16T13:50:04Z</time>
      </trkpt>
      <trkpt lat="43.43441" lon="6.0469">
        <ele>256.20001220703</ele>
        <time>2016-11-16T13:50:07Z</time>
      </trkpt>
      <trkpt lat="43.43446" lon="6.04676">
        <ele>256.60000610352</ele>
        <time>2016-11-16T13:50:10Z</time>
      </trkpt>
      <trkpt lat="43.43447" lon="6.04661">
        <ele>257</ele>
        <time>2016-11-16T13:50:14Z</time>
      </trkpt>
      <trkpt lat="43.43451" lon="6.04634">
        <ele>257.20001220703</ele>
        <time>2016-11-16T13:50:20Z</time>
      </trkpt>
      <trkpt lat="43.43454" lon="6.04617">
        <ele>257.60000610352</ele>
        <time>2016-11-16T13:50:24Z</time>
      </trkpt>
      <trkpt lat="43.43461" lon="6.04575">
        <ele>258</ele>
        <time>2016-11-16T13:50:34Z</time>
      </trkpt>
      <trkpt lat="43.43462" lon="6.04567">
        <ele>258.20001220703</ele>
        <time>2016-11-16T13:50:36Z</time>
      </trkpt>
      <trkpt lat="43.43475" lon="6.04532">
        <ele>258.20001220703</ele>
        <time>2016-11-16T13:50:44Z</time>
      </trkpt>
      <trkpt lat="43.43486" lon="6.04488">
        <ele>258.20001220703</ele>
        <time>2016-11-16T13:50:53Z</time>
      </trkpt>
      <trkpt lat="43.43486" lon="6.04482">
        <ele>258.20001220703</ele>
        <time>2016-11-16T13:50:54Z</time>
      </trkpt>
      <trkpt lat="43.43487" lon="6.04476">
        <ele>258.20001220703</ele>
        <time>2016-11-16T13:50:55Z</time>
      </trkpt>
      <trkpt lat="43.43488" lon="6.04429">
        <ele>258.60000610352</ele>
        <time>2016-11-16T13:51:04Z</time>
      </trkpt>
      <trkpt lat="43.43484" lon="6.04399">
        <ele>258.79998779297</ele>
        <time>2016-11-16T13:51:10Z</time>
      </trkpt>
      <trkpt lat="43.43484" lon="6.04382">
        <ele>259</ele>
        <time>2016-11-16T13:51:14Z</time>
      </trkpt>
      <trkpt lat="43.43485" lon="6.04374">
        <ele>259.20001220703</ele>
        <time>2016-11-16T13:51:16Z</time>
      </trkpt>
      <trkpt lat="43.43488" lon="6.0434">
        <ele>259</ele>
        <time>2016-11-16T13:51:23Z</time>
      </trkpt>
      <trkpt lat="43.43488" lon="6.04335">
        <ele>259.20001220703</ele>
        <time>2016-11-16T13:51:24Z</time>
      </trkpt>
      <trkpt lat="43.4349" lon="6.04313">
        <ele>259</ele>
        <time>2016-11-16T13:51:28Z</time>
      </trkpt>
      <trkpt lat="43.43492" lon="6.04297">
        <ele>258</ele>
        <time>2016-11-16T13:51:31Z</time>
      </trkpt>
      <trkpt lat="43.43495" lon="6.04282">
        <ele>257.79998779297</ele>
        <time>2016-11-16T13:51:34Z</time>
      </trkpt>
      <trkpt lat="43.43518" lon="6.04242">
        <ele>257.39999389648</ele>
        <time>2016-11-16T13:51:44Z</time>
      </trkpt>
      <trkpt lat="43.43525" lon="6.04236">
        <ele>257.20001220703</ele>
        <time>2016-11-16T13:51:46Z</time>
      </trkpt>
      <trkpt lat="43.43539" lon="6.04199">
        <ele>257.20001220703</ele>
        <time>2016-11-16T13:51:54Z</time>
      </trkpt>
      <trkpt lat="43.43536" lon="6.04186">
        <ele>257.60000610352</ele>
        <time>2016-11-16T13:51:57Z</time>
      </trkpt>
      <trkpt lat="43.43533" lon="6.04177">
        <ele>258</ele>
        <time>2016-11-16T13:52:00Z</time>
      </trkpt>
      <trkpt lat="43.43532" lon="6.04167">
        <ele>258.79998779297</ele>
        <time>2016-11-16T13:52:03Z</time>
      </trkpt>
      <trkpt lat="43.43532" lon="6.04164">
        <ele>259.20001220703</ele>
        <time>2016-11-16T13:52:04Z</time>
      </trkpt>
      <trkpt lat="43.43542" lon="6.04137">
        <ele>260.20001220703</ele>
        <time>2016-11-16T13:52:12Z</time>
      </trkpt>
      <trkpt lat="43.43545" lon="6.0413">
        <ele>260.20001220703</ele>
        <time>2016-11-16T13:52:14Z</time>
      </trkpt>
      <trkpt lat="43.43553" lon="6.04112">
        <ele>260.39999389648</ele>
        <time>2016-11-16T13:52:19Z</time>
      </trkpt>
      <trkpt lat="43.43557" lon="6.04099">
        <ele>260.20001220703</ele>
        <time>2016-11-16T13:52:24Z</time>
      </trkpt>
      <trkpt lat="43.43569" lon="6.04064">
        <ele>260.20001220703</ele>
        <time>2016-11-16T13:52:34Z</time>
      </trkpt>
      <trkpt lat="43.43579" lon="6.04048">
        <ele>261.20001220703</ele>
        <time>2016-11-16T13:52:40Z</time>
      </trkpt>
      <trkpt lat="43.43588" lon="6.04032">
        <ele>262.20001220703</ele>
        <time>2016-11-16T13:52:46Z</time>
      </trkpt>
      <trkpt lat="43.43596" lon="6.04016">
        <ele>263.39999389648</ele>
        <time>2016-11-16T13:52:52Z</time>
      </trkpt>
      <trkpt lat="43.43597" lon="6.04011">
        <ele>263.39999389648</ele>
        <time>2016-11-16T13:52:54Z</time>
      </trkpt>
      <trkpt lat="43.43599" lon="6.03999">
        <ele>264.39999389648</ele>
        <time>2016-11-16T13:53:03Z</time>
      </trkpt>
      <trkpt lat="43.43599" lon="6.03999">
        <ele>264.39999389648</ele>
        <time>2016-11-16T13:53:04Z</time>
      </trkpt>
      <trkpt lat="43.43599" lon="6.03999">
        <ele>264.60000610352</ele>
        <time>2016-11-16T13:53:10Z</time>
      </trkpt>
      <trkpt lat="43.43599" lon="6.04">
        <ele>264.39999389648</ele>
        <time>2016-11-16T13:53:14Z</time>
      </trkpt>
      <trkpt lat="43.43599" lon="6.04">
        <ele>264.60000610352</ele>
        <time>2016-11-16T13:53:21Z</time>
      </trkpt>
      <trkpt lat="43.43599" lon="6.04">
        <ele>264.39999389648</ele>
        <time>2016-11-16T13:53:30Z</time>
      </trkpt>
      <trkpt lat="43.43599" lon="6.04">
        <ele>264.60000610352</ele>
        <time>2016-11-16T13:53:38Z</time>
      </trkpt>
      <trkpt lat="43.43599" lon="6.04">
        <ele>264.79998779297</ele>
        <time>2016-11-16T13:53:44Z</time>
      </trkpt>
      <trkpt lat="43.43599" lon="6.04">
        <ele>264.60000610352</ele>
        <time>2016-11-16T13:53:54Z</time>
      </trkpt>
      <trkpt lat="43.43599" lon="6.04">
        <ele>264.79998779297</ele>
        <time>2016-11-16T13:54:04Z</time>
      </trkpt>
      <trkpt lat="43.43599" lon="6.04">
        <ele>265</ele>
        <time>2016-11-16T13:54:34Z</time>
      </trkpt>
      <trkpt lat="43.43599" lon="6.04">
        <ele>265</ele>
        <time>2016-11-16T13:54:44Z</time>
      </trkpt>
      <trkpt lat="43.43599" lon="6.04">
        <ele>265</ele>
        <time>2016-11-16T13:54:53Z</time>
      </trkpt>
      <trkpt lat="43.43599" lon="6.03999">
        <ele>265</ele>
        <time>2016-11-16T13:54:54Z</time>
      </trkpt>
      <trkpt lat="43.43602" lon="6.03995">
        <ele>264.60000610352</ele>
        <time>2016-11-16T13:54:56Z</time>
      </trkpt>
      <trkpt lat="43.43604" lon="6.03977">
        <ele>258.39999389648</ele>
        <time>2016-11-16T13:55:00Z</time>
      </trkpt>
      <trkpt lat="43.43604" lon="6.03971">
        <ele>261.20001220703</ele>
        <time>2016-11-16T13:55:01Z</time>
      </trkpt>
      <trkpt lat="43.43604" lon="6.03964">
        <ele>262.39999389648</ele>
        <time>2016-11-16T13:55:02Z</time>
      </trkpt>
      <trkpt lat="43.436" lon="6.03948">
        <ele>261.39999389648</ele>
        <time>2016-11-16T13:55:04Z</time>
      </trkpt>
      <trkpt lat="43.43598" lon="6.03941">
        <ele>260.20001220703</ele>
        <time>2016-11-16T13:55:05Z</time>
      </trkpt>
      <trkpt lat="43.43593" lon="6.03928">
        <ele>259.60000610352</ele>
        <time>2016-11-16T13:55:07Z</time>
      </trkpt>
      <trkpt lat="43.43587" lon="6.03905">
        <ele>260.60000610352</ele>
        <time>2016-11-16T13:55:11Z</time>
      </trkpt>
      <trkpt lat="43.43586" lon="6.03893">
        <ele>261.20001220703</ele>
        <time>2016-11-16T13:55:13Z</time>
      </trkpt>
      <trkpt lat="43.43586" lon="6.03888">
        <ele>261.39999389648</ele>
        <time>2016-11-16T13:55:14Z</time>
      </trkpt>
      <trkpt lat="43.43586" lon="6.03883">
        <ele>261.60000610352</ele>
        <time>2016-11-16T13:55:15Z</time>
      </trkpt>
      <trkpt lat="43.43587" lon="6.03873">
        <ele>262.20001220703</ele>
        <time>2016-11-16T13:55:17Z</time>
      </trkpt>
      <trkpt lat="43.43587" lon="6.03854">
        <ele>263.20001220703</ele>
        <time>2016-11-16T13:55:21Z</time>
      </trkpt>
      <trkpt lat="43.43586" lon="6.03849">
        <ele>263.60000610352</ele>
        <time>2016-11-16T13:55:22Z</time>
      </trkpt>
      <trkpt lat="43.43585" lon="6.0384">
        <ele>264.20001220703</ele>
        <time>2016-11-16T13:55:24Z</time>
      </trkpt>
      <trkpt lat="43.43581" lon="6.03822">
        <ele>264.60000610352</ele>
        <time>2016-11-16T13:55:28Z</time>
      </trkpt>
      <trkpt lat="43.43573" lon="6.03805">
        <ele>265.60000610352</ele>
        <time>2016-11-16T13:55:33Z</time>
      </trkpt>
      <trkpt lat="43.43571" lon="6.03802">
        <ele>265.79998779297</ele>
        <time>2016-11-16T13:55:34Z</time>
      </trkpt>
      <trkpt lat="43.4357" lon="6.03794">
        <ele>266.20001220703</ele>
        <time>2016-11-16T13:55:38Z</time>
      </trkpt>
      <trkpt lat="43.4357" lon="6.0378">
        <ele>266</ele>
        <time>2016-11-16T13:55:44Z</time>
      </trkpt>
      <trkpt lat="43.43571" lon="6.03778">
        <ele>265.79998779297</ele>
        <time>2016-11-16T13:55:46Z</time>
      </trkpt>
      <trkpt lat="43.43573" lon="6.03776">
        <ele>266</ele>
        <time>2016-11-16T13:55:48Z</time>
      </trkpt>
      <trkpt lat="43.43572" lon="6.03767">
        <ele>266.20001220703</ele>
        <time>2016-11-16T13:55:53Z</time>
      </trkpt>
      <trkpt lat="43.43572" lon="6.03764">
        <ele>266.20001220703</ele>
        <time>2016-11-16T13:55:54Z</time>
      </trkpt>
      <trkpt lat="43.4357" lon="6.0372">
        <ele>264.39999389648</ele>
        <time>2016-11-16T13:56:03Z</time>
      </trkpt>
      <trkpt lat="43.43569" lon="6.03714">
        <ele>264</ele>
        <time>2016-11-16T13:56:04Z</time>
      </trkpt>
      <trkpt lat="43.43575" lon="6.03669">
        <ele>263.79998779297</ele>
        <time>2016-11-16T13:56:11Z</time>
      </trkpt>
      <trkpt lat="43.43576" lon="6.03654">
        <ele>264.20001220703</ele>
        <time>2016-11-16T13:56:14Z</time>
      </trkpt>
      <trkpt lat="43.43579" lon="6.0364">
        <ele>264.20001220703</ele>
        <time>2016-11-16T13:56:17Z</time>
      </trkpt>
      <trkpt lat="43.4358" lon="6.03627">
        <ele>264</ele>
        <time>2016-11-16T13:56:19Z</time>
      </trkpt>
      <trkpt lat="43.43579" lon="6.03597">
        <ele>263.60000610352</ele>
        <time>2016-11-16T13:56:24Z</time>
      </trkpt>
      <trkpt lat="43.43579" lon="6.03591">
        <ele>263.39999389648</ele>
        <time>2016-11-16T13:56:25Z</time>
      </trkpt>
      <trkpt lat="43.43581" lon="6.0358">
        <ele>263.20001220703</ele>
        <time>2016-11-16T13:56:27Z</time>
      </trkpt>
      <trkpt lat="43.43594" lon="6.0355">
        <ele>264.20001220703</ele>
        <time>2016-11-16T13:56:34Z</time>
      </trkpt>
      <trkpt lat="43.43597" lon="6.03546">
        <ele>264.39999389648</ele>
        <time>2016-11-16T13:56:35Z</time>
      </trkpt>
      <trkpt lat="43.436" lon="6.03535">
        <ele>264.39999389648</ele>
        <time>2016-11-16T13:56:37Z</time>
      </trkpt>
      <trkpt lat="43.43602" lon="6.0353">
        <ele>264.39999389648</ele>
        <time>2016-11-16T13:56:38Z</time>
      </trkpt>
      <trkpt lat="43.4361" lon="6.03503">
        <ele>264.39999389648</ele>
        <time>2016-11-16T13:56:44Z</time>
      </trkpt>
      <trkpt lat="43.4362" lon="6.03461">
        <ele>265.79998779297</ele>
        <time>2016-11-16T13:56:54Z</time>
      </trkpt>
      <trkpt lat="43.43624" lon="6.03433">
        <ele>266.79998779297</ele>
        <time>2016-11-16T13:57:01Z</time>
      </trkpt>
      <trkpt lat="43.43624" lon="6.03422">
        <ele>267.20001220703</ele>
        <time>2016-11-16T13:57:04Z</time>
      </trkpt>
      <trkpt lat="43.43623" lon="6.03395">
        <ele>266.60000610352</ele>
        <time>2016-11-16T13:57:10Z</time>
      </trkpt>
      <trkpt lat="43.43631" lon="6.03383">
        <ele>266.20001220703</ele>
        <time>2016-11-16T13:57:14Z</time>
      </trkpt>
      <trkpt lat="43.43641" lon="6.03362">
        <ele>266.60000610352</ele>
        <time>2016-11-16T13:57:20Z</time>
      </trkpt>
      <trkpt lat="43.43649" lon="6.03345">
        <ele>266.79998779297</ele>
        <time>2016-11-16T13:57:24Z</time>
      </trkpt>
      <trkpt lat="43.43653" lon="6.03336">
        <ele>267</ele>
        <time>2016-11-16T13:57:26Z</time>
      </trkpt>
      <trkpt lat="43.43662" lon="6.03321">
        <ele>266.39999389648</ele>
        <time>2016-11-16T13:57:30Z</time>
      </trkpt>
      <trkpt lat="43.43661" lon="6.03313">
        <ele>265.60000610352</ele>
        <time>2016-11-16T13:57:33Z</time>
      </trkpt>
      <trkpt lat="43.43661" lon="6.03311">
        <ele>265.60000610352</ele>
        <time>2016-11-16T13:57:34Z</time>
      </trkpt>
      <trkpt lat="43.43665" lon="6.03303">
        <ele>265.60000610352</ele>
        <time>2016-11-16T13:57:44Z</time>
      </trkpt>
      <trkpt lat="43.43667" lon="6.03302">
        <ele>265.60000610352</ele>
        <time>2016-11-16T13:57:45Z</time>
      </trkpt>
      <trkpt lat="43.43676" lon="6.03293">
        <ele>265.60000610352</ele>
        <time>2016-11-16T13:57:52Z</time>
      </trkpt>
      <trkpt lat="43.43678" lon="6.03289">
        <ele>265.79998779297</ele>
        <time>2016-11-16T13:57:54Z</time>
      </trkpt>
      <trkpt lat="43.43682" lon="6.03273">
        <ele>266.60000610352</ele>
        <time>2016-11-16T13:58:01Z</time>
      </trkpt>
      <trkpt lat="43.43684" lon="6.03268">
        <ele>266.60000610352</ele>
        <time>2016-11-16T13:58:03Z</time>
      </trkpt>
      <trkpt lat="43.43684" lon="6.03266">
        <ele>266.60000610352</ele>
        <time>2016-11-16T13:58:04Z</time>
      </trkpt>
      <trkpt lat="43.43684" lon="6.03254">
        <ele>266.79998779297</ele>
        <time>2016-11-16T13:58:09Z</time>
      </trkpt>
      <trkpt lat="43.43684" lon="6.03251">
        <ele>267</ele>
        <time>2016-11-16T13:58:14Z</time>
      </trkpt>
      <trkpt lat="43.43685" lon="6.03251">
        <ele>267.20001220703</ele>
        <time>2016-11-16T13:58:24Z</time>
      </trkpt>
      <trkpt lat="43.43685" lon="6.03251">
        <ele>267.20001220703</ele>
        <time>2016-11-16T13:58:34Z</time>
      </trkpt>
      <trkpt lat="43.43686" lon="6.03252">
        <ele>267.39999389648</ele>
        <time>2016-11-16T13:58:44Z</time>
      </trkpt>
      <trkpt lat="43.43687" lon="6.03253">
        <ele>267.20001220703</ele>
        <time>2016-11-16T13:58:46Z</time>
      </trkpt>
      <trkpt lat="43.43687" lon="6.03258">
        <ele>267</ele>
        <time>2016-11-16T13:58:49Z</time>
      </trkpt>
      <trkpt lat="43.43685" lon="6.03274">
        <ele>266.60000610352</ele>
        <time>2016-11-16T13:58:54Z</time>
      </trkpt>
      <trkpt lat="43.43679" lon="6.0329">
        <ele>266.39999389648</ele>
        <time>2016-11-16T13:58:59Z</time>
      </trkpt>
      <trkpt lat="43.43675" lon="6.03297">
        <ele>266</ele>
        <time>2016-11-16T13:59:04Z</time>
      </trkpt>
      <trkpt lat="43.43675" lon="6.03295">
        <ele>266</ele>
        <time>2016-11-16T13:59:09Z</time>
      </trkpt>
      <trkpt lat="43.43677" lon="6.03291">
        <ele>266.20001220703</ele>
        <time>2016-11-16T13:59:14Z</time>
      </trkpt>
      <trkpt lat="43.43678" lon="6.0329">
        <ele>266.20001220703</ele>
        <time>2016-11-16T13:59:15Z</time>
      </trkpt>
      <trkpt lat="43.43681" lon="6.03278">
        <ele>266.20001220703</ele>
        <time>2016-11-16T13:59:20Z</time>
      </trkpt>
      <trkpt lat="43.43684" lon="6.03264">
        <ele>266.60000610352</ele>
        <time>2016-11-16T13:59:24Z</time>
      </trkpt>
      <trkpt lat="43.43683" lon="6.03237">
        <ele>267</ele>
        <time>2016-11-16T13:59:34Z</time>
      </trkpt>
      <trkpt lat="43.43681" lon="6.03227">
        <ele>267.20001220703</ele>
        <time>2016-11-16T13:59:40Z</time>
      </trkpt>
      <trkpt lat="43.43682" lon="6.03219">
        <ele>267.39999389648</ele>
        <time>2016-11-16T13:59:44Z</time>
      </trkpt>
      <trkpt lat="43.43686" lon="6.03202">
        <ele>267.79998779297</ele>
        <time>2016-11-16T13:59:51Z</time>
      </trkpt>
      <trkpt lat="43.43688" lon="6.03196">
        <ele>268</ele>
        <time>2016-11-16T13:59:54Z</time>
      </trkpt>
      <trkpt lat="43.43691" lon="6.03191">
        <ele>268.20001220703</ele>
        <time>2016-11-16T13:59:58Z</time>
      </trkpt>
      <trkpt lat="43.43689" lon="6.03177">
        <ele>268.20001220703</ele>
        <time>2016-11-16T14:00:04Z</time>
      </trkpt>
      <trkpt lat="43.4369" lon="6.03151">
        <ele>268.20001220703</ele>
        <time>2016-11-16T14:00:14Z</time>
      </trkpt>
      <trkpt lat="43.43687" lon="6.03123">
        <ele>268.20001220703</ele>
        <time>2016-11-16T14:00:24Z</time>
      </trkpt>
      <trkpt lat="43.43692" lon="6.03093">
        <ele>267.79998779297</ele>
        <time>2016-11-16T14:00:34Z</time>
      </trkpt>
      <trkpt lat="43.43708" lon="6.03064">
        <ele>267.60000610352</ele>
        <time>2016-11-16T14:00:44Z</time>
      </trkpt>
      <trkpt lat="43.43721" lon="6.03055">
        <ele>267</ele>
        <time>2016-11-16T14:00:49Z</time>
      </trkpt>
      <trkpt lat="43.43726" lon="6.03052">
        <ele>266.60000610352</ele>
        <time>2016-11-16T14:00:51Z</time>
      </trkpt>
      <trkpt lat="43.43733" lon="6.03049">
        <ele>266.39999389648</ele>
        <time>2016-11-16T14:00:54Z</time>
      </trkpt>
      <trkpt lat="43.43746" lon="6.03043">
        <ele>265.79998779297</ele>
        <time>2016-11-16T14:00:58Z</time>
      </trkpt>
      <trkpt lat="43.4375" lon="6.03042">
        <ele>265.60000610352</ele>
        <time>2016-11-16T14:00:59Z</time>
      </trkpt>
      <trkpt lat="43.43761" lon="6.03027">
        <ele>264.79998779297</ele>
        <time>2016-11-16T14:01:04Z</time>
      </trkpt>
      <trkpt lat="43.43778" lon="6.02998">
        <ele>264.60000610352</ele>
        <time>2016-11-16T14:01:14Z</time>
      </trkpt>
      <trkpt lat="43.43779" lon="6.02992">
        <ele>264.79998779297</ele>
        <time>2016-11-16T14:01:17Z</time>
      </trkpt>
      <trkpt lat="43.4378" lon="6.02987">
        <ele>265</ele>
        <time>2016-11-16T14:01:23Z</time>
      </trkpt>
      <trkpt lat="43.43781" lon="6.02986">
        <ele>265</ele>
        <time>2016-11-16T14:01:24Z</time>
      </trkpt>
      <trkpt lat="43.43781" lon="6.02986">
        <ele>265.39999389648</ele>
        <time>2016-11-16T14:01:34Z</time>
      </trkpt>
      <trkpt lat="43.43781" lon="6.02986">
        <ele>265.39999389648</ele>
        <time>2016-11-16T14:01:44Z</time>
      </trkpt>
      <trkpt lat="43.43781" lon="6.02985">
        <ele>265.20001220703</ele>
        <time>2016-11-16T14:01:54Z</time>
      </trkpt>
      <trkpt lat="43.43781" lon="6.02985">
        <ele>265.39999389648</ele>
        <time>2016-11-16T14:02:04Z</time>
      </trkpt>
      <trkpt lat="43.43781" lon="6.02985">
        <ele>265.20001220703</ele>
        <time>2016-11-16T14:02:24Z</time>
      </trkpt>
      <trkpt lat="43.43781" lon="6.02985">
        <ele>265.39999389648</ele>
        <time>2016-11-16T14:02:34Z</time>
      </trkpt>
      <trkpt lat="43.43781" lon="6.02984">
        <ele>265.39999389648</ele>
        <time>2016-11-16T14:02:44Z</time>
      </trkpt>
      <trkpt lat="43.43782" lon="6.02984">
        <ele>265.39999389648</ele>
        <time>2016-11-16T14:02:45Z</time>
      </trkpt>
      <trkpt lat="43.43782" lon="6.0298">
        <ele>264.79998779297</ele>
        <time>2016-11-16T14:02:47Z</time>
      </trkpt>
      <trkpt lat="43.43782" lon="6.02974">
        <ele>264.60000610352</ele>
        <time>2016-11-16T14:02:49Z</time>
      </trkpt>
      <trkpt lat="43.43784" lon="6.02958">
        <ele>264.79998779297</ele>
        <time>2016-11-16T14:02:54Z</time>
      </trkpt>
      <trkpt lat="43.43792" lon="6.02936">
        <ele>265.60000610352</ele>
        <time>2016-11-16T14:03:00Z</time>
      </trkpt>
      <trkpt lat="43.43792" lon="6.02919">
        <ele>265.79998779297</ele>
        <time>2016-11-16T14:03:04Z</time>
      </trkpt>
      <trkpt lat="43.4379" lon="6.02896">
        <ele>266.60000610352</ele>
        <time>2016-11-16T14:03:10Z</time>
      </trkpt>
      <trkpt lat="43.43792" lon="6.0288">
        <ele>267.20001220703</ele>
        <time>2016-11-16T14:03:14Z</time>
      </trkpt>
      <trkpt lat="43.43805" lon="6.02841">
        <ele>267</ele>
        <time>2016-11-16T14:03:24Z</time>
      </trkpt>
      <trkpt lat="43.43807" lon="6.02832">
        <ele>267</ele>
        <time>2016-11-16T14:03:26Z</time>
      </trkpt>
      <trkpt lat="43.43805" lon="6.02819">
        <ele>267.39999389648</ele>
        <time>2016-11-16T14:03:31Z</time>
      </trkpt>
      <trkpt lat="43.43805" lon="6.02819">
        <ele>267.79998779297</ele>
        <time>2016-11-16T14:03:32Z</time>
      </trkpt>
      <trkpt lat="43.43805" lon="6.02818">
        <ele>268.39999389648</ele>
        <time>2016-11-16T14:03:34Z</time>
      </trkpt>
      <trkpt lat="43.43803" lon="6.02811">
        <ele>268.79998779297</ele>
        <time>2016-11-16T14:03:44Z</time>
      </trkpt>
      <trkpt lat="43.43794" lon="6.028">
        <ele>269.39999389648</ele>
        <time>2016-11-16T14:03:52Z</time>
      </trkpt>
      <trkpt lat="43.43793" lon="6.02796">
        <ele>269.60000610352</ele>
        <time>2016-11-16T14:03:54Z</time>
      </trkpt>
      <trkpt lat="43.43783" lon="6.02773">
        <ele>269.79998779297</ele>
        <time>2016-11-16T14:04:03Z</time>
      </trkpt>
      <trkpt lat="43.43783" lon="6.0277">
        <ele>269.79998779297</ele>
        <time>2016-11-16T14:04:04Z</time>
      </trkpt>
      <trkpt lat="43.43784" lon="6.02736">
        <ele>270</ele>
        <time>2016-11-16T14:04:14Z</time>
      </trkpt>
      <trkpt lat="43.43779" lon="6.02725">
        <ele>269.79998779297</ele>
        <time>2016-11-16T14:04:18Z</time>
      </trkpt>
      <trkpt lat="43.43769" lon="6.0272">
        <ele>270.79998779297</ele>
        <time>2016-11-16T14:04:23Z</time>
      </trkpt>
      <trkpt lat="43.43767" lon="6.02718">
        <ele>271</ele>
        <time>2016-11-16T14:04:24Z</time>
      </trkpt>
      <trkpt lat="43.43763" lon="6.02713">
        <ele>271.39999389648</ele>
        <time>2016-11-16T14:04:27Z</time>
      </trkpt>
      <trkpt lat="43.43767" lon="6.02706">
        <ele>271.79998779297</ele>
        <time>2016-11-16T14:04:31Z</time>
      </trkpt>
      <trkpt lat="43.43773" lon="6.02703">
        <ele>272</ele>
        <time>2016-11-16T14:04:34Z</time>
      </trkpt>
      <trkpt lat="43.43782" lon="6.02687">
        <ele>271.60000610352</ele>
        <time>2016-11-16T14:04:40Z</time>
      </trkpt>
      <trkpt lat="43.43782" lon="6.0268">
        <ele>271.60000610352</ele>
        <time>2016-11-16T14:04:42Z</time>
      </trkpt>
      <trkpt lat="43.43781" lon="6.02676">
        <ele>271.60000610352</ele>
        <time>2016-11-16T14:04:44Z</time>
      </trkpt>
      <trkpt lat="43.43782" lon="6.02641">
        <ele>272.60000610352</ele>
        <time>2016-11-16T14:04:54Z</time>
      </trkpt>
      <trkpt lat="43.43789" lon="6.02612">
        <ele>272.79998779297</ele>
        <time>2016-11-16T14:05:02Z</time>
      </trkpt>
      <trkpt lat="43.4379" lon="6.02607">
        <ele>273</ele>
        <time>2016-11-16T14:05:04Z</time>
      </trkpt>
      <trkpt lat="43.4379" lon="6.02574">
        <ele>272.79998779297</ele>
        <time>2016-11-16T14:05:14Z</time>
      </trkpt>
      <trkpt lat="43.43787" lon="6.02561">
        <ele>272.79998779297</ele>
        <time>2016-11-16T14:05:18Z</time>
      </trkpt>
      <trkpt lat="43.43787" lon="6.02542">
        <ele>273</ele>
        <time>2016-11-16T14:05:24Z</time>
      </trkpt>
      <trkpt lat="43.43789" lon="6.02534">
        <ele>273.20001220703</ele>
        <time>2016-11-16T14:05:27Z</time>
      </trkpt>
      <trkpt lat="43.43793" lon="6.02522">
        <ele>273</ele>
        <time>2016-11-16T14:05:31Z</time>
      </trkpt>
      <trkpt lat="43.43795" lon="6.02516">
        <ele>272.39999389648</ele>
        <time>2016-11-16T14:05:34Z</time>
      </trkpt>
      <trkpt lat="43.43795" lon="6.02511">
        <ele>272.60000610352</ele>
        <time>2016-11-16T14:05:44Z</time>
      </trkpt>
      <trkpt lat="43.43795" lon="6.02511">
        <ele>272.60000610352</ele>
        <time>2016-11-16T14:05:47Z</time>
      </trkpt>
      <trkpt lat="43.43795" lon="6.02511">
        <ele>272.60000610352</ele>
        <time>2016-11-16T14:05:54Z</time>
      </trkpt>
      <trkpt lat="43.43795" lon="6.0251">
        <ele>272.39999389648</ele>
        <time>2016-11-16T14:06:04Z</time>
      </trkpt>
      <trkpt lat="43.43795" lon="6.02511">
        <ele>272.20001220703</ele>
        <time>2016-11-16T14:06:09Z</time>
      </trkpt>
      <trkpt lat="43.43795" lon="6.02511">
        <ele>272.20001220703</ele>
        <time>2016-11-16T14:06:14Z</time>
      </trkpt>
      <trkpt lat="43.43795" lon="6.02511">
        <ele>272</ele>
        <time>2016-11-16T14:06:24Z</time>
      </trkpt>
      <trkpt lat="43.43795" lon="6.02512">
        <ele>272</ele>
        <time>2016-11-16T14:06:34Z</time>
      </trkpt>
      <trkpt lat="43.43796" lon="6.02512">
        <ele>272.39999389648</ele>
        <time>2016-11-16T14:06:44Z</time>
      </trkpt>
      <trkpt lat="43.43797" lon="6.02509">
        <ele>272.39999389648</ele>
        <time>2016-11-16T14:06:50Z</time>
      </trkpt>
      <trkpt lat="43.43796" lon="6.02507">
        <ele>272.20001220703</ele>
        <time>2016-11-16T14:06:51Z</time>
      </trkpt>
      <trkpt lat="43.43796" lon="6.02503">
        <ele>271.79998779297</ele>
        <time>2016-11-16T14:06:53Z</time>
      </trkpt>
      <trkpt lat="43.43796" lon="6.02501">
        <ele>271.79998779297</ele>
        <time>2016-11-16T14:06:54Z</time>
      </trkpt>
      <trkpt lat="43.43795" lon="6.02482">
        <ele>271.60000610352</ele>
        <time>2016-11-16T14:07:04Z</time>
      </trkpt>
      <trkpt lat="43.43794" lon="6.02479">
        <ele>272</ele>
        <time>2016-11-16T14:07:06Z</time>
      </trkpt>
      <trkpt lat="43.43794" lon="6.02478">
        <ele>272.20001220703</ele>
        <time>2016-11-16T14:07:08Z</time>
      </trkpt>
      <trkpt lat="43.43794" lon="6.02478">
        <ele>272.39999389648</ele>
        <time>2016-11-16T14:07:11Z</time>
      </trkpt>
      <trkpt lat="43.43794" lon="6.02478">
        <ele>272.39999389648</ele>
        <time>2016-11-16T14:07:14Z</time>
      </trkpt>
      <trkpt lat="43.43794" lon="6.02477">
        <ele>272.39999389648</ele>
        <time>2016-11-16T14:07:19Z</time>
      </trkpt>
      <trkpt lat="43.43794" lon="6.02477">
        <ele>272.39999389648</ele>
        <time>2016-11-16T14:07:22Z</time>
      </trkpt>
      <trkpt lat="43.43794" lon="6.02477">
        <ele>272.39999389648</ele>
        <time>2016-11-16T14:07:24Z</time>
      </trkpt>
      <trkpt lat="43.43795" lon="6.02475">
        <ele>272</ele>
        <time>2016-11-16T14:07:31Z</time>
      </trkpt>
      <trkpt lat="43.43796" lon="6.02475">
        <ele>272</ele>
        <time>2016-11-16T14:07:34Z</time>
      </trkpt>
      <trkpt lat="43.43798" lon="6.02483">
        <ele>272</ele>
        <time>2016-11-16T14:07:44Z</time>
      </trkpt>
      <trkpt lat="43.43796" lon="6.02484">
        <ele>272</ele>
        <time>2016-11-16T14:07:49Z</time>
      </trkpt>
      <trkpt lat="43.43795" lon="6.02484">
        <ele>271.60000610352</ele>
        <time>2016-11-16T14:07:54Z</time>
      </trkpt>
      <trkpt lat="43.43795" lon="6.02488">
        <ele>271.60000610352</ele>
        <time>2016-11-16T14:07:59Z</time>
      </trkpt>
      <trkpt lat="43.43795" lon="6.02488">
        <ele>271.60000610352</ele>
        <time>2016-11-16T14:08:00Z</time>
      </trkpt>
      <trkpt lat="43.43795" lon="6.0249">
        <ele>271.60000610352</ele>
        <time>2016-11-16T14:08:04Z</time>
      </trkpt>
      <trkpt lat="43.43795" lon="6.02488">
        <ele>271.60000610352</ele>
        <time>2016-11-16T14:08:10Z</time>
      </trkpt>
      <trkpt lat="43.43795" lon="6.02485">
        <ele>271.39999389648</ele>
        <time>2016-11-16T14:08:12Z</time>
      </trkpt>
      <trkpt lat="43.43794" lon="6.02482">
        <ele>271.79998779297</ele>
        <time>2016-11-16T14:08:14Z</time>
      </trkpt>
      <trkpt lat="43.43794" lon="6.02481">
        <ele>271.79998779297</ele>
        <time>2016-11-16T14:08:15Z</time>
      </trkpt>
      <trkpt lat="43.43793" lon="6.02478">
        <ele>271.39999389648</ele>
        <time>2016-11-16T14:08:17Z</time>
      </trkpt>
      <trkpt lat="43.43793" lon="6.02477">
        <ele>270.79998779297</ele>
        <time>2016-11-16T14:08:20Z</time>
      </trkpt>
      <trkpt lat="43.43792" lon="6.02478">
        <ele>271</ele>
        <time>2016-11-16T14:08:23Z</time>
      </trkpt>
      <trkpt lat="43.43792" lon="6.02479">
        <ele>271</ele>
        <time>2016-11-16T14:08:24Z</time>
      </trkpt>
      <trkpt lat="43.4379" lon="6.02479">
        <ele>271.60000610352</ele>
        <time>2016-11-16T14:08:33Z</time>
      </trkpt>
      <trkpt lat="43.4379" lon="6.0248">
        <ele>271.60000610352</ele>
        <time>2016-11-16T14:08:34Z</time>
      </trkpt>
      <trkpt lat="43.4379" lon="6.0248">
        <ele>272</ele>
        <time>2016-11-16T14:08:44Z</time>
      </trkpt>
      <trkpt lat="43.4379" lon="6.02479">
        <ele>272</ele>
        <time>2016-11-16T14:08:51Z</time>
      </trkpt>
      <trkpt lat="43.4379" lon="6.02479">
        <ele>271.60000610352</ele>
        <time>2016-11-16T14:08:54Z</time>
      </trkpt>
      <trkpt lat="43.4379" lon="6.02479">
        <ele>271.39999389648</ele>
        <time>2016-11-16T14:09:01Z</time>
      </trkpt>
      <trkpt lat="43.4379" lon="6.02479">
        <ele>271.39999389648</ele>
        <time>2016-11-16T14:09:04Z</time>
      </trkpt>
      <trkpt lat="43.4379" lon="6.02479">
        <ele>271.39999389648</ele>
        <time>2016-11-16T14:09:18Z</time>
      </trkpt>
      <trkpt lat="43.43789" lon="6.02479">
        <ele>272.20001220703</ele>
        <time>2016-11-16T14:09:23Z</time>
      </trkpt>
      <trkpt lat="43.4379" lon="6.02479">
        <ele>271</ele>
        <time>2016-11-16T14:09:24Z</time>
      </trkpt>
      <trkpt lat="43.43792" lon="6.02478">
        <ele>271</ele>
        <time>2016-11-16T14:09:34Z</time>
      </trkpt>
      <trkpt lat="43.43792" lon="6.02479">
        <ele>271</ele>
        <time>2016-11-16T14:09:38Z</time>
      </trkpt>
      <trkpt lat="43.43791" lon="6.0248">
        <ele>271</ele>
        <time>2016-11-16T14:09:43Z</time>
      </trkpt>
      <trkpt lat="43.43791" lon="6.0248">
        <ele>271</ele>
        <time>2016-11-16T14:09:44Z</time>
      </trkpt>
      <trkpt lat="43.43791" lon="6.0248">
        <ele>271</ele>
        <time>2016-11-16T14:09:52Z</time>
      </trkpt>
      <trkpt lat="43.43792" lon="6.02481">
        <ele>271</ele>
        <time>2016-11-16T14:09:53Z</time>
      </trkpt>
      <trkpt lat="43.43792" lon="6.02481">
        <ele>271</ele>
        <time>2016-11-16T14:09:54Z</time>
      </trkpt>
      <trkpt lat="43.43793" lon="6.02481">
        <ele>271</ele>
        <time>2016-11-16T14:10:04Z</time>
      </trkpt>
      <trkpt lat="43.43792" lon="6.02485">
        <ele>271</ele>
        <time>2016-11-16T14:10:14Z</time>
      </trkpt>
      <trkpt lat="43.43789" lon="6.02483">
        <ele>271</ele>
        <time>2016-11-16T14:10:24Z</time>
      </trkpt>
      <trkpt lat="43.43789" lon="6.02482">
        <ele>271</ele>
        <time>2016-11-16T14:10:34Z</time>
      </trkpt>
      <trkpt lat="43.43789" lon="6.02482">
        <ele>271</ele>
        <time>2016-11-16T14:10:40Z</time>
      </trkpt>
      <trkpt lat="43.43788" lon="6.02482">
        <ele>271</ele>
        <time>2016-11-16T14:10:44Z</time>
      </trkpt>
      <trkpt lat="43.43785" lon="6.02478">
        <ele>271</ele>
        <time>2016-11-16T14:10:54Z</time>
      </trkpt>
      <trkpt lat="43.43784" lon="6.02476">
        <ele>271</ele>
        <time>2016-11-16T14:11:04Z</time>
      </trkpt>
      <trkpt lat="43.43784" lon="6.02474">
        <ele>271</ele>
        <time>2016-11-16T14:11:14Z</time>
      </trkpt>
      <trkpt lat="43.43782" lon="6.02471">
        <ele>271</ele>
        <time>2016-11-16T14:11:24Z</time>
      </trkpt>
      <trkpt lat="43.43779" lon="6.02471">
        <ele>271</ele>
        <time>2016-11-16T14:11:28Z</time>
      </trkpt>
      <trkpt lat="43.43777" lon="6.0247">
        <ele>270.79998779297</ele>
        <time>2016-11-16T14:11:29Z</time>
      </trkpt>
      <trkpt lat="43.43774" lon="6.02467">
        <ele>270.79998779297</ele>
        <time>2016-11-16T14:11:32Z</time>
      </trkpt>
      <trkpt lat="43.43775" lon="6.02463">
        <ele>271.20001220703</ele>
        <time>2016-11-16T14:11:34Z</time>
      </trkpt>
      <trkpt lat="43.43772" lon="6.0246">
        <ele>271.39999389648</ele>
        <time>2016-11-16T14:11:37Z</time>
      </trkpt>
      <trkpt lat="43.4377" lon="6.02457">
        <ele>271.79998779297</ele>
        <time>2016-11-16T14:11:39Z</time>
      </trkpt>
      <trkpt lat="43.4377" lon="6.02455">
        <ele>272</ele>
        <time>2016-11-16T14:11:40Z</time>
      </trkpt>
      <trkpt lat="43.4377" lon="6.02453">
        <ele>272.20001220703</ele>
        <time>2016-11-16T14:11:41Z</time>
      </trkpt>
      <trkpt lat="43.43771" lon="6.0245">
        <ele>272.79998779297</ele>
        <time>2016-11-16T14:11:43Z</time>
      </trkpt>
      <trkpt lat="43.43772" lon="6.02444">
        <ele>273.39999389648</ele>
        <time>2016-11-16T14:11:46Z</time>
      </trkpt>
      <trkpt lat="43.43771" lon="6.0244">
        <ele>273.39999389648</ele>
        <time>2016-11-16T14:11:48Z</time>
      </trkpt>
      <trkpt lat="43.43756" lon="6.02416">
        <ele>273.79998779297</ele>
        <time>2016-11-16T14:12:01Z</time>
      </trkpt>
      <trkpt lat="43.43753" lon="6.02412">
        <ele>274.20001220703</ele>
        <time>2016-11-16T14:12:03Z</time>
      </trkpt>
      <trkpt lat="43.43751" lon="6.02411">
        <ele>274.39999389648</ele>
        <time>2016-11-16T14:12:04Z</time>
      </trkpt>
      <trkpt lat="43.43746" lon="6.02407">
        <ele>275.20001220703</ele>
        <time>2016-11-16T14:12:07Z</time>
      </trkpt>
      <trkpt lat="43.43745" lon="6.02405">
        <ele>275.60000610352</ele>
        <time>2016-11-16T14:12:08Z</time>
      </trkpt>
      <trkpt lat="43.43744" lon="6.02402">
        <ele>276.39999389648</ele>
        <time>2016-11-16T14:12:11Z</time>
      </trkpt>
      <trkpt lat="43.43743" lon="6.02399">
        <ele>276.39999389648</ele>
        <time>2016-11-16T14:12:13Z</time>
      </trkpt>
      <trkpt lat="43.43742" lon="6.02398">
        <ele>276.39999389648</ele>
        <time>2016-11-16T14:12:14Z</time>
      </trkpt>
      <trkpt lat="43.43742" lon="6.02396">
        <ele>276.60000610352</ele>
        <time>2016-11-16T14:12:15Z</time>
      </trkpt>
      <trkpt lat="43.4374" lon="6.02389">
        <ele>277</ele>
        <time>2016-11-16T14:12:19Z</time>
      </trkpt>
      <trkpt lat="43.43737" lon="6.02381">
        <ele>277</ele>
        <time>2016-11-16T14:12:23Z</time>
      </trkpt>
      <trkpt lat="43.43737" lon="6.02375">
        <ele>277.39999389648</ele>
        <time>2016-11-16T14:12:26Z</time>
      </trkpt>
      <trkpt lat="43.43734" lon="6.0237">
        <ele>277.60000610352</ele>
        <time>2016-11-16T14:12:29Z</time>
      </trkpt>
      <trkpt lat="43.43728" lon="6.02363">
        <ele>278</ele>
        <time>2016-11-16T14:12:34Z</time>
      </trkpt>
      <trkpt lat="43.43722" lon="6.02364">
        <ele>278.60000610352</ele>
        <time>2016-11-16T14:12:39Z</time>
      </trkpt>
      <trkpt lat="43.43721" lon="6.02363">
        <ele>278.60000610352</ele>
        <time>2016-11-16T14:12:40Z</time>
      </trkpt>
      <trkpt lat="43.43718" lon="6.02359">
        <ele>278.79998779297</ele>
        <time>2016-11-16T14:12:43Z</time>
      </trkpt>
      <trkpt lat="43.43717" lon="6.02357">
        <ele>278.79998779297</ele>
        <time>2016-11-16T14:12:44Z</time>
      </trkpt>
      <trkpt lat="43.43713" lon="6.02347">
        <ele>278.79998779297</ele>
        <time>2016-11-16T14:12:49Z</time>
      </trkpt>
      <trkpt lat="43.43721" lon="6.02332">
        <ele>277.39999389648</ele>
        <time>2016-11-16T14:12:56Z</time>
      </trkpt>
      <trkpt lat="43.43724" lon="6.02324">
        <ele>276.79998779297</ele>
        <time>2016-11-16T14:12:59Z</time>
      </trkpt>
      <trkpt lat="43.43727" lon="6.02316">
        <ele>276</ele>
        <time>2016-11-16T14:13:01Z</time>
      </trkpt>
      <trkpt lat="43.43732" lon="6.02307">
        <ele>274.39999389648</ele>
        <time>2016-11-16T14:13:03Z</time>
      </trkpt>
      <trkpt lat="43.43734" lon="6.02302">
        <ele>273.60000610352</ele>
        <time>2016-11-16T14:13:04Z</time>
      </trkpt>
      <trkpt lat="43.43736" lon="6.02297">
        <ele>272.79998779297</ele>
        <time>2016-11-16T14:13:05Z</time>
      </trkpt>
      <trkpt lat="43.43739" lon="6.02293">
        <ele>272.39999389648</ele>
        <time>2016-11-16T14:13:06Z</time>
      </trkpt>
      <trkpt lat="43.43743" lon="6.02285">
        <ele>271.60000610352</ele>
        <time>2016-11-16T14:13:08Z</time>
      </trkpt>
      <trkpt lat="43.43752" lon="6.02271">
        <ele>271.20001220703</ele>
        <time>2016-11-16T14:13:11Z</time>
      </trkpt>
      <trkpt lat="43.43758" lon="6.0226">
        <ele>270.39999389648</ele>
        <time>2016-11-16T14:13:13Z</time>
      </trkpt>
      <trkpt lat="43.43759" lon="6.02255">
        <ele>270</ele>
        <time>2016-11-16T14:13:14Z</time>
      </trkpt>
      <trkpt lat="43.4376" lon="6.02245">
        <ele>269.60000610352</ele>
        <time>2016-11-16T14:13:16Z</time>
      </trkpt>
      <trkpt lat="43.43762" lon="6.02217">
        <ele>270.39999389648</ele>
        <time>2016-11-16T14:13:23Z</time>
      </trkpt>
      <trkpt lat="43.43762" lon="6.02214">
        <ele>270.39999389648</ele>
        <time>2016-11-16T14:13:24Z</time>
      </trkpt>
      <trkpt lat="43.43765" lon="6.022">
        <ele>270.79998779297</ele>
        <time>2016-11-16T14:13:27Z</time>
      </trkpt>
      <trkpt lat="43.43777" lon="6.02176">
        <ele>271</ele>
        <time>2016-11-16T14:13:33Z</time>
      </trkpt>
      <trkpt lat="43.43778" lon="6.02172">
        <ele>270.79998779297</ele>
        <time>2016-11-16T14:13:34Z</time>
      </trkpt>
      <trkpt lat="43.43787" lon="6.02157">
        <ele>270.39999389648</ele>
        <time>2016-11-16T14:13:38Z</time>
      </trkpt>
      <trkpt lat="43.43801" lon="6.02139">
        <ele>271</ele>
        <time>2016-11-16T14:13:44Z</time>
      </trkpt>
      <trkpt lat="43.4381" lon="6.02122">
        <ele>271.60000610352</ele>
        <time>2016-11-16T14:13:50Z</time>
      </trkpt>
      <trkpt lat="43.4381" lon="6.02114">
        <ele>272</ele>
        <time>2016-11-16T14:13:52Z</time>
      </trkpt>
      <trkpt lat="43.43811" lon="6.02107">
        <ele>272.20001220703</ele>
        <time>2016-11-16T14:13:54Z</time>
      </trkpt>
      <trkpt lat="43.43824" lon="6.02069">
        <ele>272</ele>
        <time>2016-11-16T14:14:04Z</time>
      </trkpt>
      <trkpt lat="43.43832" lon="6.02027">
        <ele>272</ele>
        <time>2016-11-16T14:14:14Z</time>
      </trkpt>
      <trkpt lat="43.43835" lon="6.01989">
        <ele>272.39999389648</ele>
        <time>2016-11-16T14:14:24Z</time>
      </trkpt>
      <trkpt lat="43.43837" lon="6.01979">
        <ele>272.79998779297</ele>
        <time>2016-11-16T14:14:27Z</time>
      </trkpt>
      <trkpt lat="43.43842" lon="6.01968">
        <ele>273</ele>
        <time>2016-11-16T14:14:31Z</time>
      </trkpt>
      <trkpt lat="43.43844" lon="6.0196">
        <ele>272.60000610352</ele>
        <time>2016-11-16T14:14:34Z</time>
      </trkpt>
      <trkpt lat="43.4385" lon="6.01948">
        <ele>272.60000610352</ele>
        <time>2016-11-16T14:14:41Z</time>
      </trkpt>
      <trkpt lat="43.43852" lon="6.01944">
        <ele>272.79998779297</ele>
        <time>2016-11-16T14:14:44Z</time>
      </trkpt>
      <trkpt lat="43.43854" lon="6.01934">
        <ele>273</ele>
        <time>2016-11-16T14:14:50Z</time>
      </trkpt>
      <trkpt lat="43.43857" lon="6.01933">
        <ele>272.79998779297</ele>
        <time>2016-11-16T14:14:54Z</time>
      </trkpt>
      <trkpt lat="43.43855" lon="6.01934">
        <ele>272.79998779297</ele>
        <time>2016-11-16T14:14:57Z</time>
      </trkpt>
      <trkpt lat="43.43854" lon="6.01936">
        <ele>272.79998779297</ele>
        <time>2016-11-16T14:15:00Z</time>
      </trkpt>
      <trkpt lat="43.43853" lon="6.01941">
        <ele>272.79998779297</ele>
        <time>2016-11-16T14:15:04Z</time>
      </trkpt>
      <trkpt lat="43.43853" lon="6.01943">
        <ele>273</ele>
        <time>2016-11-16T14:15:05Z</time>
      </trkpt>
      <trkpt lat="43.43848" lon="6.01953">
        <ele>273</ele>
        <time>2016-11-16T14:15:12Z</time>
      </trkpt>
      <trkpt lat="43.43846" lon="6.01954">
        <ele>273.20001220703</ele>
        <time>2016-11-16T14:15:14Z</time>
      </trkpt>
      <trkpt lat="43.43843" lon="6.01954">
        <ele>273.39999389648</ele>
        <time>2016-11-16T14:15:16Z</time>
      </trkpt>
      <trkpt lat="43.4384" lon="6.01953">
        <ele>273.60000610352</ele>
        <time>2016-11-16T14:15:19Z</time>
      </trkpt>
      <trkpt lat="43.43838" lon="6.01949">
        <ele>274.39999389648</ele>
        <time>2016-11-16T14:15:22Z</time>
      </trkpt>
      <trkpt lat="43.43837" lon="6.01946">
        <ele>274.60000610352</ele>
        <time>2016-11-16T14:15:24Z</time>
      </trkpt>
      <trkpt lat="43.43835" lon="6.01938">
        <ele>275.39999389648</ele>
        <time>2016-11-16T14:15:29Z</time>
      </trkpt>
      <trkpt lat="43.43834" lon="6.01934">
        <ele>276.20001220703</ele>
        <time>2016-11-16T14:15:32Z</time>
      </trkpt>
      <trkpt lat="43.43833" lon="6.01934">
        <ele>276.39999389648</ele>
        <time>2016-11-16T14:15:34Z</time>
      </trkpt>
      <trkpt lat="43.43832" lon="6.01934">
        <ele>276.39999389648</ele>
        <time>2016-11-16T14:15:37Z</time>
      </trkpt>
      <trkpt lat="43.43832" lon="6.0193">
        <ele>276.39999389648</ele>
        <time>2016-11-16T14:15:44Z</time>
      </trkpt>
      <trkpt lat="43.43832" lon="6.01929">
        <ele>276.39999389648</ele>
        <time>2016-11-16T14:15:49Z</time>
      </trkpt>
      <trkpt lat="43.43833" lon="6.01932">
        <ele>276.79998779297</ele>
        <time>2016-11-16T14:16:04Z</time>
      </trkpt>
      <trkpt lat="43.43834" lon="6.01932">
        <ele>276.60000610352</ele>
        <time>2016-11-16T14:16:09Z</time>
      </trkpt>
      <trkpt lat="43.43834" lon="6.01931">
        <ele>276.60000610352</ele>
        <time>2016-11-16T14:16:14Z</time>
      </trkpt>
      <trkpt lat="43.4384" lon="6.01929">
        <ele>275.39999389648</ele>
        <time>2016-11-16T14:16:20Z</time>
      </trkpt>
      <trkpt lat="43.43842" lon="6.01928">
        <ele>275</ele>
        <time>2016-11-16T14:16:23Z</time>
      </trkpt>
      <trkpt lat="43.43842" lon="6.01928">
        <ele>274.79998779297</ele>
        <time>2016-11-16T14:16:24Z</time>
      </trkpt>
      <trkpt lat="43.43849" lon="6.01928">
        <ele>274.20001220703</ele>
        <time>2016-11-16T14:16:34Z</time>
      </trkpt>
      <trkpt lat="43.43852" lon="6.0193">
        <ele>273.60000610352</ele>
        <time>2016-11-16T14:16:37Z</time>
      </trkpt>
      <trkpt lat="43.43854" lon="6.01939">
        <ele>273.20001220703</ele>
        <time>2016-11-16T14:16:41Z</time>
      </trkpt>
      <trkpt lat="43.43853" lon="6.01942">
        <ele>273.20001220703</ele>
        <time>2016-11-16T14:16:43Z</time>
      </trkpt>
      <trkpt lat="43.43852" lon="6.01943">
        <ele>273.20001220703</ele>
        <time>2016-11-16T14:16:44Z</time>
      </trkpt>
      <trkpt lat="43.43852" lon="6.01945">
        <ele>273.60000610352</ele>
        <time>2016-11-16T14:16:52Z</time>
      </trkpt>
      <trkpt lat="43.43852" lon="6.01945">
        <ele>273.39999389648</ele>
        <time>2016-11-16T14:16:54Z</time>
      </trkpt>
      <trkpt lat="43.43852" lon="6.01945">
        <ele>272.79998779297</ele>
        <time>2016-11-16T14:17:04Z</time>
      </trkpt>
      <trkpt lat="43.43852" lon="6.01946">
        <ele>273.20001220703</ele>
        <time>2016-11-16T14:17:14Z</time>
      </trkpt>
      <trkpt lat="43.43852" lon="6.01946">
        <ele>272.79998779297</ele>
        <time>2016-11-16T14:17:24Z</time>
      </trkpt>
      <trkpt lat="43.43851" lon="6.01945">
        <ele>273</ele>
        <time>2016-11-16T14:17:31Z</time>
      </trkpt>
      <trkpt lat="43.43851" lon="6.01946">
        <ele>273</ele>
        <time>2016-11-16T14:17:34Z</time>
      </trkpt>
      <trkpt lat="43.43851" lon="6.01946">
        <ele>272.79998779297</ele>
        <time>2016-11-16T14:17:39Z</time>
      </trkpt>
      <trkpt lat="43.43851" lon="6.01945">
        <ele>273.20001220703</ele>
        <time>2016-11-16T14:17:44Z</time>
      </trkpt>
      <trkpt lat="43.43851" lon="6.01945">
        <ele>273.20001220703</ele>
        <time>2016-11-16T14:17:54Z</time>
      </trkpt>
      <trkpt lat="43.43851" lon="6.01945">
        <ele>273.20001220703</ele>
        <time>2016-11-16T14:18:04Z</time>
      </trkpt>
      <trkpt lat="43.43851" lon="6.01947">
        <ele>273.20001220703</ele>
        <time>2016-11-16T14:18:24Z</time>
      </trkpt>
      <trkpt lat="43.43851" lon="6.01948">
        <ele>273.20001220703</ele>
        <time>2016-11-16T14:18:34Z</time>
      </trkpt>
      <trkpt lat="43.43851" lon="6.01948">
        <ele>273.20001220703</ele>
        <time>2016-11-16T14:18:44Z</time>
      </trkpt>
      <trkpt lat="43.4385" lon="6.01948">
        <ele>273.20001220703</ele>
        <time>2016-11-16T14:18:54Z</time>
      </trkpt>
      <trkpt lat="43.43851" lon="6.01947">
        <ele>273.20001220703</ele>
        <time>2016-11-16T14:19:04Z</time>
      </trkpt>
      <trkpt lat="43.43851" lon="6.01947">
        <ele>273.20001220703</ele>
        <time>2016-11-16T14:19:14Z</time>
      </trkpt>
      <trkpt lat="43.43851" lon="6.01947">
        <ele>273.20001220703</ele>
        <time>2016-11-16T14:19:24Z</time>
      </trkpt>
      <trkpt lat="43.43851" lon="6.01947">
        <ele>273.20001220703</ele>
        <time>2016-11-16T14:19:34Z</time>
      </trkpt>
      <trkpt lat="43.4385" lon="6.01948">
        <ele>273.20001220703</ele>
        <time>2016-11-16T14:19:44Z</time>
      </trkpt>
      <trkpt lat="43.43851" lon="6.01948">
        <ele>273.20001220703</ele>
        <time>2016-11-16T14:19:54Z</time>
      </trkpt>
      <trkpt lat="43.4385" lon="6.01947">
        <ele>273.20001220703</ele>
        <time>2016-11-16T14:20:02Z</time>
      </trkpt>
      <trkpt lat="43.4385" lon="6.01947">
        <ele>273.20001220703</ele>
        <time>2016-11-16T14:20:09Z</time>
      </trkpt>
      <trkpt lat="43.4385" lon="6.01947">
        <ele>273.20001220703</ele>
        <time>2016-11-16T14:20:14Z</time>
      </trkpt>
      <trkpt lat="43.4385" lon="6.01947">
        <ele>273.20001220703</ele>
        <time>2016-11-16T14:20:24Z</time>
      </trkpt>
      <trkpt lat="43.43852" lon="6.01949">
        <ele>273.20001220703</ele>
        <time>2016-11-16T14:20:28Z</time>
      </trkpt>
      <trkpt lat="43.43855" lon="6.01945">
        <ele>273.60000610352</ele>
        <time>2016-11-16T14:20:32Z</time>
      </trkpt>
      <trkpt lat="43.43857" lon="6.01942">
        <ele>273</ele>
        <time>2016-11-16T14:20:34Z</time>
      </trkpt>
      <trkpt lat="43.43864" lon="6.01927">
        <ele>273.20001220703</ele>
        <time>2016-11-16T14:20:40Z</time>
      </trkpt>
      <trkpt lat="43.43865" lon="6.01913">
        <ele>273.39999389648</ele>
        <time>2016-11-16T14:20:44Z</time>
      </trkpt>
      <trkpt lat="43.43865" lon="6.01896">
        <ele>273.79998779297</ele>
        <time>2016-11-16T14:20:49Z</time>
      </trkpt>
      <trkpt lat="43.43865" lon="6.01886">
        <ele>273.79998779297</ele>
        <time>2016-11-16T14:20:52Z</time>
      </trkpt>
      <trkpt lat="43.43866" lon="6.01878">
        <ele>274</ele>
        <time>2016-11-16T14:20:54Z</time>
      </trkpt>
      <trkpt lat="43.4387" lon="6.01833">
        <ele>274.79998779297</ele>
        <time>2016-11-16T14:21:06Z</time>
      </trkpt>
      <trkpt lat="43.43871" lon="6.01813">
        <ele>275.39999389648</ele>
        <time>2016-11-16T14:21:12Z</time>
      </trkpt>
      <trkpt lat="43.43872" lon="6.01806">
        <ele>275.79998779297</ele>
        <time>2016-11-16T14:21:14Z</time>
      </trkpt>
      <trkpt lat="43.43874" lon="6.01796">
        <ele>276.39999389648</ele>
        <time>2016-11-16T14:21:17Z</time>
      </trkpt>
      <trkpt lat="43.43882" lon="6.01776">
        <ele>278</ele>
        <time>2016-11-16T14:21:24Z</time>
      </trkpt>
      <trkpt lat="43.43882" lon="6.01773">
        <ele>278.20001220703</ele>
        <time>2016-11-16T14:21:25Z</time>
      </trkpt>
      <trkpt lat="43.43885" lon="6.01758">
        <ele>279.20001220703</ele>
        <time>2016-11-16T14:21:30Z</time>
      </trkpt>
      <trkpt lat="43.43884" lon="6.01747">
        <ele>280.20001220703</ele>
        <time>2016-11-16T14:21:34Z</time>
      </trkpt>
      <trkpt lat="43.43882" lon="6.01739">
        <ele>280.20001220703</ele>
        <time>2016-11-16T14:21:37Z</time>
      </trkpt>
      <trkpt lat="43.43879" lon="6.01721">
        <ele>280.79998779297</ele>
        <time>2016-11-16T14:21:44Z</time>
      </trkpt>
      <trkpt lat="43.43877" lon="6.0171">
        <ele>281.39999389648</ele>
        <time>2016-11-16T14:21:48Z</time>
      </trkpt>
      <trkpt lat="43.43875" lon="6.01691">
        <ele>282.20001220703</ele>
        <time>2016-11-16T14:21:54Z</time>
      </trkpt>
      <trkpt lat="43.43875" lon="6.01676">
        <ele>282.39999389648</ele>
        <time>2016-11-16T14:21:58Z</time>
      </trkpt>
      <trkpt lat="43.43871" lon="6.01663">
        <ele>282.79998779297</ele>
        <time>2016-11-16T14:22:03Z</time>
      </trkpt>
      <trkpt lat="43.43869" lon="6.01663">
        <ele>282.79998779297</ele>
        <time>2016-11-16T14:22:04Z</time>
      </trkpt>
      <trkpt lat="43.43853" lon="6.01673">
        <ele>283.39999389648</ele>
        <time>2016-11-16T14:22:12Z</time>
      </trkpt>
      <trkpt lat="43.4385" lon="6.01675">
        <ele>283.60000610352</ele>
        <time>2016-11-16T14:22:14Z</time>
      </trkpt>
      <trkpt lat="43.43844" lon="6.01679">
        <ele>283.79998779297</ele>
        <time>2016-11-16T14:22:17Z</time>
      </trkpt>
      <trkpt lat="43.43829" lon="6.01687">
        <ele>284</ele>
        <time>2016-11-16T14:22:24Z</time>
      </trkpt>
      <trkpt lat="43.43805" lon="6.01698">
        <ele>284.39999389648</ele>
        <time>2016-11-16T14:22:33Z</time>
      </trkpt>
      <trkpt lat="43.43802" lon="6.01698">
        <ele>284.39999389648</ele>
        <time>2016-11-16T14:22:34Z</time>
      </trkpt>
      <trkpt lat="43.438" lon="6.01698">
        <ele>284.60000610352</ele>
        <time>2016-11-16T14:22:35Z</time>
      </trkpt>
      <trkpt lat="43.43779" lon="6.01698">
        <ele>285.39999389648</ele>
        <time>2016-11-16T14:22:44Z</time>
      </trkpt>
      <trkpt lat="43.43777" lon="6.01698">
        <ele>285.60000610352</ele>
        <time>2016-11-16T14:22:45Z</time>
      </trkpt>
      <trkpt lat="43.43763" lon="6.01693">
        <ele>286.79998779297</ele>
        <time>2016-11-16T14:22:52Z</time>
      </trkpt>
      <trkpt lat="43.4376" lon="6.01691">
        <ele>287</ele>
        <time>2016-11-16T14:22:54Z</time>
      </trkpt>
      <trkpt lat="43.43743" lon="6.01683">
        <ele>287.60000610352</ele>
        <time>2016-11-16T14:23:04Z</time>
      </trkpt>
      <trkpt lat="43.4374" lon="6.01683">
        <ele>287.79998779297</ele>
        <time>2016-11-16T14:23:07Z</time>
      </trkpt>
      <trkpt lat="43.43739" lon="6.01685">
        <ele>288</ele>
        <time>2016-11-16T14:23:13Z</time>
      </trkpt>
      <trkpt lat="43.43739" lon="6.01685">
        <ele>288</ele>
        <time>2016-11-16T14:23:14Z</time>
      </trkpt>
      <trkpt lat="43.43739" lon="6.01685">
        <ele>288.20001220703</ele>
        <time>2016-11-16T14:23:27Z</time>
      </trkpt>
      <trkpt lat="43.43739" lon="6.01685">
        <ele>288</ele>
        <time>2016-11-16T14:23:44Z</time>
      </trkpt>
      <trkpt lat="43.43739" lon="6.01685">
        <ele>288</ele>
        <time>2016-11-16T14:23:49Z</time>
      </trkpt>
      <trkpt lat="43.43739" lon="6.01685">
        <ele>288</ele>
        <time>2016-11-16T14:23:54Z</time>
      </trkpt>
      <trkpt lat="43.43739" lon="6.01685">
        <ele>288</ele>
        <time>2016-11-16T14:24:04Z</time>
      </trkpt>
      <trkpt lat="43.43738" lon="6.01685">
        <ele>288.20001220703</ele>
        <time>2016-11-16T14:24:11Z</time>
      </trkpt>
      <trkpt lat="43.43738" lon="6.01685">
        <ele>288.39999389648</ele>
        <time>2016-11-16T14:24:14Z</time>
      </trkpt>
      <trkpt lat="43.43738" lon="6.01685">
        <ele>288.20001220703</ele>
        <time>2016-11-16T14:24:20Z</time>
      </trkpt>
      <trkpt lat="43.43737" lon="6.01685">
        <ele>288.20001220703</ele>
        <time>2016-11-16T14:24:44Z</time>
      </trkpt>
      <trkpt lat="43.43737" lon="6.01685">
        <ele>288.20001220703</ele>
        <time>2016-11-16T14:24:54Z</time>
      </trkpt>
      <trkpt lat="43.43737" lon="6.01685">
        <ele>288.20001220703</ele>
        <time>2016-11-16T14:25:08Z</time>
      </trkpt>
      <trkpt lat="43.43737" lon="6.01685">
        <ele>288.20001220703</ele>
        <time>2016-11-16T14:25:24Z</time>
      </trkpt>
      <trkpt lat="43.43737" lon="6.01686">
        <ele>288.20001220703</ele>
        <time>2016-11-16T14:25:44Z</time>
      </trkpt>
      <trkpt lat="43.43737" lon="6.01685">
        <ele>288.20001220703</ele>
        <time>2016-11-16T14:26:04Z</time>
      </trkpt>
      <trkpt lat="43.43737" lon="6.01685">
        <ele>288.20001220703</ele>
        <time>2016-11-16T14:26:14Z</time>
      </trkpt>
      <trkpt lat="43.43736" lon="6.01685">
        <ele>288.20001220703</ele>
        <time>2016-11-16T14:26:23Z</time>
      </trkpt>
      <trkpt lat="43.43735" lon="6.01685">
        <ele>288.20001220703</ele>
        <time>2016-11-16T14:26:24Z</time>
      </trkpt>
      <trkpt lat="43.43732" lon="6.01683">
        <ele>288.39999389648</ele>
        <time>2016-11-16T14:26:26Z</time>
      </trkpt>
      <trkpt lat="43.43726" lon="6.0168">
        <ele>288.79998779297</ele>
        <time>2016-11-16T14:26:29Z</time>
      </trkpt>
      <trkpt lat="43.43724" lon="6.01679">
        <ele>289.20001220703</ele>
        <time>2016-11-16T14:26:30Z</time>
      </trkpt>
      <trkpt lat="43.43718" lon="6.01674">
        <ele>289.20001220703</ele>
        <time>2016-11-16T14:26:33Z</time>
      </trkpt>
      <trkpt lat="43.43716" lon="6.01673">
        <ele>289.39999389648</ele>
        <time>2016-11-16T14:26:34Z</time>
      </trkpt>
      <trkpt lat="43.43708" lon="6.01665">
        <ele>289.60000610352</ele>
        <time>2016-11-16T14:26:38Z</time>
      </trkpt>
      <trkpt lat="43.43695" lon="6.01652">
        <ele>290.20001220703</ele>
        <time>2016-11-16T14:26:44Z</time>
      </trkpt>
      <trkpt lat="43.4369" lon="6.0165">
        <ele>290.39999389648</ele>
        <time>2016-11-16T14:26:46Z</time>
      </trkpt>
      <trkpt lat="43.43681" lon="6.01647">
        <ele>290.79998779297</ele>
        <time>2016-11-16T14:26:50Z</time>
      </trkpt>
      <trkpt lat="43.4367" lon="6.01643">
        <ele>291.39999389648</ele>
        <time>2016-11-16T14:26:54Z</time>
      </trkpt>
      <trkpt lat="43.43668" lon="6.01641">
        <ele>291.60000610352</ele>
        <time>2016-11-16T14:26:55Z</time>
      </trkpt>
      <trkpt lat="43.43657" lon="6.01638">
        <ele>292.39999389648</ele>
        <time>2016-11-16T14:26:59Z</time>
      </trkpt>
      <trkpt lat="43.43653" lon="6.01635">
        <ele>292.60000610352</ele>
        <time>2016-11-16T14:27:01Z</time>
      </trkpt>
      <trkpt lat="43.43647" lon="6.01628">
        <ele>292.60000610352</ele>
        <time>2016-11-16T14:27:04Z</time>
      </trkpt>
      <trkpt lat="43.43623" lon="6.01583">
        <ele>293.79998779297</ele>
        <time>2016-11-16T14:27:20Z</time>
      </trkpt>
      <trkpt lat="43.43615" lon="6.01575">
        <ele>294</ele>
        <time>2016-11-16T14:27:24Z</time>
      </trkpt>
      <trkpt lat="43.43596" lon="6.01559">
        <ele>294.79998779297</ele>
        <time>2016-11-16T14:27:34Z</time>
      </trkpt>
      <trkpt lat="43.43587" lon="6.01554">
        <ele>296</ele>
        <time>2016-11-16T14:27:39Z</time>
      </trkpt>
      <trkpt lat="43.43578" lon="6.01551">
        <ele>296.39999389648</ele>
        <time>2016-11-16T14:27:44Z</time>
      </trkpt>
      <trkpt lat="43.43573" lon="6.01549">
        <ele>297</ele>
        <time>2016-11-16T14:27:47Z</time>
      </trkpt>
      <trkpt lat="43.43554" lon="6.01546">
        <ele>298</ele>
        <time>2016-11-16T14:27:56Z</time>
      </trkpt>
      <trkpt lat="43.43538" lon="6.01542">
        <ele>298.79998779297</ele>
        <time>2016-11-16T14:28:04Z</time>
      </trkpt>
      <trkpt lat="43.43533" lon="6.01541">
        <ele>299.20001220703</ele>
        <time>2016-11-16T14:28:06Z</time>
      </trkpt>
      <trkpt lat="43.43525" lon="6.01538">
        <ele>299.39999389648</ele>
        <time>2016-11-16T14:28:10Z</time>
      </trkpt>
      <trkpt lat="43.43517" lon="6.01534">
        <ele>299.60000610352</ele>
        <time>2016-11-16T14:28:14Z</time>
      </trkpt>
      <trkpt lat="43.43503" lon="6.01529">
        <ele>300.39999389648</ele>
        <time>2016-11-16T14:28:21Z</time>
      </trkpt>
      <trkpt lat="43.43499" lon="6.01532">
        <ele>301</ele>
        <time>2016-11-16T14:28:24Z</time>
      </trkpt>
      <trkpt lat="43.43486" lon="6.01534">
        <ele>301.39999389648</ele>
        <time>2016-11-16T14:28:31Z</time>
      </trkpt>
      <trkpt lat="43.43484" lon="6.01534">
        <ele>301.60000610352</ele>
        <time>2016-11-16T14:28:32Z</time>
      </trkpt>
      <trkpt lat="43.43481" lon="6.01532">
        <ele>302</ele>
        <time>2016-11-16T14:28:34Z</time>
      </trkpt>
      <trkpt lat="43.43475" lon="6.01531">
        <ele>302.60000610352</ele>
        <time>2016-11-16T14:28:37Z</time>
      </trkpt>
      <trkpt lat="43.43461" lon="6.01529">
        <ele>302.79998779297</ele>
        <time>2016-11-16T14:28:44Z</time>
      </trkpt>
      <trkpt lat="43.43453" lon="6.01525">
        <ele>303.79998779297</ele>
        <time>2016-11-16T14:28:49Z</time>
      </trkpt>
      <trkpt lat="43.43449" lon="6.01523">
        <ele>304.20001220703</ele>
        <time>2016-11-16T14:28:52Z</time>
      </trkpt>
      <trkpt lat="43.43447" lon="6.01522">
        <ele>304.39999389648</ele>
        <time>2016-11-16T14:28:54Z</time>
      </trkpt>
      <trkpt lat="43.43446" lon="6.0152">
        <ele>304.39999389648</ele>
        <time>2016-11-16T14:28:56Z</time>
      </trkpt>
      <trkpt lat="43.43443" lon="6.01511">
        <ele>304.79998779297</ele>
        <time>2016-11-16T14:29:01Z</time>
      </trkpt>
      <trkpt lat="43.43441" lon="6.01505">
        <ele>305</ele>
        <time>2016-11-16T14:29:04Z</time>
      </trkpt>
      <trkpt lat="43.43438" lon="6.01483">
        <ele>305.60000610352</ele>
        <time>2016-11-16T14:29:14Z</time>
      </trkpt>
      <trkpt lat="43.43431" lon="6.01462">
        <ele>306.79998779297</ele>
        <time>2016-11-16T14:29:24Z</time>
      </trkpt>
      <trkpt lat="43.43432" lon="6.01456">
        <ele>307</ele>
        <time>2016-11-16T14:29:26Z</time>
      </trkpt>
      <trkpt lat="43.43432" lon="6.01436">
        <ele>308.20001220703</ele>
        <time>2016-11-16T14:29:34Z</time>
      </trkpt>
      <trkpt lat="43.43431" lon="6.01417">
        <ele>309</ele>
        <time>2016-11-16T14:29:44Z</time>
      </trkpt>
      <trkpt lat="43.43431" lon="6.01413">
        <ele>309.20001220703</ele>
        <time>2016-11-16T14:29:46Z</time>
      </trkpt>
      <trkpt lat="43.4343" lon="6.01397">
        <ele>310.20001220703</ele>
        <time>2016-11-16T14:29:54Z</time>
      </trkpt>
      <trkpt lat="43.4343" lon="6.01395">
        <ele>310.20001220703</ele>
        <time>2016-11-16T14:29:55Z</time>
      </trkpt>
      <trkpt lat="43.43427" lon="6.01373">
        <ele>311</ele>
        <time>2016-11-16T14:30:04Z</time>
      </trkpt>
      <trkpt lat="43.43425" lon="6.0136">
        <ele>311.20001220703</ele>
        <time>2016-11-16T14:30:09Z</time>
      </trkpt>
      <trkpt lat="43.43422" lon="6.01346">
        <ele>312</ele>
        <time>2016-11-16T14:30:16Z</time>
      </trkpt>
      <trkpt lat="43.43422" lon="6.01342">
        <ele>312.39999389648</ele>
        <time>2016-11-16T14:30:18Z</time>
      </trkpt>
      <trkpt lat="43.43426" lon="6.01335">
        <ele>313.39999389648</ele>
        <time>2016-11-16T14:30:23Z</time>
      </trkpt>
      <trkpt lat="43.43427" lon="6.01335">
        <ele>313.60000610352</ele>
        <time>2016-11-16T14:30:24Z</time>
      </trkpt>
      <trkpt lat="43.43435" lon="6.01326">
        <ele>314.39999389648</ele>
        <time>2016-11-16T14:30:31Z</time>
      </trkpt>
      <trkpt lat="43.43439" lon="6.01324">
        <ele>315.60000610352</ele>
        <time>2016-11-16T14:30:34Z</time>
      </trkpt>
      <trkpt lat="43.43441" lon="6.01321">
        <ele>316</ele>
        <time>2016-11-16T14:30:36Z</time>
      </trkpt>
      <trkpt lat="43.43443" lon="6.01314">
        <ele>316.60000610352</ele>
        <time>2016-11-16T14:30:40Z</time>
      </trkpt>
      <trkpt lat="43.43445" lon="6.01307">
        <ele>317</ele>
        <time>2016-11-16T14:30:44Z</time>
      </trkpt>
      <trkpt lat="43.43451" lon="6.01294">
        <ele>317.79998779297</ele>
        <time>2016-11-16T14:30:53Z</time>
      </trkpt>
      <trkpt lat="43.43452" lon="6.01293">
        <ele>318</ele>
        <time>2016-11-16T14:30:54Z</time>
      </trkpt>
      <trkpt lat="43.43454" lon="6.01285">
        <ele>319</ele>
        <time>2016-11-16T14:30:58Z</time>
      </trkpt>
      <trkpt lat="43.43454" lon="6.01274">
        <ele>320</ele>
        <time>2016-11-16T14:31:04Z</time>
      </trkpt>
      <trkpt lat="43.43456" lon="6.01264">
        <ele>321.20001220703</ele>
        <time>2016-11-16T14:31:10Z</time>
      </trkpt>
      <trkpt lat="43.43458" lon="6.01257">
        <ele>321.79998779297</ele>
        <time>2016-11-16T14:31:14Z</time>
      </trkpt>
      <trkpt lat="43.43466" lon="6.01248">
        <ele>322.20001220703</ele>
        <time>2016-11-16T14:31:21Z</time>
      </trkpt>
      <trkpt lat="43.43469" lon="6.01243">
        <ele>322.20001220703</ele>
        <time>2016-11-16T14:31:24Z</time>
      </trkpt>
      <trkpt lat="43.43474" lon="6.01234">
        <ele>322.79998779297</ele>
        <time>2016-11-16T14:31:30Z</time>
      </trkpt>
      <trkpt lat="43.43475" lon="6.01224">
        <ele>323.20001220703</ele>
        <time>2016-11-16T14:31:35Z</time>
      </trkpt>
      <trkpt lat="43.43474" lon="6.01206">
        <ele>324</ele>
        <time>2016-11-16T14:31:44Z</time>
      </trkpt>
      <trkpt lat="43.43474" lon="6.01202">
        <ele>324.20001220703</ele>
        <time>2016-11-16T14:31:46Z</time>
      </trkpt>
      <trkpt lat="43.43475" lon="6.01184">
        <ele>324.60000610352</ele>
        <time>2016-11-16T14:31:54Z</time>
      </trkpt>
      <trkpt lat="43.43474" lon="6.01174">
        <ele>325.39999389648</ele>
        <time>2016-11-16T14:31:59Z</time>
      </trkpt>
      <trkpt lat="43.43471" lon="6.01159">
        <ele>326.39999389648</ele>
        <time>2016-11-16T14:32:06Z</time>
      </trkpt>
      <trkpt lat="43.43474" lon="6.01143">
        <ele>326.79998779297</ele>
        <time>2016-11-16T14:32:14Z</time>
      </trkpt>
      <trkpt lat="43.4348" lon="6.01133">
        <ele>327.60000610352</ele>
        <time>2016-11-16T14:32:20Z</time>
      </trkpt>
      <trkpt lat="43.43483" lon="6.01126">
        <ele>327.79998779297</ele>
        <time>2016-11-16T14:32:24Z</time>
      </trkpt>
      <trkpt lat="43.43489" lon="6.0111">
        <ele>328.60000610352</ele>
        <time>2016-11-16T14:32:32Z</time>
      </trkpt>
      <trkpt lat="43.43495" lon="6.01093">
        <ele>329.60000610352</ele>
        <time>2016-11-16T14:32:40Z</time>
      </trkpt>
      <trkpt lat="43.43497" lon="6.01083">
        <ele>330</ele>
        <time>2016-11-16T14:32:44Z</time>
      </trkpt>
      <trkpt lat="43.43495" lon="6.01066">
        <ele>330.20001220703</ele>
        <time>2016-11-16T14:32:52Z</time>
      </trkpt>
      <trkpt lat="43.43494" lon="6.01062">
        <ele>330.39999389648</ele>
        <time>2016-11-16T14:32:54Z</time>
      </trkpt>
      <trkpt lat="43.43491" lon="6.0104">
        <ele>331.20001220703</ele>
        <time>2016-11-16T14:33:04Z</time>
      </trkpt>
      <trkpt lat="43.43491" lon="6.01028">
        <ele>331.79998779297</ele>
        <time>2016-11-16T14:33:10Z</time>
      </trkpt>
      <trkpt lat="43.43491" lon="6.01013">
        <ele>332.79998779297</ele>
        <time>2016-11-16T14:33:17Z</time>
      </trkpt>
      <trkpt lat="43.43491" lon="6.01003">
        <ele>333.60000610352</ele>
        <time>2016-11-16T14:33:22Z</time>
      </trkpt>
      <trkpt lat="43.43492" lon="6.00999">
        <ele>333.79998779297</ele>
        <time>2016-11-16T14:33:24Z</time>
      </trkpt>
      <trkpt lat="43.43494" lon="6.00987">
        <ele>335</ele>
        <time>2016-11-16T14:33:29Z</time>
      </trkpt>
      <trkpt lat="43.43496" lon="6.0098">
        <ele>336</ele>
        <time>2016-11-16T14:33:32Z</time>
      </trkpt>
      <trkpt lat="43.43497" lon="6.00971">
        <ele>337.20001220703</ele>
        <time>2016-11-16T14:33:36Z</time>
      </trkpt>
      <trkpt lat="43.43499" lon="6.00962">
        <ele>338</ele>
        <time>2016-11-16T14:33:40Z</time>
      </trkpt>
      <trkpt lat="43.43499" lon="6.0096">
        <ele>338.20001220703</ele>
        <time>2016-11-16T14:33:41Z</time>
      </trkpt>
      <trkpt lat="43.435" lon="6.00956">
        <ele>338.60000610352</ele>
        <time>2016-11-16T14:33:43Z</time>
      </trkpt>
      <trkpt lat="43.43502" lon="6.00947">
        <ele>339.20001220703</ele>
        <time>2016-11-16T14:33:47Z</time>
      </trkpt>
      <trkpt lat="43.43508" lon="6.00917">
        <ele>341</ele>
        <time>2016-11-16T14:34:04Z</time>
      </trkpt>
      <trkpt lat="43.43509" lon="6.00907">
        <ele>341.60000610352</ele>
        <time>2016-11-16T14:34:10Z</time>
      </trkpt>
      <trkpt lat="43.4351" lon="6.009">
        <ele>342.39999389648</ele>
        <time>2016-11-16T14:34:14Z</time>
      </trkpt>
      <trkpt lat="43.43512" lon="6.00895">
        <ele>342.79998779297</ele>
        <time>2016-11-16T14:34:17Z</time>
      </trkpt>
      <trkpt lat="43.43515" lon="6.00882">
        <ele>343.60000610352</ele>
        <time>2016-11-16T14:34:24Z</time>
      </trkpt>
      <trkpt lat="43.4352" lon="6.00862">
        <ele>345</ele>
        <time>2016-11-16T14:34:35Z</time>
      </trkpt>
      <trkpt lat="43.43523" lon="6.00849">
        <ele>346</ele>
        <time>2016-11-16T14:34:43Z</time>
      </trkpt>
      <trkpt lat="43.43523" lon="6.00847">
        <ele>346</ele>
        <time>2016-11-16T14:34:44Z</time>
      </trkpt>
      <trkpt lat="43.43525" lon="6.00833">
        <ele>346.60000610352</ele>
        <time>2016-11-16T14:34:52Z</time>
      </trkpt>
      <trkpt lat="43.43525" lon="6.00829">
        <ele>346.79998779297</ele>
        <time>2016-11-16T14:34:54Z</time>
      </trkpt>
      <trkpt lat="43.43525" lon="6.00828">
        <ele>347</ele>
        <time>2016-11-16T14:34:55Z</time>
      </trkpt>
      <trkpt lat="43.43526" lon="6.00821">
        <ele>347.60000610352</ele>
        <time>2016-11-16T14:35:01Z</time>
      </trkpt>
      <trkpt lat="43.43526" lon="6.00821">
        <ele>348</ele>
        <time>2016-11-16T14:35:04Z</time>
      </trkpt>
      <trkpt lat="43.43526" lon="6.00821">
        <ele>348.20001220703</ele>
        <time>2016-11-16T14:35:07Z</time>
      </trkpt>
      <trkpt lat="43.43526" lon="6.00821">
        <ele>348</ele>
        <time>2016-11-16T14:35:14Z</time>
      </trkpt>
      <trkpt lat="43.43526" lon="6.00821">
        <ele>348.20001220703</ele>
        <time>2016-11-16T14:35:18Z</time>
      </trkpt>
      <trkpt lat="43.43526" lon="6.00821">
        <ele>348.20001220703</ele>
        <time>2016-11-16T14:35:21Z</time>
      </trkpt>
      <trkpt lat="43.43526" lon="6.00821">
        <ele>348</ele>
        <time>2016-11-16T14:35:24Z</time>
      </trkpt>
      <trkpt lat="43.43526" lon="6.00821">
        <ele>348</ele>
        <time>2016-11-16T14:35:27Z</time>
      </trkpt>
      <trkpt lat="43.43526" lon="6.00821">
        <ele>348</ele>
        <time>2016-11-16T14:35:38Z</time>
      </trkpt>
      <trkpt lat="43.43526" lon="6.00821">
        <ele>348.20001220703</ele>
        <time>2016-11-16T14:35:44Z</time>
      </trkpt>
      <trkpt lat="43.43526" lon="6.00821">
        <ele>348</ele>
        <time>2016-11-16T14:35:48Z</time>
      </trkpt>
      <trkpt lat="43.43526" lon="6.00821">
        <ele>347.79998779297</ele>
        <time>2016-11-16T14:35:53Z</time>
      </trkpt>
      <trkpt lat="43.43526" lon="6.00821">
        <ele>347.79998779297</ele>
        <time>2016-11-16T14:36:04Z</time>
      </trkpt>
      <trkpt lat="43.43527" lon="6.00821">
        <ele>348</ele>
        <time>2016-11-16T14:36:24Z</time>
      </trkpt>
      <trkpt lat="43.43528" lon="6.00821">
        <ele>348.20001220703</ele>
        <time>2016-11-16T14:36:28Z</time>
      </trkpt>
      <trkpt lat="43.43528" lon="6.00821">
        <ele>348.39999389648</ele>
        <time>2016-11-16T14:36:34Z</time>
      </trkpt>
      <trkpt lat="43.43528" lon="6.00821">
        <ele>348.39999389648</ele>
        <time>2016-11-16T14:36:39Z</time>
      </trkpt>
      <trkpt lat="43.43529" lon="6.00821">
        <ele>348.39999389648</ele>
        <time>2016-11-16T14:36:44Z</time>
      </trkpt>
      <trkpt lat="43.43529" lon="6.00821">
        <ele>348.39999389648</ele>
        <time>2016-11-16T14:36:54Z</time>
      </trkpt>
      <trkpt lat="43.4353" lon="6.00821">
        <ele>348.39999389648</ele>
        <time>2016-11-16T14:36:58Z</time>
      </trkpt>
      <trkpt lat="43.4353" lon="6.00821">
        <ele>348.39999389648</ele>
        <time>2016-11-16T14:37:04Z</time>
      </trkpt>
      <trkpt lat="43.4353" lon="6.00821">
        <ele>348.39999389648</ele>
        <time>2016-11-16T14:37:20Z</time>
      </trkpt>
      <trkpt lat="43.4353" lon="6.00822">
        <ele>348.20001220703</ele>
        <time>2016-11-16T14:37:24Z</time>
      </trkpt>
      <trkpt lat="43.4353" lon="6.00822">
        <ele>348.39999389648</ele>
        <time>2016-11-16T14:37:44Z</time>
      </trkpt>
      <trkpt lat="43.4353" lon="6.00822">
        <ele>348.39999389648</ele>
        <time>2016-11-16T14:38:04Z</time>
      </trkpt>
      <trkpt lat="43.43529" lon="6.00822">
        <ele>348</ele>
        <time>2016-11-16T14:38:14Z</time>
      </trkpt>
      <trkpt lat="43.43529" lon="6.00822">
        <ele>348</ele>
        <time>2016-11-16T14:38:24Z</time>
      </trkpt>
      <trkpt lat="43.43529" lon="6.00822">
        <ele>348</ele>
        <time>2016-11-16T14:38:34Z</time>
      </trkpt>
      <trkpt lat="43.43529" lon="6.00822">
        <ele>348</ele>
        <time>2016-11-16T14:38:44Z</time>
      </trkpt>
      <trkpt lat="43.43528" lon="6.00825">
        <ele>348</ele>
        <time>2016-11-16T14:38:54Z</time>
      </trkpt>
      <trkpt lat="43.43527" lon="6.0083">
        <ele>347.60000610352</ele>
        <time>2016-11-16T14:38:57Z</time>
      </trkpt>
      <trkpt lat="43.43526" lon="6.00833">
        <ele>346.79998779297</ele>
        <time>2016-11-16T14:38:58Z</time>
      </trkpt>
      <trkpt lat="43.43521" lon="6.00857">
        <ele>346.20001220703</ele>
        <time>2016-11-16T14:39:04Z</time>
      </trkpt>
      <trkpt lat="43.43519" lon="6.00865">
        <ele>345.60000610352</ele>
        <time>2016-11-16T14:39:06Z</time>
      </trkpt>
      <trkpt lat="43.43513" lon="6.00883">
        <ele>344.60000610352</ele>
        <time>2016-11-16T14:39:14Z</time>
      </trkpt>
      <trkpt lat="43.43513" lon="6.00885">
        <ele>344.39999389648</ele>
        <time>2016-11-16T14:39:15Z</time>
      </trkpt>
      <trkpt lat="43.43513" lon="6.00887">
        <ele>343.79998779297</ele>
        <time>2016-11-16T14:39:24Z</time>
      </trkpt>
      <trkpt lat="43.43514" lon="6.00887">
        <ele>343.79998779297</ele>
        <time>2016-11-16T14:39:34Z</time>
      </trkpt>
      <trkpt lat="43.43515" lon="6.00887">
        <ele>344</ele>
        <time>2016-11-16T14:39:44Z</time>
      </trkpt>
      <trkpt lat="43.43516" lon="6.00883">
        <ele>343.79998779297</ele>
        <time>2016-11-16T14:39:50Z</time>
      </trkpt>
      <trkpt lat="43.43517" lon="6.00881">
        <ele>343.79998779297</ele>
        <time>2016-11-16T14:39:51Z</time>
      </trkpt>
      <trkpt lat="43.43518" lon="6.00874">
        <ele>344.20001220703</ele>
        <time>2016-11-16T14:39:54Z</time>
      </trkpt>
      <trkpt lat="43.43521" lon="6.00857">
        <ele>345</ele>
        <time>2016-11-16T14:40:00Z</time>
      </trkpt>
      <trkpt lat="43.43523" lon="6.00851">
        <ele>345.39999389648</ele>
        <time>2016-11-16T14:40:02Z</time>
      </trkpt>
      <trkpt lat="43.43524" lon="6.00844">
        <ele>345.39999389648</ele>
        <time>2016-11-16T14:40:04Z</time>
      </trkpt>
      <trkpt lat="43.43525" lon="6.00839">
        <ele>345.79998779297</ele>
        <time>2016-11-16T14:40:06Z</time>
      </trkpt>
      <trkpt lat="43.43526" lon="6.00831">
        <ele>346.60000610352</ele>
        <time>2016-11-16T14:40:09Z</time>
      </trkpt>
      <trkpt lat="43.43527" lon="6.00823">
        <ele>347.39999389648</ele>
        <time>2016-11-16T14:40:13Z</time>
      </trkpt>
      <trkpt lat="43.43527" lon="6.00821">
        <ele>347.60000610352</ele>
        <time>2016-11-16T14:40:14Z</time>
      </trkpt>
      <trkpt lat="43.43527" lon="6.00821">
        <ele>347.60000610352</ele>
        <time>2016-11-16T14:40:15Z</time>
      </trkpt>
      <trkpt lat="43.43528" lon="6.00821">
        <ele>347.60000610352</ele>
        <time>2016-11-16T14:40:20Z</time>
      </trkpt>
      <trkpt lat="43.43528" lon="6.0082">
        <ele>347.60000610352</ele>
        <time>2016-11-16T14:40:24Z</time>
      </trkpt>
      <trkpt lat="43.43528" lon="6.0082">
        <ele>347.60000610352</ele>
        <time>2016-11-16T14:40:34Z</time>
      </trkpt>
      <trkpt lat="43.43528" lon="6.00819">
        <ele>347.79998779297</ele>
        <time>2016-11-16T14:40:40Z</time>
      </trkpt>
      <trkpt lat="43.4353" lon="6.00817">
        <ele>347.60000610352</ele>
        <time>2016-11-16T14:40:43Z</time>
      </trkpt>
      <trkpt lat="43.4353" lon="6.00815">
        <ele>347.60000610352</ele>
        <time>2016-11-16T14:40:44Z</time>
      </trkpt>
      <trkpt lat="43.43531" lon="6.00813">
        <ele>347.39999389648</ele>
        <time>2016-11-16T14:40:47Z</time>
      </trkpt>
      <trkpt lat="43.43532" lon="6.00812">
        <ele>347.60000610352</ele>
        <time>2016-11-16T14:40:52Z</time>
      </trkpt>
      <trkpt lat="43.43532" lon="6.00812">
        <ele>347.60000610352</ele>
        <time>2016-11-16T14:40:54Z</time>
      </trkpt>
      <trkpt lat="43.43532" lon="6.00812">
        <ele>347.79998779297</ele>
        <time>2016-11-16T14:41:04Z</time>
      </trkpt>
      <trkpt lat="43.43534" lon="6.00807">
        <ele>347.60000610352</ele>
        <time>2016-11-16T14:41:14Z</time>
      </trkpt>
      <trkpt lat="43.43534" lon="6.00802">
        <ele>347.60000610352</ele>
        <time>2016-11-16T14:41:16Z</time>
      </trkpt>
      <trkpt lat="43.43546" lon="6.00757">
        <ele>346.60000610352</ele>
        <time>2016-11-16T14:41:28Z</time>
      </trkpt>
      <trkpt lat="43.43557" lon="6.00729">
        <ele>345.39999389648</ele>
        <time>2016-11-16T14:41:33Z</time>
      </trkpt>
      <trkpt lat="43.4356" lon="6.00722">
        <ele>344.79998779297</ele>
        <time>2016-11-16T14:41:34Z</time>
      </trkpt>
      <trkpt lat="43.43564" lon="6.00714">
        <ele>344.39999389648</ele>
        <time>2016-11-16T14:41:35Z</time>
      </trkpt>
      <trkpt lat="43.43571" lon="6.00698">
        <ele>343.20001220703</ele>
        <time>2016-11-16T14:41:37Z</time>
      </trkpt>
      <trkpt lat="43.43578" lon="6.00677">
        <ele>340.20001220703</ele>
        <time>2016-11-16T14:41:40Z</time>
      </trkpt>
      <trkpt lat="43.43578" lon="6.0067">
        <ele>339.60000610352</ele>
        <time>2016-11-16T14:41:41Z</time>
      </trkpt>
      <trkpt lat="43.43576" lon="6.00663">
        <ele>339</ele>
        <time>2016-11-16T14:41:42Z</time>
      </trkpt>
      <trkpt lat="43.43574" lon="6.00656">
        <ele>338.39999389648</ele>
        <time>2016-11-16T14:41:43Z</time>
      </trkpt>
      <trkpt lat="43.4357" lon="6.00651">
        <ele>337.60000610352</ele>
        <time>2016-11-16T14:41:44Z</time>
      </trkpt>
      <trkpt lat="43.43561" lon="6.00641">
        <ele>336.60000610352</ele>
        <time>2016-11-16T14:41:46Z</time>
      </trkpt>
      <trkpt lat="43.43555" lon="6.00634">
        <ele>335.20001220703</ele>
        <time>2016-11-16T14:41:48Z</time>
      </trkpt>
      <trkpt lat="43.43554" lon="6.00631">
        <ele>334.79998779297</ele>
        <time>2016-11-16T14:41:49Z</time>
      </trkpt>
      <trkpt lat="43.43554" lon="6.00623">
        <ele>334</ele>
        <time>2016-11-16T14:41:52Z</time>
      </trkpt>
      <trkpt lat="43.43554" lon="6.00614">
        <ele>333.79998779297</ele>
        <time>2016-11-16T14:41:54Z</time>
      </trkpt>
      <trkpt lat="43.4356" lon="6.00596">
        <ele>332.79998779297</ele>
        <time>2016-11-16T14:41:58Z</time>
      </trkpt>
      <trkpt lat="43.43567" lon="6.00587">
        <ele>331.79998779297</ele>
        <time>2016-11-16T14:42:00Z</time>
      </trkpt>
      <trkpt lat="43.43572" lon="6.00574">
        <ele>331.20001220703</ele>
        <time>2016-11-16T14:42:02Z</time>
      </trkpt>
      <trkpt lat="43.43574" lon="6.00567">
        <ele>331</ele>
        <time>2016-11-16T14:42:03Z</time>
      </trkpt>
      <trkpt lat="43.43577" lon="6.0056">
        <ele>330.60000610352</ele>
        <time>2016-11-16T14:42:04Z</time>
      </trkpt>
      <trkpt lat="43.4359" lon="6.00541">
        <ele>329.39999389648</ele>
        <time>2016-11-16T14:42:07Z</time>
      </trkpt>
      <trkpt lat="43.436" lon="6.00527">
        <ele>328.79998779297</ele>
        <time>2016-11-16T14:42:09Z</time>
      </trkpt>
      <trkpt lat="43.43609" lon="6.0051">
        <ele>327.79998779297</ele>
        <time>2016-11-16T14:42:11Z</time>
      </trkpt>
      <trkpt lat="43.43615" lon="6.0049">
        <ele>326.20001220703</ele>
        <time>2016-11-16T14:42:13Z</time>
      </trkpt>
      <trkpt lat="43.43616" lon="6.0048">
        <ele>325.60000610352</ele>
        <time>2016-11-16T14:42:14Z</time>
      </trkpt>
      <trkpt lat="43.43618" lon="6.0047">
        <ele>325</ele>
        <time>2016-11-16T14:42:15Z</time>
      </trkpt>
      <trkpt lat="43.43618" lon="6.00425">
        <ele>323.79998779297</ele>
        <time>2016-11-16T14:42:20Z</time>
      </trkpt>
      <trkpt lat="43.43613" lon="6.0041">
        <ele>323</ele>
        <time>2016-11-16T14:42:22Z</time>
      </trkpt>
      <trkpt lat="43.43608" lon="6.00395">
        <ele>322</ele>
        <time>2016-11-16T14:42:24Z</time>
      </trkpt>
      <trkpt lat="43.43607" lon="6.00387">
        <ele>321.39999389648</ele>
        <time>2016-11-16T14:42:25Z</time>
      </trkpt>
      <trkpt lat="43.43606" lon="6.00379">
        <ele>321</ele>
        <time>2016-11-16T14:42:26Z</time>
      </trkpt>
      <trkpt lat="43.43607" lon="6.00363">
        <ele>320.20001220703</ele>
        <time>2016-11-16T14:42:28Z</time>
      </trkpt>
      <trkpt lat="43.43612" lon="6.00347">
        <ele>319.79998779297</ele>
        <time>2016-11-16T14:42:30Z</time>
      </trkpt>
      <trkpt lat="43.43619" lon="6.00333">
        <ele>319.20001220703</ele>
        <time>2016-11-16T14:42:32Z</time>
      </trkpt>
      <trkpt lat="43.43628" lon="6.0032">
        <ele>318.79998779297</ele>
        <time>2016-11-16T14:42:34Z</time>
      </trkpt>
      <trkpt lat="43.43632" lon="6.00315">
        <ele>318.60000610352</ele>
        <time>2016-11-16T14:42:35Z</time>
      </trkpt>
      <trkpt lat="43.43642" lon="6.00303">
        <ele>318</ele>
        <time>2016-11-16T14:42:37Z</time>
      </trkpt>
      <trkpt lat="43.43652" lon="6.0029">
        <ele>317.20001220703</ele>
        <time>2016-11-16T14:42:39Z</time>
      </trkpt>
      <trkpt lat="43.43655" lon="6.00283">
        <ele>316.39999389648</ele>
        <time>2016-11-16T14:42:40Z</time>
      </trkpt>
      <trkpt lat="43.43664" lon="6.0027">
        <ele>315.39999389648</ele>
        <time>2016-11-16T14:42:44Z</time>
      </trkpt>
      <trkpt lat="43.43666" lon="6.00266">
        <ele>315.39999389648</ele>
        <time>2016-11-16T14:42:45Z</time>
      </trkpt>
      <trkpt lat="43.43676" lon="6.00255">
        <ele>314.79998779297</ele>
        <time>2016-11-16T14:42:50Z</time>
      </trkpt>
      <trkpt lat="43.43676" lon="6.00254">
        <ele>315</ele>
        <time>2016-11-16T14:42:54Z</time>
      </trkpt>
      <trkpt lat="43.43677" lon="6.00253">
        <ele>314.79998779297</ele>
        <time>2016-11-16T14:43:04Z</time>
      </trkpt>
      <trkpt lat="43.43674" lon="6.00252">
        <ele>315</ele>
        <time>2016-11-16T14:43:14Z</time>
      </trkpt>
      <trkpt lat="43.43672" lon="6.00251">
        <ele>315.39999389648</ele>
        <time>2016-11-16T14:43:23Z</time>
      </trkpt>
      <trkpt lat="43.43672" lon="6.00251">
        <ele>315.39999389648</ele>
        <time>2016-11-16T14:43:24Z</time>
      </trkpt>
      <trkpt lat="43.43672" lon="6.0025">
        <ele>314.79998779297</ele>
        <time>2016-11-16T14:43:34Z</time>
      </trkpt>
      <trkpt lat="43.43672" lon="6.00249">
        <ele>314.79998779297</ele>
        <time>2016-11-16T14:43:39Z</time>
      </trkpt>
      <trkpt lat="43.43672" lon="6.00249">
        <ele>314.79998779297</ele>
        <time>2016-11-16T14:43:41Z</time>
      </trkpt>
      <trkpt lat="43.43671" lon="6.00247">
        <ele>314.79998779297</ele>
        <time>2016-11-16T14:43:43Z</time>
      </trkpt>
      <trkpt lat="43.4367" lon="6.00246">
        <ele>314.79998779297</ele>
        <time>2016-11-16T14:43:44Z</time>
      </trkpt>
      <trkpt lat="43.43667" lon="6.00243">
        <ele>314.79998779297</ele>
        <time>2016-11-16T14:43:46Z</time>
      </trkpt>
      <trkpt lat="43.43655" lon="6.00228">
        <ele>315.20001220703</ele>
        <time>2016-11-16T14:43:54Z</time>
      </trkpt>
      <trkpt lat="43.43649" lon="6.00222">
        <ele>315.60000610352</ele>
        <time>2016-11-16T14:43:57Z</time>
      </trkpt>
      <trkpt lat="43.43633" lon="6.00214">
        <ele>316.20001220703</ele>
        <time>2016-11-16T14:44:04Z</time>
      </trkpt>
      <trkpt lat="43.43628" lon="6.00213">
        <ele>316.39999389648</ele>
        <time>2016-11-16T14:44:06Z</time>
      </trkpt>
      <trkpt lat="43.43623" lon="6.0021">
        <ele>316.79998779297</ele>
        <time>2016-11-16T14:44:09Z</time>
      </trkpt>
      <trkpt lat="43.43618" lon="6.00208">
        <ele>317</ele>
        <time>2016-11-16T14:44:14Z</time>
      </trkpt>
      <trkpt lat="43.43614" lon="6.00206">
        <ele>317.39999389648</ele>
        <time>2016-11-16T14:44:17Z</time>
      </trkpt>
      <trkpt lat="43.43603" lon="6.00202">
        <ele>318.20001220703</ele>
        <time>2016-11-16T14:44:24Z</time>
      </trkpt>
      <trkpt lat="43.436" lon="6.00202">
        <ele>318.39999389648</ele>
        <time>2016-11-16T14:44:28Z</time>
      </trkpt>
      <trkpt lat="43.43599" lon="6.00201">
        <ele>318.39999389648</ele>
        <time>2016-11-16T14:44:34Z</time>
      </trkpt>
      <trkpt lat="43.43598" lon="6.00199">
        <ele>318.20001220703</ele>
        <time>2016-11-16T14:44:44Z</time>
      </trkpt>
      <trkpt lat="43.43592" lon="6.00199">
        <ele>318.60000610352</ele>
        <time>2016-11-16T14:44:54Z</time>
      </trkpt>
      <trkpt lat="43.43592" lon="6.00199">
        <ele>318.79998779297</ele>
        <time>2016-11-16T14:44:58Z</time>
      </trkpt>
      <trkpt lat="43.4359" lon="6.00198">
        <ele>319</ele>
        <time>2016-11-16T14:45:04Z</time>
      </trkpt>
      <trkpt lat="43.43587" lon="6.00197">
        <ele>319.39999389648</ele>
        <time>2016-11-16T14:45:08Z</time>
      </trkpt>
      <trkpt lat="43.43584" lon="6.00198">
        <ele>319.79998779297</ele>
        <time>2016-11-16T14:45:14Z</time>
      </trkpt>
      <trkpt lat="43.43585" lon="6.00198">
        <ele>319.60000610352</ele>
        <time>2016-11-16T14:45:17Z</time>
      </trkpt>
      <trkpt lat="43.43585" lon="6.00197">
        <ele>319.60000610352</ele>
        <time>2016-11-16T14:45:24Z</time>
      </trkpt>
      <trkpt lat="43.43579" lon="6.00195">
        <ele>320.60000610352</ele>
        <time>2016-11-16T14:45:34Z</time>
      </trkpt>
      <trkpt lat="43.43577" lon="6.00195">
        <ele>320.79998779297</ele>
        <time>2016-11-16T14:45:36Z</time>
      </trkpt>
      <trkpt lat="43.43575" lon="6.00195">
        <ele>321</ele>
        <time>2016-11-16T14:45:41Z</time>
      </trkpt>
      <trkpt lat="43.43574" lon="6.00195">
        <ele>321</ele>
        <time>2016-11-16T14:45:44Z</time>
      </trkpt>
      <trkpt lat="43.43572" lon="6.00194">
        <ele>321.39999389648</ele>
        <time>2016-11-16T14:45:51Z</time>
      </trkpt>
      <trkpt lat="43.43568" lon="6.00194">
        <ele>321.79998779297</ele>
        <time>2016-11-16T14:45:54Z</time>
      </trkpt>
      <trkpt lat="43.43555" lon="6.00189">
        <ele>322.39999389648</ele>
        <time>2016-11-16T14:46:04Z</time>
      </trkpt>
      <trkpt lat="43.43553" lon="6.00189">
        <ele>322.60000610352</ele>
        <time>2016-11-16T14:46:06Z</time>
      </trkpt>
      <trkpt lat="43.43551" lon="6.00188">
        <ele>323.20001220703</ele>
        <time>2016-11-16T14:46:14Z</time>
      </trkpt>
      <trkpt lat="43.43546" lon="6.00189">
        <ele>323</ele>
        <time>2016-11-16T14:46:19Z</time>
      </trkpt>
      <trkpt lat="43.43539" lon="6.00188">
        <ele>323.20001220703</ele>
        <time>2016-11-16T14:46:24Z</time>
      </trkpt>
      <trkpt lat="43.43534" lon="6.00187">
        <ele>323.60000610352</ele>
        <time>2016-11-16T14:46:29Z</time>
      </trkpt>
      <trkpt lat="43.43534" lon="6.00186">
        <ele>324</ele>
        <time>2016-11-16T14:46:34Z</time>
      </trkpt>
      <trkpt lat="43.4353" lon="6.00183">
        <ele>324.20001220703</ele>
        <time>2016-11-16T14:46:44Z</time>
      </trkpt>
      <trkpt lat="43.43527" lon="6.00183">
        <ele>324.20001220703</ele>
        <time>2016-11-16T14:46:54Z</time>
      </trkpt>
      <trkpt lat="43.43522" lon="6.00182">
        <ele>324.39999389648</ele>
        <time>2016-11-16T14:46:59Z</time>
      </trkpt>
      <trkpt lat="43.43518" lon="6.00181">
        <ele>324.60000610352</ele>
        <time>2016-11-16T14:47:03Z</time>
      </trkpt>
      <trkpt lat="43.43517" lon="6.0018">
        <ele>324.60000610352</ele>
        <time>2016-11-16T14:47:04Z</time>
      </trkpt>
      <trkpt lat="43.43515" lon="6.00179">
        <ele>324.79998779297</ele>
        <time>2016-11-16T14:47:05Z</time>
      </trkpt>
      <trkpt lat="43.4351" lon="6.00177">
        <ele>326</ele>
        <time>2016-11-16T14:47:09Z</time>
      </trkpt>
      <trkpt lat="43.43502" lon="6.00174">
        <ele>326.39999389648</ele>
        <time>2016-11-16T14:47:14Z</time>
      </trkpt>
      <trkpt lat="43.43488" lon="6.00169">
        <ele>327.20001220703</ele>
        <time>2016-11-16T14:47:23Z</time>
      </trkpt>
      <trkpt lat="43.43487" lon="6.0017">
        <ele>327.39999389648</ele>
        <time>2016-11-16T14:47:24Z</time>
      </trkpt>
      <trkpt lat="43.4348" lon="6.00172">
        <ele>328.20001220703</ele>
        <time>2016-11-16T14:47:29Z</time>
      </trkpt>
      <trkpt lat="43.43478" lon="6.00171">
        <ele>328.39999389648</ele>
        <time>2016-11-16T14:47:34Z</time>
      </trkpt>
      <trkpt lat="43.4347" lon="6.00169">
        <ele>329.20001220703</ele>
        <time>2016-11-16T14:47:43Z</time>
      </trkpt>
      <trkpt lat="43.4347" lon="6.00169">
        <ele>329.39999389648</ele>
        <time>2016-11-16T14:47:44Z</time>
      </trkpt>
      <trkpt lat="43.43464" lon="6.0017">
        <ele>330</ele>
        <time>2016-11-16T14:47:54Z</time>
      </trkpt>
      <trkpt lat="43.43462" lon="6.00171">
        <ele>330.20001220703</ele>
        <time>2016-11-16T14:47:59Z</time>
      </trkpt>
      <trkpt lat="43.4346" lon="6.00175">
        <ele>330.39999389648</ele>
        <time>2016-11-16T14:48:04Z</time>
      </trkpt>
      <trkpt lat="43.43457" lon="6.00177">
        <ele>330.60000610352</ele>
        <time>2016-11-16T14:48:08Z</time>
      </trkpt>
      <trkpt lat="43.43456" lon="6.00179">
        <ele>331.20001220703</ele>
        <time>2016-11-16T14:48:13Z</time>
      </trkpt>
      <trkpt lat="43.43456" lon="6.00179">
        <ele>331.20001220703</ele>
        <time>2016-11-16T14:48:14Z</time>
      </trkpt>
      <trkpt lat="43.43454" lon="6.00181">
        <ele>331.39999389648</ele>
        <time>2016-11-16T14:48:18Z</time>
      </trkpt>
      <trkpt lat="43.43453" lon="6.00181">
        <ele>331.20001220703</ele>
        <time>2016-11-16T14:48:24Z</time>
      </trkpt>
      <trkpt lat="43.43452" lon="6.00184">
        <ele>331.20001220703</ele>
        <time>2016-11-16T14:48:34Z</time>
      </trkpt>
      <trkpt lat="43.4345" lon="6.00184">
        <ele>331.20001220703</ele>
        <time>2016-11-16T14:48:44Z</time>
      </trkpt>
      <trkpt lat="43.43447" lon="6.00187">
        <ele>331.60000610352</ele>
        <time>2016-11-16T14:48:49Z</time>
      </trkpt>
      <trkpt lat="43.43444" lon="6.0019">
        <ele>332.20001220703</ele>
        <time>2016-11-16T14:48:52Z</time>
      </trkpt>
      <trkpt lat="43.43442" lon="6.0019">
        <ele>332.20001220703</ele>
        <time>2016-11-16T14:48:53Z</time>
      </trkpt>
      <trkpt lat="43.43441" lon="6.0019">
        <ele>332.39999389648</ele>
        <time>2016-11-16T14:48:54Z</time>
      </trkpt>
      <trkpt lat="43.43438" lon="6.0019">
        <ele>332.79998779297</ele>
        <time>2016-11-16T14:48:57Z</time>
      </trkpt>
      <trkpt lat="43.43436" lon="6.00188">
        <ele>333.20001220703</ele>
        <time>2016-11-16T14:49:01Z</time>
      </trkpt>
      <trkpt lat="43.43434" lon="6.00186">
        <ele>333.60000610352</ele>
        <time>2016-11-16T14:49:03Z</time>
      </trkpt>
      <trkpt lat="43.43433" lon="6.00185">
        <ele>333.60000610352</ele>
        <time>2016-11-16T14:49:04Z</time>
      </trkpt>
      <trkpt lat="43.4343" lon="6.00186">
        <ele>333.79998779297</ele>
        <time>2016-11-16T14:49:09Z</time>
      </trkpt>
      <trkpt lat="43.43429" lon="6.00184">
        <ele>333.60000610352</ele>
        <time>2016-11-16T14:49:14Z</time>
      </trkpt>
      <trkpt lat="43.43426" lon="6.00183">
        <ele>333.60000610352</ele>
        <time>2016-11-16T14:49:19Z</time>
      </trkpt>
      <trkpt lat="43.43423" lon="6.00181">
        <ele>334</ele>
        <time>2016-11-16T14:49:21Z</time>
      </trkpt>
      <trkpt lat="43.43419" lon="6.00179">
        <ele>334.39999389648</ele>
        <time>2016-11-16T14:49:24Z</time>
      </trkpt>
      <trkpt lat="43.43417" lon="6.00179">
        <ele>334.39999389648</ele>
        <time>2016-11-16T14:49:25Z</time>
      </trkpt>
      <trkpt lat="43.43411" lon="6.0018">
        <ele>334.60000610352</ele>
        <time>2016-11-16T14:49:29Z</time>
      </trkpt>
      <trkpt lat="43.4341" lon="6.00179">
        <ele>334.60000610352</ele>
        <time>2016-11-16T14:49:30Z</time>
      </trkpt>
      <trkpt lat="43.43406" lon="6.00177">
        <ele>335.20001220703</ele>
        <time>2016-11-16T14:49:34Z</time>
      </trkpt>
      <trkpt lat="43.43403" lon="6.00174">
        <ele>335.79998779297</ele>
        <time>2016-11-16T14:49:36Z</time>
      </trkpt>
      <trkpt lat="43.43399" lon="6.00169">
        <ele>336.79998779297</ele>
        <time>2016-11-16T14:49:39Z</time>
      </trkpt>
      <trkpt lat="43.43395" lon="6.00163">
        <ele>337.39999389648</ele>
        <time>2016-11-16T14:49:44Z</time>
      </trkpt>
      <trkpt lat="43.43393" lon="6.00159">
        <ele>337.60000610352</ele>
        <time>2016-11-16T14:49:47Z</time>
      </trkpt>
      <trkpt lat="43.43392" lon="6.00158">
        <ele>337.79998779297</ele>
        <time>2016-11-16T14:49:48Z</time>
      </trkpt>
      <trkpt lat="43.4339" lon="6.00153">
        <ele>338.39999389648</ele>
        <time>2016-11-16T14:49:54Z</time>
      </trkpt>
      <trkpt lat="43.43386" lon="6.00151">
        <ele>338.79998779297</ele>
        <time>2016-11-16T14:49:59Z</time>
      </trkpt>
      <trkpt lat="43.43386" lon="6.00151">
        <ele>338.79998779297</ele>
        <time>2016-11-16T14:50:00Z</time>
      </trkpt>
      <trkpt lat="43.43384" lon="6.00151">
        <ele>339.20001220703</ele>
        <time>2016-11-16T14:50:03Z</time>
      </trkpt>
      <trkpt lat="43.43383" lon="6.00151">
        <ele>339.39999389648</ele>
        <time>2016-11-16T14:50:04Z</time>
      </trkpt>
      <trkpt lat="43.4338" lon="6.00152">
        <ele>339.79998779297</ele>
        <time>2016-11-16T14:50:08Z</time>
      </trkpt>
      <trkpt lat="43.43378" lon="6.00152">
        <ele>339.79998779297</ele>
        <time>2016-11-16T14:50:10Z</time>
      </trkpt>
      <trkpt lat="43.43376" lon="6.00151">
        <ele>340.20001220703</ele>
        <time>2016-11-16T14:50:14Z</time>
      </trkpt>
      <trkpt lat="43.4337" lon="6.00147">
        <ele>341</ele>
        <time>2016-11-16T14:50:23Z</time>
      </trkpt>
      <trkpt lat="43.4337" lon="6.00147">
        <ele>341</ele>
        <time>2016-11-16T14:50:24Z</time>
      </trkpt>
      <trkpt lat="43.43369" lon="6.00145">
        <ele>341.20001220703</ele>
        <time>2016-11-16T14:50:29Z</time>
      </trkpt>
      <trkpt lat="43.43367" lon="6.00143">
        <ele>341.39999389648</ele>
        <time>2016-11-16T14:50:32Z</time>
      </trkpt>
      <trkpt lat="43.43366" lon="6.00141">
        <ele>341.60000610352</ele>
        <time>2016-11-16T14:50:34Z</time>
      </trkpt>
      <trkpt lat="43.43362" lon="6.00137">
        <ele>341.79998779297</ele>
        <time>2016-11-16T14:50:44Z</time>
      </trkpt>
      <trkpt lat="43.43361" lon="6.00134">
        <ele>342</ele>
        <time>2016-11-16T14:50:51Z</time>
      </trkpt>
      <trkpt lat="43.43359" lon="6.00133">
        <ele>342</ele>
        <time>2016-11-16T14:50:54Z</time>
      </trkpt>
      <trkpt lat="43.43358" lon="6.0013">
        <ele>342.79998779297</ele>
        <time>2016-11-16T14:50:59Z</time>
      </trkpt>
      <trkpt lat="43.43357" lon="6.00128">
        <ele>343</ele>
        <time>2016-11-16T14:51:02Z</time>
      </trkpt>
      <trkpt lat="43.43354" lon="6.00122">
        <ele>343.60000610352</ele>
        <time>2016-11-16T14:51:14Z</time>
      </trkpt>
      <trkpt lat="43.43352" lon="6.00115">
        <ele>343.39999389648</ele>
        <time>2016-11-16T14:51:24Z</time>
      </trkpt>
      <trkpt lat="43.43351" lon="6.00114">
        <ele>343.60000610352</ele>
        <time>2016-11-16T14:51:26Z</time>
      </trkpt>
      <trkpt lat="43.43351" lon="6.00109">
        <ele>344</ele>
        <time>2016-11-16T14:51:33Z</time>
      </trkpt>
      <trkpt lat="43.4335" lon="6.00108">
        <ele>344</ele>
        <time>2016-11-16T14:51:34Z</time>
      </trkpt>
      <trkpt lat="43.43348" lon="6.00102">
        <ele>344.60000610352</ele>
        <time>2016-11-16T14:51:39Z</time>
      </trkpt>
      <trkpt lat="43.43348" lon="6.00099">
        <ele>345</ele>
        <time>2016-11-16T14:51:41Z</time>
      </trkpt>
      <trkpt lat="43.43345" lon="6.00093">
        <ele>345.60000610352</ele>
        <time>2016-11-16T14:51:44Z</time>
      </trkpt>
      <trkpt lat="43.43344" lon="6.00086">
        <ele>346</ele>
        <time>2016-11-16T14:51:47Z</time>
      </trkpt>
      <trkpt lat="43.43343" lon="6.00079">
        <ele>346.60000610352</ele>
        <time>2016-11-16T14:51:51Z</time>
      </trkpt>
      <trkpt lat="43.43343" lon="6.00077">
        <ele>347</ele>
        <time>2016-11-16T14:51:54Z</time>
      </trkpt>
      <trkpt lat="43.43343" lon="6.00076">
        <ele>347</ele>
        <time>2016-11-16T14:51:56Z</time>
      </trkpt>
      <trkpt lat="43.43346" lon="6.00073">
        <ele>347.20001220703</ele>
        <time>2016-11-16T14:52:01Z</time>
      </trkpt>
      <trkpt lat="43.43346" lon="6.00071">
        <ele>347.39999389648</ele>
        <time>2016-11-16T14:52:04Z</time>
      </trkpt>
      <trkpt lat="43.43346" lon="6.00067">
        <ele>348.20001220703</ele>
        <time>2016-11-16T14:52:11Z</time>
      </trkpt>
      <trkpt lat="43.43344" lon="6.00065">
        <ele>348.60000610352</ele>
        <time>2016-11-16T14:52:14Z</time>
      </trkpt>
      <trkpt lat="43.43341" lon="6.00061">
        <ele>349.20001220703</ele>
        <time>2016-11-16T14:52:21Z</time>
      </trkpt>
      <trkpt lat="43.43339" lon="6.00061">
        <ele>349.39999389648</ele>
        <time>2016-11-16T14:52:24Z</time>
      </trkpt>
      <trkpt lat="43.43336" lon="6.00066">
        <ele>349.79998779297</ele>
        <time>2016-11-16T14:52:31Z</time>
      </trkpt>
      <trkpt lat="43.43334" lon="6.00066">
        <ele>349.79998779297</ele>
        <time>2016-11-16T14:52:34Z</time>
      </trkpt>
      <trkpt lat="43.43332" lon="6.00064">
        <ele>350.20001220703</ele>
        <time>2016-11-16T14:52:39Z</time>
      </trkpt>
      <trkpt lat="43.4333" lon="6.00058">
        <ele>350.60000610352</ele>
        <time>2016-11-16T14:52:44Z</time>
      </trkpt>
      <trkpt lat="43.43324" lon="6.00051">
        <ele>351.20001220703</ele>
        <time>2016-11-16T14:52:54Z</time>
      </trkpt>
      <trkpt lat="43.43321" lon="6.00046">
        <ele>352.20001220703</ele>
        <time>2016-11-16T14:53:02Z</time>
      </trkpt>
      <trkpt lat="43.4332" lon="6.00045">
        <ele>352.39999389648</ele>
        <time>2016-11-16T14:53:04Z</time>
      </trkpt>
      <trkpt lat="43.43318" lon="6.00043">
        <ele>352.60000610352</ele>
        <time>2016-11-16T14:53:11Z</time>
      </trkpt>
      <trkpt lat="43.43315" lon="6.00036">
        <ele>353.39999389648</ele>
        <time>2016-11-16T14:53:23Z</time>
      </trkpt>
      <trkpt lat="43.43314" lon="6.00035">
        <ele>353.39999389648</ele>
        <time>2016-11-16T14:53:24Z</time>
      </trkpt>
      <trkpt lat="43.43312" lon="6.00035">
        <ele>354.20001220703</ele>
        <time>2016-11-16T14:53:33Z</time>
      </trkpt>
      <trkpt lat="43.43311" lon="6.00036">
        <ele>354.20001220703</ele>
        <time>2016-11-16T14:53:34Z</time>
      </trkpt>
      <trkpt lat="43.43307" lon="6.00037">
        <ele>354.39999389648</ele>
        <time>2016-11-16T14:53:40Z</time>
      </trkpt>
      <trkpt lat="43.43307" lon="6.00037">
        <ele>354.39999389648</ele>
        <time>2016-11-16T14:53:44Z</time>
      </trkpt>
      <trkpt lat="43.43302" lon="6.00036">
        <ele>354.20001220703</ele>
        <time>2016-11-16T14:53:53Z</time>
      </trkpt>
      <trkpt lat="43.43301" lon="6.00035">
        <ele>354.39999389648</ele>
        <time>2016-11-16T14:53:54Z</time>
      </trkpt>
      <trkpt lat="43.43299" lon="6.00035">
        <ele>354.79998779297</ele>
        <time>2016-11-16T14:54:00Z</time>
      </trkpt>
      <trkpt lat="43.43297" lon="6.00034">
        <ele>355.39999389648</ele>
        <time>2016-11-16T14:54:04Z</time>
      </trkpt>
      <trkpt lat="43.43292" lon="6.00036">
        <ele>356.39999389648</ele>
        <time>2016-11-16T14:54:14Z</time>
      </trkpt>
      <trkpt lat="43.43288" lon="6.00036">
        <ele>357.20001220703</ele>
        <time>2016-11-16T14:54:24Z</time>
      </trkpt>
      <trkpt lat="43.43288" lon="6.00035">
        <ele>357.60000610352</ele>
        <time>2016-11-16T14:54:29Z</time>
      </trkpt>
      <trkpt lat="43.43288" lon="6.00035">
        <ele>357.60000610352</ele>
        <time>2016-11-16T14:54:34Z</time>
      </trkpt>
      <trkpt lat="43.43288" lon="6.0003">
        <ele>358.20001220703</ele>
        <time>2016-11-16T14:54:42Z</time>
      </trkpt>
      <trkpt lat="43.43287" lon="6.00029">
        <ele>358.39999389648</ele>
        <time>2016-11-16T14:54:44Z</time>
      </trkpt>
      <trkpt lat="43.43287" lon="6.00029">
        <ele>358.39999389648</ele>
        <time>2016-11-16T14:54:45Z</time>
      </trkpt>
      <trkpt lat="43.43286" lon="6.00028">
        <ele>358.60000610352</ele>
        <time>2016-11-16T14:54:47Z</time>
      </trkpt>
      <trkpt lat="43.43282" lon="6.00028">
        <ele>359.60000610352</ele>
        <time>2016-11-16T14:54:54Z</time>
      </trkpt>
      <trkpt lat="43.43282" lon="6.00028">
        <ele>359.79998779297</ele>
        <time>2016-11-16T14:54:55Z</time>
      </trkpt>
      <trkpt lat="43.43278" lon="6.00028">
        <ele>360.20001220703</ele>
        <time>2016-11-16T14:55:04Z</time>
      </trkpt>
      <trkpt lat="43.43275" lon="6.00028">
        <ele>360.79998779297</ele>
        <time>2016-11-16T14:55:11Z</time>
      </trkpt>
      <trkpt lat="43.43273" lon="6.00027">
        <ele>361.20001220703</ele>
        <time>2016-11-16T14:55:14Z</time>
      </trkpt>
      <trkpt lat="43.43272" lon="6.00024">
        <ele>362.20001220703</ele>
        <time>2016-11-16T14:55:24Z</time>
      </trkpt>
      <trkpt lat="43.43272" lon="6.00024">
        <ele>362.39999389648</ele>
        <time>2016-11-16T14:55:26Z</time>
      </trkpt>
      <trkpt lat="43.4327" lon="6.00023">
        <ele>362.60000610352</ele>
        <time>2016-11-16T14:55:34Z</time>
      </trkpt>
      <trkpt lat="43.43269" lon="6.00023">
        <ele>363</ele>
        <time>2016-11-16T14:55:38Z</time>
      </trkpt>
      <trkpt lat="43.43267" lon="6.00022">
        <ele>363.79998779297</ele>
        <time>2016-11-16T14:55:44Z</time>
      </trkpt>
      <trkpt lat="43.43263" lon="6.0002">
        <ele>365</ele>
        <time>2016-11-16T14:55:54Z</time>
      </trkpt>
      <trkpt lat="43.43261" lon="6.00021">
        <ele>365.20001220703</ele>
        <time>2016-11-16T14:55:56Z</time>
      </trkpt>
      <trkpt lat="43.43258" lon="6.00023">
        <ele>366.60000610352</ele>
        <time>2016-11-16T14:56:04Z</time>
      </trkpt>
      <trkpt lat="43.43253" lon="6.00025">
        <ele>367.39999389648</ele>
        <time>2016-11-16T14:56:14Z</time>
      </trkpt>
      <trkpt lat="43.43251" lon="6.00022">
        <ele>367.79998779297</ele>
        <time>2016-11-16T14:56:24Z</time>
      </trkpt>
      <trkpt lat="43.43251" lon="6.00019">
        <ele>368.39999389648</ele>
        <time>2016-11-16T14:56:32Z</time>
      </trkpt>
      <trkpt lat="43.4325" lon="6.00019">
        <ele>368.79998779297</ele>
        <time>2016-11-16T14:56:34Z</time>
      </trkpt>
      <trkpt lat="43.43248" lon="6.00018">
        <ele>369.60000610352</ele>
        <time>2016-11-16T14:56:39Z</time>
      </trkpt>
      <trkpt lat="43.43246" lon="6.00016">
        <ele>370.39999389648</ele>
        <time>2016-11-16T14:56:44Z</time>
      </trkpt>
      <trkpt lat="43.43246" lon="6.00016">
        <ele>370.60000610352</ele>
        <time>2016-11-16T14:56:46Z</time>
      </trkpt>
      <trkpt lat="43.43243" lon="6.00019">
        <ele>371.20001220703</ele>
        <time>2016-11-16T14:56:54Z</time>
      </trkpt>
      <trkpt lat="43.43238" lon="6.00021">
        <ele>371.79998779297</ele>
        <time>2016-11-16T14:57:05Z</time>
      </trkpt>
      <trkpt lat="43.43235" lon="6.00023">
        <ele>371.79998779297</ele>
        <time>2016-11-16T14:57:14Z</time>
      </trkpt>
      <trkpt lat="43.43233" lon="6.00022">
        <ele>372.20001220703</ele>
        <time>2016-11-16T14:57:24Z</time>
      </trkpt>
      <trkpt lat="43.43233" lon="6.00022">
        <ele>373</ele>
        <time>2016-11-16T14:57:29Z</time>
      </trkpt>
      <trkpt lat="43.43232" lon="6.0002">
        <ele>373.39999389648</ele>
        <time>2016-11-16T14:57:34Z</time>
      </trkpt>
      <trkpt lat="43.43233" lon="6.00018">
        <ele>374</ele>
        <time>2016-11-16T14:57:40Z</time>
      </trkpt>
      <trkpt lat="43.43231" lon="6.00019">
        <ele>374.39999389648</ele>
        <time>2016-11-16T14:57:44Z</time>
      </trkpt>
      <trkpt lat="43.4323" lon="6.0002">
        <ele>375.20001220703</ele>
        <time>2016-11-16T14:57:49Z</time>
      </trkpt>
      <trkpt lat="43.43226" lon="6.00021">
        <ele>376</ele>
        <time>2016-11-16T14:57:54Z</time>
      </trkpt>
      <trkpt lat="43.43226" lon="6.00022">
        <ele>376.20001220703</ele>
        <time>2016-11-16T14:57:55Z</time>
      </trkpt>
      <trkpt lat="43.43221" lon="6.00022">
        <ele>377.39999389648</ele>
        <time>2016-11-16T14:58:05Z</time>
      </trkpt>
      <trkpt lat="43.43216" lon="6.00021">
        <ele>378.20001220703</ele>
        <time>2016-11-16T14:58:14Z</time>
      </trkpt>
      <trkpt lat="43.43214" lon="6.00021">
        <ele>378.39999389648</ele>
        <time>2016-11-16T14:58:16Z</time>
      </trkpt>
      <trkpt lat="43.43211" lon="6.00019">
        <ele>379.60000610352</ele>
        <time>2016-11-16T14:58:22Z</time>
      </trkpt>
      <trkpt lat="43.4321" lon="6.00019">
        <ele>379.79998779297</ele>
        <time>2016-11-16T14:58:24Z</time>
      </trkpt>
      <trkpt lat="43.43206" lon="6.00019">
        <ele>380.60000610352</ele>
        <time>2016-11-16T14:58:34Z</time>
      </trkpt>
      <trkpt lat="43.43204" lon="6.0002">
        <ele>381.39999389648</ele>
        <time>2016-11-16T14:58:44Z</time>
      </trkpt>
      <trkpt lat="43.43203" lon="6.0002">
        <ele>382.20001220703</ele>
        <time>2016-11-16T14:58:54Z</time>
      </trkpt>
      <trkpt lat="43.43202" lon="6.0002">
        <ele>382.60000610352</ele>
        <time>2016-11-16T14:58:58Z</time>
      </trkpt>
      <trkpt lat="43.432" lon="6.00018">
        <ele>382.79998779297</ele>
        <time>2016-11-16T14:59:04Z</time>
      </trkpt>
      <trkpt lat="43.43199" lon="6.00016">
        <ele>382.79998779297</ele>
        <time>2016-11-16T14:59:14Z</time>
      </trkpt>
      <trkpt lat="43.43196" lon="6.00015">
        <ele>383.20001220703</ele>
        <time>2016-11-16T14:59:24Z</time>
      </trkpt>
      <trkpt lat="43.43194" lon="6.00015">
        <ele>383.39999389648</ele>
        <time>2016-11-16T14:59:27Z</time>
      </trkpt>
      <trkpt lat="43.43194" lon="6.00015">
        <ele>383.60000610352</ele>
        <time>2016-11-16T14:59:30Z</time>
      </trkpt>
      <trkpt lat="43.43193" lon="6.00015">
        <ele>384.39999389648</ele>
        <time>2016-11-16T14:59:34Z</time>
      </trkpt>
      <trkpt lat="43.4319" lon="6.00016">
        <ele>384.60000610352</ele>
        <time>2016-11-16T14:59:38Z</time>
      </trkpt>
      <trkpt lat="43.43188" lon="6.00016">
        <ele>384.79998779297</ele>
        <time>2016-11-16T14:59:41Z</time>
      </trkpt>
      <trkpt lat="43.43186" lon="6.00016">
        <ele>385.39999389648</ele>
        <time>2016-11-16T14:59:44Z</time>
      </trkpt>
      <trkpt lat="43.43184" lon="6.00016">
        <ele>385.79998779297</ele>
        <time>2016-11-16T14:59:47Z</time>
      </trkpt>
      <trkpt lat="43.43179" lon="6.00015">
        <ele>386.79998779297</ele>
        <time>2016-11-16T14:59:54Z</time>
      </trkpt>
      <trkpt lat="43.43175" lon="6.00013">
        <ele>387.39999389648</ele>
        <time>2016-11-16T15:00:04Z</time>
      </trkpt>
      <trkpt lat="43.43174" lon="6.00011">
        <ele>387.20001220703</ele>
        <time>2016-11-16T15:00:10Z</time>
      </trkpt>
      <trkpt lat="43.43173" lon="6.00012">
        <ele>387</ele>
        <time>2016-11-16T15:00:14Z</time>
      </trkpt>
      <trkpt lat="43.4317" lon="6.00013">
        <ele>387.20001220703</ele>
        <time>2016-11-16T15:00:17Z</time>
      </trkpt>
      <trkpt lat="43.43169" lon="6.00013">
        <ele>387.39999389648</ele>
        <time>2016-11-16T15:00:18Z</time>
      </trkpt>
      <trkpt lat="43.43166" lon="6.00013">
        <ele>387.79998779297</ele>
        <time>2016-11-16T15:00:20Z</time>
      </trkpt>
      <trkpt lat="43.43165" lon="6.00012">
        <ele>387.79998779297</ele>
        <time>2016-11-16T15:00:21Z</time>
      </trkpt>
      <trkpt lat="43.43161" lon="6.00011">
        <ele>388.39999389648</ele>
        <time>2016-11-16T15:00:24Z</time>
      </trkpt>
      <trkpt lat="43.43158" lon="6.00011">
        <ele>388.79998779297</ele>
        <time>2016-11-16T15:00:26Z</time>
      </trkpt>
      <trkpt lat="43.43155" lon="6.00011">
        <ele>389</ele>
        <time>2016-11-16T15:00:28Z</time>
      </trkpt>
      <trkpt lat="43.43149" lon="6.00011">
        <ele>390.20001220703</ele>
        <time>2016-11-16T15:00:34Z</time>
      </trkpt>
      <trkpt lat="43.43144" lon="6.00011">
        <ele>391</ele>
        <time>2016-11-16T15:00:44Z</time>
      </trkpt>
      <trkpt lat="43.43143" lon="6.00007">
        <ele>391.60000610352</ele>
        <time>2016-11-16T15:00:51Z</time>
      </trkpt>
      <trkpt lat="43.43142" lon="6.00006">
        <ele>391.39999389648</ele>
        <time>2016-11-16T15:00:54Z</time>
      </trkpt>
      <trkpt lat="43.43138" lon="6.00007">
        <ele>391.60000610352</ele>
        <time>2016-11-16T15:01:04Z</time>
      </trkpt>
      <trkpt lat="43.43136" lon="6.00008">
        <ele>391.60000610352</ele>
        <time>2016-11-16T15:01:07Z</time>
      </trkpt>
      <trkpt lat="43.43134" lon="6.00008">
        <ele>391.79998779297</ele>
        <time>2016-11-16T15:01:09Z</time>
      </trkpt>
      <trkpt lat="43.43127" lon="6.00007">
        <ele>392</ele>
        <time>2016-11-16T15:01:14Z</time>
      </trkpt>
      <trkpt lat="43.43126" lon="6.00006">
        <ele>392.20001220703</ele>
        <time>2016-11-16T15:01:15Z</time>
      </trkpt>
      <trkpt lat="43.43124" lon="6.00005">
        <ele>392.60000610352</ele>
        <time>2016-11-16T15:01:16Z</time>
      </trkpt>
      <trkpt lat="43.43123" lon="6">
        <ele>393.39999389648</ele>
        <time>2016-11-16T15:01:19Z</time>
      </trkpt>
      <trkpt lat="43.43122" lon="6.00001">
        <ele>393.60000610352</ele>
        <time>2016-11-16T15:01:21Z</time>
      </trkpt>
      <trkpt lat="43.43119" lon="6.00005">
        <ele>393.79998779297</ele>
        <time>2016-11-16T15:01:24Z</time>
      </trkpt>
      <trkpt lat="43.43105" lon="6.00013">
        <ele>394.20001220703</ele>
        <time>2016-11-16T15:01:34Z</time>
      </trkpt>
      <trkpt lat="43.431" lon="6.00012">
        <ele>394.39999389648</ele>
        <time>2016-11-16T15:01:37Z</time>
      </trkpt>
      <trkpt lat="43.43093" lon="6.00014">
        <ele>395.60000610352</ele>
        <time>2016-11-16T15:01:42Z</time>
      </trkpt>
      <trkpt lat="43.43089" lon="6.00017">
        <ele>396</ele>
        <time>2016-11-16T15:01:45Z</time>
      </trkpt>
      <trkpt lat="43.43085" lon="6.00021">
        <ele>396.60000610352</ele>
        <time>2016-11-16T15:01:49Z</time>
      </trkpt>
      <trkpt lat="43.43079" lon="6.00024">
        <ele>397.39999389648</ele>
        <time>2016-11-16T15:01:54Z</time>
      </trkpt>
      <trkpt lat="43.43072" lon="6.00024">
        <ele>398</ele>
        <time>2016-11-16T15:01:59Z</time>
      </trkpt>
      <trkpt lat="43.43066" lon="6.0003">
        <ele>398.79998779297</ele>
        <time>2016-11-16T15:02:04Z</time>
      </trkpt>
      <trkpt lat="43.43054" lon="6.00037">
        <ele>399.60000610352</ele>
        <time>2016-11-16T15:02:14Z</time>
      </trkpt>
      <trkpt lat="43.43049" lon="6.00042">
        <ele>399.79998779297</ele>
        <time>2016-11-16T15:02:19Z</time>
      </trkpt>
      <trkpt lat="43.43049" lon="6.00046">
        <ele>400.20001220703</ele>
        <time>2016-11-16T15:02:24Z</time>
      </trkpt>
      <trkpt lat="43.43048" lon="6.00046">
        <ele>400.20001220703</ele>
        <time>2016-11-16T15:02:27Z</time>
      </trkpt>
      <trkpt lat="43.43048" lon="6.00046">
        <ele>400.20001220703</ele>
        <time>2016-11-16T15:02:31Z</time>
      </trkpt>
      <trkpt lat="43.43048" lon="6.00046">
        <ele>400.20001220703</ele>
        <time>2016-11-16T15:02:33Z</time>
      </trkpt>
      <trkpt lat="43.43048" lon="6.00046">
        <ele>400.20001220703</ele>
        <time>2016-11-16T15:02:34Z</time>
      </trkpt>
      <trkpt lat="43.43048" lon="6.00046">
        <ele>400.20001220703</ele>
        <time>2016-11-16T15:02:37Z</time>
      </trkpt>
      <trkpt lat="43.43048" lon="6.00046">
        <ele>400.20001220703</ele>
        <time>2016-11-16T15:02:44Z</time>
      </trkpt>
      <trkpt lat="43.43048" lon="6.00046">
        <ele>400.20001220703</ele>
        <time>2016-11-16T15:02:52Z</time>
      </trkpt>
      <trkpt lat="43.43047" lon="6.00046">
        <ele>400.20001220703</ele>
        <time>2016-11-16T15:02:54Z</time>
      </trkpt>
      <trkpt lat="43.43047" lon="6.00046">
        <ele>400.20001220703</ele>
        <time>2016-11-16T15:03:04Z</time>
      </trkpt>
      <trkpt lat="43.43047" lon="6.00046">
        <ele>400.20001220703</ele>
        <time>2016-11-16T15:03:24Z</time>
      </trkpt>
      <trkpt lat="43.43047" lon="6.00046">
        <ele>400.20001220703</ele>
        <time>2016-11-16T15:03:40Z</time>
      </trkpt>
      <trkpt lat="43.43047" lon="6.00046">
        <ele>400</ele>
        <time>2016-11-16T15:03:54Z</time>
      </trkpt>
      <trkpt lat="43.43048" lon="6.00046">
        <ele>400</ele>
        <time>2016-11-16T15:03:57Z</time>
      </trkpt>
      <trkpt lat="43.43048" lon="6.00046">
        <ele>400.20001220703</ele>
        <time>2016-11-16T15:04:04Z</time>
      </trkpt>
      <trkpt lat="43.43048" lon="6.00046">
        <ele>400.39999389648</ele>
        <time>2016-11-16T15:04:24Z</time>
      </trkpt>
      <trkpt lat="43.43048" lon="6.00045">
        <ele>400.79998779297</ele>
        <time>2016-11-16T15:04:54Z</time>
      </trkpt>
      <trkpt lat="43.43048" lon="6.00044">
        <ele>400.79998779297</ele>
        <time>2016-11-16T15:05:14Z</time>
      </trkpt>
      <trkpt lat="43.43048" lon="6.00044">
        <ele>400.79998779297</ele>
        <time>2016-11-16T15:05:24Z</time>
      </trkpt>
      <trkpt lat="43.43048" lon="6.00043">
        <ele>400.60000610352</ele>
        <time>2016-11-16T15:05:34Z</time>
      </trkpt>
      <trkpt lat="43.43048" lon="6.00043">
        <ele>400.60000610352</ele>
        <time>2016-11-16T15:05:42Z</time>
      </trkpt>
      <trkpt lat="43.43048" lon="6.00043">
        <ele>400.60000610352</ele>
        <time>2016-11-16T15:05:44Z</time>
      </trkpt>
      <trkpt lat="43.43048" lon="6.00043">
        <ele>400.60000610352</ele>
        <time>2016-11-16T15:05:54Z</time>
      </trkpt>
      <trkpt lat="43.43048" lon="6.00043">
        <ele>400.60000610352</ele>
        <time>2016-11-16T15:06:04Z</time>
      </trkpt>
      <trkpt lat="43.43048" lon="6.00043">
        <ele>400.60000610352</ele>
        <time>2016-11-16T15:06:24Z</time>
      </trkpt>
      <trkpt lat="43.4305" lon="6.00044">
        <ele>400.60000610352</ele>
        <time>2016-11-16T15:06:34Z</time>
      </trkpt>
      <trkpt lat="43.4305" lon="6.00044">
        <ele>400.60000610352</ele>
        <time>2016-11-16T15:06:44Z</time>
      </trkpt>
      <trkpt lat="43.4305" lon="6.00043">
        <ele>400.60000610352</ele>
        <time>2016-11-16T15:06:49Z</time>
      </trkpt>
      <trkpt lat="43.43051" lon="6.00043">
        <ele>400.60000610352</ele>
        <time>2016-11-16T15:06:54Z</time>
      </trkpt>
      <trkpt lat="43.43051" lon="6.00043">
        <ele>400.60000610352</ele>
        <time>2016-11-16T15:07:01Z</time>
      </trkpt>
      <trkpt lat="43.43051" lon="6.00043">
        <ele>400.60000610352</ele>
        <time>2016-11-16T15:07:04Z</time>
      </trkpt>
      <trkpt lat="43.43051" lon="6.00043">
        <ele>400.60000610352</ele>
        <time>2016-11-16T15:07:24Z</time>
      </trkpt>
      <trkpt lat="43.43051" lon="6.00044">
        <ele>400.60000610352</ele>
        <time>2016-11-16T15:07:41Z</time>
      </trkpt>
      <trkpt lat="43.43051" lon="6.00044">
        <ele>400.60000610352</ele>
        <time>2016-11-16T15:07:44Z</time>
      </trkpt>
      <trkpt lat="43.43052" lon="6.00042">
        <ele>400.60000610352</ele>
        <time>2016-11-16T15:07:54Z</time>
      </trkpt>
      <trkpt lat="43.4305" lon="6.0004">
        <ele>400.60000610352</ele>
        <time>2016-11-16T15:08:03Z</time>
      </trkpt>
      <trkpt lat="43.4305" lon="6.0004">
        <ele>400.60000610352</ele>
        <time>2016-11-16T15:08:04Z</time>
      </trkpt>
      <trkpt lat="43.43051" lon="6.00041">
        <ele>400.60000610352</ele>
        <time>2016-11-16T15:08:14Z</time>
      </trkpt>
      <trkpt lat="43.4305" lon="6.00041">
        <ele>400.60000610352</ele>
        <time>2016-11-16T15:08:17Z</time>
      </trkpt>
      <trkpt lat="43.4305" lon="6.00043">
        <ele>400.60000610352</ele>
        <time>2016-11-16T15:08:20Z</time>
      </trkpt>
      <trkpt lat="43.4305" lon="6.00044">
        <ele>400.60000610352</ele>
        <time>2016-11-16T15:08:24Z</time>
      </trkpt>
      <trkpt lat="43.43049" lon="6.00044">
        <ele>400.60000610352</ele>
        <time>2016-11-16T15:08:34Z</time>
      </trkpt>
      <trkpt lat="43.43049" lon="6.00044">
        <ele>400.60000610352</ele>
        <time>2016-11-16T15:08:44Z</time>
      </trkpt>
      <trkpt lat="43.43049" lon="6.00044">
        <ele>400.60000610352</ele>
        <time>2016-11-16T15:08:54Z</time>
      </trkpt>
      <trkpt lat="43.43049" lon="6.00044">
        <ele>400.60000610352</ele>
        <time>2016-11-16T15:09:04Z</time>
      </trkpt>
      <trkpt lat="43.43049" lon="6.00044">
        <ele>400.60000610352</ele>
        <time>2016-11-16T15:09:27Z</time>
      </trkpt>
      <trkpt lat="43.43049" lon="6.00044">
        <ele>400.60000610352</ele>
        <time>2016-11-16T15:09:34Z</time>
      </trkpt>
      <trkpt lat="43.43049" lon="6.00044">
        <ele>400.60000610352</ele>
        <time>2016-11-16T15:09:44Z</time>
      </trkpt>
      <trkpt lat="43.4305" lon="6.00045">
        <ele>400.60000610352</ele>
        <time>2016-11-16T15:09:54Z</time>
      </trkpt>
      <trkpt lat="43.4305" lon="6.00044">
        <ele>400.60000610352</ele>
        <time>2016-11-16T15:10:04Z</time>
      </trkpt>
      <trkpt lat="43.4305" lon="6.00044">
        <ele>400.60000610352</ele>
        <time>2016-11-16T15:10:14Z</time>
      </trkpt>
      <trkpt lat="43.4305" lon="6.00044">
        <ele>400.60000610352</ele>
        <time>2016-11-16T15:10:44Z</time>
      </trkpt>
      <trkpt lat="43.4305" lon="6.00044">
        <ele>400.60000610352</ele>
        <time>2016-11-16T15:10:53Z</time>
      </trkpt>
      <trkpt lat="43.43051" lon="6.00044">
        <ele>400.60000610352</ele>
        <time>2016-11-16T15:10:54Z</time>
      </trkpt>
      <trkpt lat="43.43051" lon="6.00045">
        <ele>400.60000610352</ele>
        <time>2016-11-16T15:11:04Z</time>
      </trkpt>
      <trkpt lat="43.4305" lon="6.00047">
        <ele>400.60000610352</ele>
        <time>2016-11-16T15:11:11Z</time>
      </trkpt>
      <trkpt lat="43.4305" lon="6.00049">
        <ele>400.60000610352</ele>
        <time>2016-11-16T15:11:13Z</time>
      </trkpt>
      <trkpt lat="43.4305" lon="6.00051">
        <ele>400.20001220703</ele>
        <time>2016-11-16T15:11:14Z</time>
      </trkpt>
      <trkpt lat="43.43049" lon="6.00053">
        <ele>400.20001220703</ele>
        <time>2016-11-16T15:11:15Z</time>
      </trkpt>
      <trkpt lat="43.4305" lon="6.00064">
        <ele>400.20001220703</ele>
        <time>2016-11-16T15:11:20Z</time>
      </trkpt>
      <trkpt lat="43.4305" lon="6.00073">
        <ele>400.60000610352</ele>
        <time>2016-11-16T15:11:24Z</time>
      </trkpt>
      <trkpt lat="43.43051" lon="6.00089">
        <ele>400.79998779297</ele>
        <time>2016-11-16T15:11:30Z</time>
      </trkpt>
      <trkpt lat="43.43051" lon="6.00093">
        <ele>401</ele>
        <time>2016-11-16T15:11:32Z</time>
      </trkpt>
      <trkpt lat="43.43051" lon="6.001">
        <ele>401.39999389648</ele>
        <time>2016-11-16T15:11:34Z</time>
      </trkpt>
      <trkpt lat="43.43051" lon="6.00116">
        <ele>402</ele>
        <time>2016-11-16T15:11:38Z</time>
      </trkpt>
      <trkpt lat="43.4305" lon="6.00128">
        <ele>401.39999389648</ele>
        <time>2016-11-16T15:11:41Z</time>
      </trkpt>
      <trkpt lat="43.4305" lon="6.00133">
        <ele>401.20001220703</ele>
        <time>2016-11-16T15:11:42Z</time>
      </trkpt>
      <trkpt lat="43.43051" lon="6.00138">
        <ele>400.79998779297</ele>
        <time>2016-11-16T15:11:43Z</time>
      </trkpt>
      <trkpt lat="43.43052" lon="6.00143">
        <ele>400.60000610352</ele>
        <time>2016-11-16T15:11:44Z</time>
      </trkpt>
      <trkpt lat="43.43053" lon="6.00159">
        <ele>399.39999389648</ele>
        <time>2016-11-16T15:11:47Z</time>
      </trkpt>
      <trkpt lat="43.43037" lon="6.00182">
        <ele>399</ele>
        <time>2016-11-16T15:11:54Z</time>
      </trkpt>
      <trkpt lat="43.43013" lon="6.00198">
        <ele>400.39999389648</ele>
        <time>2016-11-16T15:12:04Z</time>
      </trkpt>
      <trkpt lat="43.43002" lon="6.00206">
        <ele>401.39999389648</ele>
        <time>2016-11-16T15:12:09Z</time>
      </trkpt>
      <trkpt lat="43.42999" lon="6.00208">
        <ele>401.60000610352</ele>
        <time>2016-11-16T15:12:10Z</time>
      </trkpt>
      <trkpt lat="43.42994" lon="6.00214">
        <ele>402.20001220703</ele>
        <time>2016-11-16T15:12:13Z</time>
      </trkpt>
      <trkpt lat="43.4299" lon="6.00218">
        <ele>402.60000610352</ele>
        <time>2016-11-16T15:12:15Z</time>
      </trkpt>
      <trkpt lat="43.42985" lon="6.00233">
        <ele>403.79998779297</ele>
        <time>2016-11-16T15:12:21Z</time>
      </trkpt>
      <trkpt lat="43.42981" lon="6.0024">
        <ele>404.39999389648</ele>
        <time>2016-11-16T15:12:24Z</time>
      </trkpt>
      <trkpt lat="43.42979" lon="6.00244">
        <ele>404.79998779297</ele>
        <time>2016-11-16T15:12:26Z</time>
      </trkpt>
      <trkpt lat="43.42978" lon="6.00248">
        <ele>405.39999389648</ele>
        <time>2016-11-16T15:12:34Z</time>
      </trkpt>
      <trkpt lat="43.42978" lon="6.00248">
        <ele>405.39999389648</ele>
        <time>2016-11-16T15:12:36Z</time>
      </trkpt>
      <trkpt lat="43.42978" lon="6.0025">
        <ele>405.20001220703</ele>
        <time>2016-11-16T15:12:42Z</time>
      </trkpt>
      <trkpt lat="43.42979" lon="6.0025">
        <ele>405.39999389648</ele>
        <time>2016-11-16T15:12:44Z</time>
      </trkpt>
      <trkpt lat="43.42979" lon="6.00253">
        <ele>405.60000610352</ele>
        <time>2016-11-16T15:12:48Z</time>
      </trkpt>
      <trkpt lat="43.42978" lon="6.00257">
        <ele>405.79998779297</ele>
        <time>2016-11-16T15:12:50Z</time>
      </trkpt>
      <trkpt lat="43.42977" lon="6.00265">
        <ele>406.39999389648</ele>
        <time>2016-11-16T15:12:54Z</time>
      </trkpt>
      <trkpt lat="43.42974" lon="6.00271">
        <ele>406.79998779297</ele>
        <time>2016-11-16T15:12:57Z</time>
      </trkpt>
      <trkpt lat="43.4297" lon="6.00283">
        <ele>408.39999389648</ele>
        <time>2016-11-16T15:13:04Z</time>
      </trkpt>
      <trkpt lat="43.4297" lon="6.00291">
        <ele>409.20001220703</ele>
        <time>2016-11-16T15:13:09Z</time>
      </trkpt>
      <trkpt lat="43.42969" lon="6.00298">
        <ele>409.79998779297</ele>
        <time>2016-11-16T15:13:14Z</time>
      </trkpt>
      <trkpt lat="43.42968" lon="6.003">
        <ele>410</ele>
        <time>2016-11-16T15:13:19Z</time>
      </trkpt>
      <trkpt lat="43.42968" lon="6.00302">
        <ele>410.20001220703</ele>
        <time>2016-11-16T15:13:21Z</time>
      </trkpt>
      <trkpt lat="43.42968" lon="6.00303">
        <ele>410.39999389648</ele>
        <time>2016-11-16T15:13:24Z</time>
      </trkpt>
      <trkpt lat="43.42968" lon="6.00304">
        <ele>410.79998779297</ele>
        <time>2016-11-16T15:13:32Z</time>
      </trkpt>
      <trkpt lat="43.42968" lon="6.00305">
        <ele>410.79998779297</ele>
        <time>2016-11-16T15:13:34Z</time>
      </trkpt>
      <trkpt lat="43.42967" lon="6.00307">
        <ele>410.79998779297</ele>
        <time>2016-11-16T15:13:35Z</time>
      </trkpt>
      <trkpt lat="43.42967" lon="6.00308">
        <ele>411</ele>
        <time>2016-11-16T15:13:36Z</time>
      </trkpt>
      <trkpt lat="43.42967" lon="6.00311">
        <ele>411</ele>
        <time>2016-11-16T15:13:38Z</time>
      </trkpt>
      <trkpt lat="43.42967" lon="6.00312">
        <ele>411.39999389648</ele>
        <time>2016-11-16T15:13:44Z</time>
      </trkpt>
      <trkpt lat="43.42967" lon="6.00313">
        <ele>411.39999389648</ele>
        <time>2016-11-16T15:13:47Z</time>
      </trkpt>
      <trkpt lat="43.42967" lon="6.00314">
        <ele>411.60000610352</ele>
        <time>2016-11-16T15:13:48Z</time>
      </trkpt>
      <trkpt lat="43.42967" lon="6.00321">
        <ele>411.60000610352</ele>
        <time>2016-11-16T15:13:51Z</time>
      </trkpt>
      <trkpt lat="43.42968" lon="6.00327">
        <ele>411.60000610352</ele>
        <time>2016-11-16T15:13:54Z</time>
      </trkpt>
      <trkpt lat="43.42965" lon="6.00337">
        <ele>412.60000610352</ele>
        <time>2016-11-16T15:14:00Z</time>
      </trkpt>
      <trkpt lat="43.42962" lon="6.00344">
        <ele>413.60000610352</ele>
        <time>2016-11-16T15:14:04Z</time>
      </trkpt>
      <trkpt lat="43.42962" lon="6.00345">
        <ele>413.79998779297</ele>
        <time>2016-11-16T15:14:05Z</time>
      </trkpt>
      <trkpt lat="43.42958" lon="6.00353">
        <ele>414.20001220703</ele>
        <time>2016-11-16T15:14:10Z</time>
      </trkpt>
      <trkpt lat="43.42957" lon="6.00354">
        <ele>414.39999389648</ele>
        <time>2016-11-16T15:14:11Z</time>
      </trkpt>
      <trkpt lat="43.42953" lon="6.00357">
        <ele>414.60000610352</ele>
        <time>2016-11-16T15:14:14Z</time>
      </trkpt>
      <trkpt lat="43.4295" lon="6.00359">
        <ele>414.79998779297</ele>
        <time>2016-11-16T15:14:16Z</time>
      </trkpt>
      <trkpt lat="43.42949" lon="6.0036">
        <ele>415</ele>
        <time>2016-11-16T15:14:17Z</time>
      </trkpt>
      <trkpt lat="43.42941" lon="6.00366">
        <ele>416</ele>
        <time>2016-11-16T15:14:24Z</time>
      </trkpt>
      <trkpt lat="43.42937" lon="6.00368">
        <ele>416.39999389648</ele>
        <time>2016-11-16T15:14:27Z</time>
      </trkpt>
      <trkpt lat="43.42935" lon="6.00371">
        <ele>417.20001220703</ele>
        <time>2016-11-16T15:14:29Z</time>
      </trkpt>
      <trkpt lat="43.4293" lon="6.00375">
        <ele>418.20001220703</ele>
        <time>2016-11-16T15:14:34Z</time>
      </trkpt>
      <trkpt lat="43.42923" lon="6.00383">
        <ele>419.39999389648</ele>
        <time>2016-11-16T15:14:41Z</time>
      </trkpt>
      <trkpt lat="43.4292" lon="6.00387">
        <ele>420.60000610352</ele>
        <time>2016-11-16T15:14:44Z</time>
      </trkpt>
      <trkpt lat="43.42916" lon="6.00389">
        <ele>421.39999389648</ele>
        <time>2016-11-16T15:14:47Z</time>
      </trkpt>
      <trkpt lat="43.42916" lon="6.00389">
        <ele>421.60000610352</ele>
        <time>2016-11-16T15:14:48Z</time>
      </trkpt>
      <trkpt lat="43.4291" lon="6.00394">
        <ele>422</ele>
        <time>2016-11-16T15:14:54Z</time>
      </trkpt>
      <trkpt lat="43.42907" lon="6.004">
        <ele>422.79998779297</ele>
        <time>2016-11-16T15:14:59Z</time>
      </trkpt>
      <trkpt lat="43.42907" lon="6.00405">
        <ele>423</ele>
        <time>2016-11-16T15:15:04Z</time>
      </trkpt>
      <trkpt lat="43.42908" lon="6.00405">
        <ele>423</ele>
        <time>2016-11-16T15:15:14Z</time>
      </trkpt>
      <trkpt lat="43.42908" lon="6.00405">
        <ele>423</ele>
        <time>2016-11-16T15:15:26Z</time>
      </trkpt>
      <trkpt lat="43.42908" lon="6.00405">
        <ele>423</ele>
        <time>2016-11-16T15:15:44Z</time>
      </trkpt>
      <trkpt lat="43.42908" lon="6.00405">
        <ele>422.79998779297</ele>
        <time>2016-11-16T15:15:53Z</time>
      </trkpt>
      <trkpt lat="43.42908" lon="6.00404">
        <ele>422.79998779297</ele>
        <time>2016-11-16T15:16:01Z</time>
      </trkpt>
      <trkpt lat="43.42908" lon="6.00405">
        <ele>422.60000610352</ele>
        <time>2016-11-16T15:16:14Z</time>
      </trkpt>
      <trkpt lat="43.42908" lon="6.00404">
        <ele>422.60000610352</ele>
        <time>2016-11-16T15:16:24Z</time>
      </trkpt>
      <trkpt lat="43.42908" lon="6.00404">
        <ele>422.60000610352</ele>
        <time>2016-11-16T15:16:26Z</time>
      </trkpt>
      <trkpt lat="43.42908" lon="6.00404">
        <ele>422.60000610352</ele>
        <time>2016-11-16T15:16:33Z</time>
      </trkpt>
      <trkpt lat="43.42908" lon="6.00404">
        <ele>422.60000610352</ele>
        <time>2016-11-16T15:16:34Z</time>
      </trkpt>
      <trkpt lat="43.42908" lon="6.00404">
        <ele>422.60000610352</ele>
        <time>2016-11-16T15:16:36Z</time>
      </trkpt>
      <trkpt lat="43.42908" lon="6.00404">
        <ele>422.60000610352</ele>
        <time>2016-11-16T15:16:38Z</time>
      </trkpt>
      <trkpt lat="43.42908" lon="6.00403">
        <ele>422.60000610352</ele>
        <time>2016-11-16T15:16:44Z</time>
      </trkpt>
      <trkpt lat="43.42907" lon="6.00406">
        <ele>422.60000610352</ele>
        <time>2016-11-16T15:16:53Z</time>
      </trkpt>
      <trkpt lat="43.42907" lon="6.00405">
        <ele>422.60000610352</ele>
        <time>2016-11-16T15:16:54Z</time>
      </trkpt>
      <trkpt lat="43.42907" lon="6.00407">
        <ele>422.60000610352</ele>
        <time>2016-11-16T15:17:04Z</time>
      </trkpt>
      <trkpt lat="43.42907" lon="6.0041">
        <ele>420.60000610352</ele>
        <time>2016-11-16T15:17:06Z</time>
      </trkpt>
      <trkpt lat="43.42908" lon="6.00415">
        <ele>419.20001220703</ele>
        <time>2016-11-16T15:17:08Z</time>
      </trkpt>
      <trkpt lat="43.42909" lon="6.00419">
        <ele>420.60000610352</ele>
        <time>2016-11-16T15:17:09Z</time>
      </trkpt>
      <trkpt lat="43.4291" lon="6.00432">
        <ele>420.20001220703</ele>
        <time>2016-11-16T15:17:12Z</time>
      </trkpt>
      <trkpt lat="43.42908" lon="6.00438">
        <ele>420.79998779297</ele>
        <time>2016-11-16T15:17:14Z</time>
      </trkpt>
      <trkpt lat="43.42904" lon="6.00449">
        <ele>421.39999389648</ele>
        <time>2016-11-16T15:17:18Z</time>
      </trkpt>
      <trkpt lat="43.42901" lon="6.00458">
        <ele>421.79998779297</ele>
        <time>2016-11-16T15:17:21Z</time>
      </trkpt>
      <trkpt lat="43.42898" lon="6.00468">
        <ele>422</ele>
        <time>2016-11-16T15:17:24Z</time>
      </trkpt>
      <trkpt lat="43.42891" lon="6.00484">
        <ele>422.20001220703</ele>
        <time>2016-11-16T15:17:28Z</time>
      </trkpt>
      <trkpt lat="43.42889" lon="6.00488">
        <ele>422</ele>
        <time>2016-11-16T15:17:29Z</time>
      </trkpt>
      <trkpt lat="43.42881" lon="6.00499">
        <ele>421.60000610352</ele>
        <time>2016-11-16T15:17:33Z</time>
      </trkpt>
      <trkpt lat="43.42879" lon="6.00503">
        <ele>421.39999389648</ele>
        <time>2016-11-16T15:17:34Z</time>
      </trkpt>
      <trkpt lat="43.42877" lon="6.0052">
        <ele>420.60000610352</ele>
        <time>2016-11-16T15:17:38Z</time>
      </trkpt>
      <trkpt lat="43.42878" lon="6.00534">
        <ele>419.60000610352</ele>
        <time>2016-11-16T15:17:40Z</time>
      </trkpt>
      <trkpt lat="43.42878" lon="6.00547">
        <ele>417.60000610352</ele>
        <time>2016-11-16T15:17:42Z</time>
      </trkpt>
      <trkpt lat="43.42878" lon="6.00557">
        <ele>416.20001220703</ele>
        <time>2016-11-16T15:17:44Z</time>
      </trkpt>
      <trkpt lat="43.42875" lon="6.00569">
        <ele>414.79998779297</ele>
        <time>2016-11-16T15:17:47Z</time>
      </trkpt>
      <trkpt lat="43.42875" lon="6.00581">
        <ele>413.60000610352</ele>
        <time>2016-11-16T15:17:50Z</time>
      </trkpt>
      <trkpt lat="43.42875" lon="6.00595">
        <ele>412</ele>
        <time>2016-11-16T15:17:54Z</time>
      </trkpt>
      <trkpt lat="43.42872" lon="6.00603">
        <ele>410.39999389648</ele>
        <time>2016-11-16T15:17:56Z</time>
      </trkpt>
      <trkpt lat="43.4287" lon="6.00609">
        <ele>409</ele>
        <time>2016-11-16T15:17:58Z</time>
      </trkpt>
      <trkpt lat="43.42868" lon="6.00627">
        <ele>406.20001220703</ele>
        <time>2016-11-16T15:18:03Z</time>
      </trkpt>
      <trkpt lat="43.42868" lon="6.0063">
        <ele>405.39999389648</ele>
        <time>2016-11-16T15:18:04Z</time>
      </trkpt>
      <trkpt lat="43.42867" lon="6.00633">
        <ele>404</ele>
        <time>2016-11-16T15:18:05Z</time>
      </trkpt>
      <trkpt lat="43.42865" lon="6.00639">
        <ele>402.79998779297</ele>
        <time>2016-11-16T15:18:07Z</time>
      </trkpt>
      <trkpt lat="43.42863" lon="6.00647">
        <ele>401.20001220703</ele>
        <time>2016-11-16T15:18:09Z</time>
      </trkpt>
      <trkpt lat="43.4286" lon="6.0067">
        <ele>398.79998779297</ele>
        <time>2016-11-16T15:18:14Z</time>
      </trkpt>
      <trkpt lat="43.42855" lon="6.00689">
        <ele>397.79998779297</ele>
        <time>2016-11-16T15:18:17Z</time>
      </trkpt>
      <trkpt lat="43.42854" lon="6.00696">
        <ele>397</ele>
        <time>2016-11-16T15:18:18Z</time>
      </trkpt>
      <trkpt lat="43.42853" lon="6.00704">
        <ele>396.20001220703</ele>
        <time>2016-11-16T15:18:19Z</time>
      </trkpt>
      <trkpt lat="43.4285" lon="6.00711">
        <ele>395.39999389648</ele>
        <time>2016-11-16T15:18:20Z</time>
      </trkpt>
      <trkpt lat="43.42849" lon="6.00719">
        <ele>394.79998779297</ele>
        <time>2016-11-16T15:18:21Z</time>
      </trkpt>
      <trkpt lat="43.42842" lon="6.00743">
        <ele>394.20001220703</ele>
        <time>2016-11-16T15:18:24Z</time>
      </trkpt>
      <trkpt lat="43.42841" lon="6.00751">
        <ele>394</ele>
        <time>2016-11-16T15:18:25Z</time>
      </trkpt>
      <trkpt lat="43.42839" lon="6.00758">
        <ele>393.60000610352</ele>
        <time>2016-11-16T15:18:26Z</time>
      </trkpt>
      <trkpt lat="43.42838" lon="6.00766">
        <ele>393.60000610352</ele>
        <time>2016-11-16T15:18:27Z</time>
      </trkpt>
      <trkpt lat="43.42835" lon="6.00772">
        <ele>393.20001220703</ele>
        <time>2016-11-16T15:18:28Z</time>
      </trkpt>
      <trkpt lat="43.42831" lon="6.00777">
        <ele>392.60000610352</ele>
        <time>2016-11-16T15:18:29Z</time>
      </trkpt>
      <trkpt lat="43.42828" lon="6.0078">
        <ele>392.20001220703</ele>
        <time>2016-11-16T15:18:30Z</time>
      </trkpt>
      <trkpt lat="43.42815" lon="6.00786">
        <ele>391.60000610352</ele>
        <time>2016-11-16T15:18:34Z</time>
      </trkpt>
      <trkpt lat="43.42811" lon="6.00782">
        <ele>392.20001220703</ele>
        <time>2016-11-16T15:18:36Z</time>
      </trkpt>
      <trkpt lat="43.42809" lon="6.00782">
        <ele>392.39999389648</ele>
        <time>2016-11-16T15:18:37Z</time>
      </trkpt>
      <trkpt lat="43.42803" lon="6.00781">
        <ele>393.60000610352</ele>
        <time>2016-11-16T15:18:40Z</time>
      </trkpt>
      <trkpt lat="43.42798" lon="6.00782">
        <ele>394.79998779297</ele>
        <time>2016-11-16T15:18:43Z</time>
      </trkpt>
      <trkpt lat="43.42797" lon="6.00781">
        <ele>395</ele>
        <time>2016-11-16T15:18:44Z</time>
      </trkpt>
      <trkpt lat="43.42792" lon="6.0078">
        <ele>395.79998779297</ele>
        <time>2016-11-16T15:18:47Z</time>
      </trkpt>
      <trkpt lat="43.42786" lon="6.00779">
        <ele>397.39999389648</ele>
        <time>2016-11-16T15:18:50Z</time>
      </trkpt>
      <trkpt lat="43.42781" lon="6.00778">
        <ele>398.20001220703</ele>
        <time>2016-11-16T15:18:54Z</time>
      </trkpt>
      <trkpt lat="43.42779" lon="6.00777">
        <ele>398.39999389648</ele>
        <time>2016-11-16T15:18:55Z</time>
      </trkpt>
      <trkpt lat="43.42774" lon="6.00773">
        <ele>399.60000610352</ele>
        <time>2016-11-16T15:19:00Z</time>
      </trkpt>
      <trkpt lat="43.42773" lon="6.00772">
        <ele>400</ele>
        <time>2016-11-16T15:19:01Z</time>
      </trkpt>
      <trkpt lat="43.42771" lon="6.0077">
        <ele>400.39999389648</ele>
        <time>2016-11-16T15:19:03Z</time>
      </trkpt>
      <trkpt lat="43.42769" lon="6.00768">
        <ele>400.60000610352</ele>
        <time>2016-11-16T15:19:05Z</time>
      </trkpt>
      <trkpt lat="43.42763" lon="6.00765">
        <ele>401.79998779297</ele>
        <time>2016-11-16T15:19:10Z</time>
      </trkpt>
      <trkpt lat="43.42759" lon="6.00762">
        <ele>402.20001220703</ele>
        <time>2016-11-16T15:19:13Z</time>
      </trkpt>
      <trkpt lat="43.42758" lon="6.00762">
        <ele>402.20001220703</ele>
        <time>2016-11-16T15:19:14Z</time>
      </trkpt>
      <trkpt lat="43.42754" lon="6.00758">
        <ele>402.79998779297</ele>
        <time>2016-11-16T15:19:18Z</time>
      </trkpt>
      <trkpt lat="43.42746" lon="6.00754">
        <ele>403.39999389648</ele>
        <time>2016-11-16T15:19:24Z</time>
      </trkpt>
      <trkpt lat="43.42741" lon="6.00753">
        <ele>403.79998779297</ele>
        <time>2016-11-16T15:19:31Z</time>
      </trkpt>
      <trkpt lat="43.42741" lon="6.00753">
        <ele>404</ele>
        <time>2016-11-16T15:19:33Z</time>
      </trkpt>
      <trkpt lat="43.42741" lon="6.00753">
        <ele>404</ele>
        <time>2016-11-16T15:19:34Z</time>
      </trkpt>
      <trkpt lat="43.42741" lon="6.00753">
        <ele>404</ele>
        <time>2016-11-16T15:19:36Z</time>
      </trkpt>
      <trkpt lat="43.4274" lon="6.00752">
        <ele>404</ele>
        <time>2016-11-16T15:19:47Z</time>
      </trkpt>
      <trkpt lat="43.4274" lon="6.00752">
        <ele>404</ele>
        <time>2016-11-16T15:19:54Z</time>
      </trkpt>
      <trkpt lat="43.4274" lon="6.00752">
        <ele>404</ele>
        <time>2016-11-16T15:20:00Z</time>
      </trkpt>
      <trkpt lat="43.4274" lon="6.00752">
        <ele>404.39999389648</ele>
        <time>2016-11-16T15:20:11Z</time>
      </trkpt>
      <trkpt lat="43.4274" lon="6.00751">
        <ele>404.79998779297</ele>
        <time>2016-11-16T15:20:24Z</time>
      </trkpt>
      <trkpt lat="43.42741" lon="6.0075">
        <ele>404.79998779297</ele>
        <time>2016-11-16T15:20:34Z</time>
      </trkpt>
      <trkpt lat="43.4274" lon="6.0075">
        <ele>404.79998779297</ele>
        <time>2016-11-16T15:20:44Z</time>
      </trkpt>
      <trkpt lat="43.4274" lon="6.00749">
        <ele>404.60000610352</ele>
        <time>2016-11-16T15:21:04Z</time>
      </trkpt>
      <trkpt lat="43.42741" lon="6.00749">
        <ele>404.39999389648</ele>
        <time>2016-11-16T15:21:14Z</time>
      </trkpt>
      <trkpt lat="43.42741" lon="6.00749">
        <ele>404.60000610352</ele>
        <time>2016-11-16T15:21:24Z</time>
      </trkpt>
      <trkpt lat="43.4274" lon="6.00748">
        <ele>404.60000610352</ele>
        <time>2016-11-16T15:21:34Z</time>
      </trkpt>
      <trkpt lat="43.4274" lon="6.00748">
        <ele>404.79998779297</ele>
        <time>2016-11-16T15:21:44Z</time>
      </trkpt>
      <trkpt lat="43.42739" lon="6.00747">
        <ele>404.79998779297</ele>
        <time>2016-11-16T15:21:47Z</time>
      </trkpt>
      <trkpt lat="43.42738" lon="6.00748">
        <ele>404.79998779297</ele>
        <time>2016-11-16T15:21:54Z</time>
      </trkpt>
      <trkpt lat="43.42738" lon="6.00748">
        <ele>404.79998779297</ele>
        <time>2016-11-16T15:22:04Z</time>
      </trkpt>
      <trkpt lat="43.42738" lon="6.00748">
        <ele>404.79998779297</ele>
        <time>2016-11-16T15:22:14Z</time>
      </trkpt>
      <trkpt lat="43.42738" lon="6.00748">
        <ele>404.79998779297</ele>
        <time>2016-11-16T15:22:17Z</time>
      </trkpt>
      <trkpt lat="43.42739" lon="6.00748">
        <ele>404.79998779297</ele>
        <time>2016-11-16T15:22:23Z</time>
      </trkpt>
      <trkpt lat="43.42739" lon="6.00748">
        <ele>404.79998779297</ele>
        <time>2016-11-16T15:22:24Z</time>
      </trkpt>
      <trkpt lat="43.42739" lon="6.00748">
        <ele>404.79998779297</ele>
        <time>2016-11-16T15:22:27Z</time>
      </trkpt>
      <trkpt lat="43.42739" lon="6.00748">
        <ele>404.79998779297</ele>
        <time>2016-11-16T15:22:34Z</time>
      </trkpt>
      <trkpt lat="43.4274" lon="6.00749">
        <ele>404.79998779297</ele>
        <time>2016-11-16T15:22:38Z</time>
      </trkpt>
      <trkpt lat="43.4274" lon="6.00749">
        <ele>404.79998779297</ele>
        <time>2016-11-16T15:22:44Z</time>
      </trkpt>
      <trkpt lat="43.42739" lon="6.00749">
        <ele>404.79998779297</ele>
        <time>2016-11-16T15:22:54Z</time>
      </trkpt>
      <trkpt lat="43.42739" lon="6.00749">
        <ele>404.79998779297</ele>
        <time>2016-11-16T15:23:04Z</time>
      </trkpt>
      <trkpt lat="43.42738" lon="6.0075">
        <ele>404.79998779297</ele>
        <time>2016-11-16T15:23:14Z</time>
      </trkpt>
      <trkpt lat="43.42738" lon="6.0075">
        <ele>404.79998779297</ele>
        <time>2016-11-16T15:23:24Z</time>
      </trkpt>
      <trkpt lat="43.42739" lon="6.00749">
        <ele>404.79998779297</ele>
        <time>2016-11-16T15:23:34Z</time>
      </trkpt>
      <trkpt lat="43.42739" lon="6.0075">
        <ele>404.79998779297</ele>
        <time>2016-11-16T15:23:44Z</time>
      </trkpt>
      <trkpt lat="43.42741" lon="6.00749">
        <ele>404.79998779297</ele>
        <time>2016-11-16T15:23:54Z</time>
      </trkpt>
      <trkpt lat="43.42742" lon="6.00749">
        <ele>404.79998779297</ele>
        <time>2016-11-16T15:24:04Z</time>
      </trkpt>
      <trkpt lat="43.42745" lon="6.00747">
        <ele>404.79998779297</ele>
        <time>2016-11-16T15:24:14Z</time>
      </trkpt>
      <trkpt lat="43.42745" lon="6.00747">
        <ele>404.79998779297</ele>
        <time>2016-11-16T15:24:24Z</time>
      </trkpt>
      <trkpt lat="43.42745" lon="6.00746">
        <ele>404.79998779297</ele>
        <time>2016-11-16T15:24:34Z</time>
      </trkpt>
      <trkpt lat="43.42744" lon="6.00745">
        <ele>404.79998779297</ele>
        <time>2016-11-16T15:24:44Z</time>
      </trkpt>
      <trkpt lat="43.42741" lon="6.00744">
        <ele>404.79998779297</ele>
        <time>2016-11-16T15:24:49Z</time>
      </trkpt>
      <trkpt lat="43.42741" lon="6.00744">
        <ele>404.79998779297</ele>
        <time>2016-11-16T15:24:54Z</time>
      </trkpt>
      <trkpt lat="43.42741" lon="6.00744">
        <ele>404.79998779297</ele>
        <time>2016-11-16T15:24:57Z</time>
      </trkpt>
      <trkpt lat="43.42741" lon="6.00744">
        <ele>404.79998779297</ele>
        <time>2016-11-16T15:25:04Z</time>
      </trkpt>
      <trkpt lat="43.42741" lon="6.00746">
        <ele>404.79998779297</ele>
        <time>2016-11-16T15:25:14Z</time>
      </trkpt>
      <trkpt lat="43.42739" lon="6.00747">
        <ele>404.79998779297</ele>
        <time>2016-11-16T15:25:22Z</time>
      </trkpt>
      <trkpt lat="43.42738" lon="6.00747">
        <ele>404.79998779297</ele>
        <time>2016-11-16T15:25:23Z</time>
      </trkpt>
      <trkpt lat="43.42737" lon="6.00748">
        <ele>404.39999389648</ele>
        <time>2016-11-16T15:25:24Z</time>
      </trkpt>
      <trkpt lat="43.42734" lon="6.0075">
        <ele>404.20001220703</ele>
        <time>2016-11-16T15:25:26Z</time>
      </trkpt>
      <trkpt lat="43.42728" lon="6.00753">
        <ele>404.79998779297</ele>
        <time>2016-11-16T15:25:29Z</time>
      </trkpt>
      <trkpt lat="43.42725" lon="6.00753">
        <ele>404.60000610352</ele>
        <time>2016-11-16T15:25:30Z</time>
      </trkpt>
      <trkpt lat="43.42714" lon="6.00754">
        <ele>405</ele>
        <time>2016-11-16T15:25:34Z</time>
      </trkpt>
      <trkpt lat="43.42712" lon="6.00755">
        <ele>405</ele>
        <time>2016-11-16T15:25:35Z</time>
      </trkpt>
      <trkpt lat="43.42696" lon="6.0078">
        <ele>405</ele>
        <time>2016-11-16T15:25:44Z</time>
      </trkpt>
      <trkpt lat="43.42683" lon="6.00791">
        <ele>405.60000610352</ele>
        <time>2016-11-16T15:25:51Z</time>
      </trkpt>
      <trkpt lat="43.42681" lon="6.00793">
        <ele>405.60000610352</ele>
        <time>2016-11-16T15:25:52Z</time>
      </trkpt>
      <trkpt lat="43.42676" lon="6.00798">
        <ele>405.60000610352</ele>
        <time>2016-11-16T15:25:54Z</time>
      </trkpt>
      <trkpt lat="43.42672" lon="6.00804">
        <ele>405.20001220703</ele>
        <time>2016-11-16T15:25:56Z</time>
      </trkpt>
      <trkpt lat="43.42659" lon="6.00816">
        <ele>404.39999389648</ele>
        <time>2016-11-16T15:26:02Z</time>
      </trkpt>
      <trkpt lat="43.42654" lon="6.00812">
        <ele>404.20001220703</ele>
        <time>2016-11-16T15:26:04Z</time>
      </trkpt>
      <trkpt lat="43.42645" lon="6.00807">
        <ele>404.60000610352</ele>
        <time>2016-11-16T15:26:07Z</time>
      </trkpt>
      <trkpt lat="43.42642" lon="6.0081">
        <ele>404.79998779297</ele>
        <time>2016-11-16T15:26:09Z</time>
      </trkpt>
      <trkpt lat="43.42639" lon="6.00824">
        <ele>404.79998779297</ele>
        <time>2016-11-16T15:26:14Z</time>
      </trkpt>
      <trkpt lat="43.42625" lon="6.00845">
        <ele>406</ele>
        <time>2016-11-16T15:26:23Z</time>
      </trkpt>
      <trkpt lat="43.42623" lon="6.00848">
        <ele>406</ele>
        <time>2016-11-16T15:26:24Z</time>
      </trkpt>
      <trkpt lat="43.42621" lon="6.00851">
        <ele>406.20001220703</ele>
        <time>2016-11-16T15:26:25Z</time>
      </trkpt>
      <trkpt lat="43.42614" lon="6.00901">
        <ele>407</ele>
        <time>2016-11-16T15:26:38Z</time>
      </trkpt>
      <trkpt lat="43.42611" lon="6.00925">
        <ele>407.20001220703</ele>
        <time>2016-11-16T15:26:44Z</time>
      </trkpt>
      <trkpt lat="43.42602" lon="6.00967">
        <ele>406.79998779297</ele>
        <time>2016-11-16T15:26:54Z</time>
      </trkpt>
      <trkpt lat="43.42598" lon="6.0099">
        <ele>406</ele>
        <time>2016-11-16T15:26:59Z</time>
      </trkpt>
      <trkpt lat="43.42598" lon="6.01027">
        <ele>405</ele>
        <time>2016-11-16T15:27:05Z</time>
      </trkpt>
      <trkpt lat="43.42598" lon="6.01035">
        <ele>404.60000610352</ele>
        <time>2016-11-16T15:27:06Z</time>
      </trkpt>
      <trkpt lat="43.42598" lon="6.01042">
        <ele>404.20001220703</ele>
        <time>2016-11-16T15:27:07Z</time>
      </trkpt>
      <trkpt lat="43.42599" lon="6.01057">
        <ele>403.39999389648</ele>
        <time>2016-11-16T15:27:09Z</time>
      </trkpt>
      <trkpt lat="43.42599" lon="6.01072">
        <ele>402.79998779297</ele>
        <time>2016-11-16T15:27:11Z</time>
      </trkpt>
      <trkpt lat="43.42597" lon="6.0108">
        <ele>402.60000610352</ele>
        <time>2016-11-16T15:27:13Z</time>
      </trkpt>
      <trkpt lat="43.42595" lon="6.01082">
        <ele>402.60000610352</ele>
        <time>2016-11-16T15:27:14Z</time>
      </trkpt>
      <trkpt lat="43.42587" lon="6.01085">
        <ele>402.79998779297</ele>
        <time>2016-11-16T15:27:17Z</time>
      </trkpt>
      <trkpt lat="43.42583" lon="6.01086">
        <ele>402.79998779297</ele>
        <time>2016-11-16T15:27:18Z</time>
      </trkpt>
      <trkpt lat="43.42581" lon="6.01089">
        <ele>402.60000610352</ele>
        <time>2016-11-16T15:27:19Z</time>
      </trkpt>
      <trkpt lat="43.4258" lon="6.01096">
        <ele>402.39999389648</ele>
        <time>2016-11-16T15:27:21Z</time>
      </trkpt>
      <trkpt lat="43.42581" lon="6.01099">
        <ele>402.39999389648</ele>
        <time>2016-11-16T15:27:22Z</time>
      </trkpt>
      <trkpt lat="43.42581" lon="6.01105">
        <ele>401.79998779297</ele>
        <time>2016-11-16T15:27:24Z</time>
      </trkpt>
      <trkpt lat="43.42583" lon="6.01118">
        <ele>401.39999389648</ele>
        <time>2016-11-16T15:27:27Z</time>
      </trkpt>
      <trkpt lat="43.42584" lon="6.01128">
        <ele>401.20001220703</ele>
        <time>2016-11-16T15:27:29Z</time>
      </trkpt>
      <trkpt lat="43.42583" lon="6.01136">
        <ele>401.20001220703</ele>
        <time>2016-11-16T15:27:31Z</time>
      </trkpt>
      <trkpt lat="43.42579" lon="6.01138">
        <ele>401</ele>
        <time>2016-11-16T15:27:33Z</time>
      </trkpt>
      <trkpt lat="43.42575" lon="6.01139">
        <ele>401</ele>
        <time>2016-11-16T15:27:34Z</time>
      </trkpt>
      <trkpt lat="43.42568" lon="6.0114">
        <ele>400.60000610352</ele>
        <time>2016-11-16T15:27:36Z</time>
      </trkpt>
      <trkpt lat="43.42564" lon="6.0114">
        <ele>400.20001220703</ele>
        <time>2016-11-16T15:27:37Z</time>
      </trkpt>
      <trkpt lat="43.42559" lon="6.01139">
        <ele>400</ele>
        <time>2016-11-16T15:27:38Z</time>
      </trkpt>
      <trkpt lat="43.42555" lon="6.01138">
        <ele>399</ele>
        <time>2016-11-16T15:27:39Z</time>
      </trkpt>
      <trkpt lat="43.42547" lon="6.01137">
        <ele>397.39999389648</ele>
        <time>2016-11-16T15:27:41Z</time>
      </trkpt>
      <trkpt lat="43.42537" lon="6.01142">
        <ele>396</ele>
        <time>2016-11-16T15:27:44Z</time>
      </trkpt>
      <trkpt lat="43.42536" lon="6.01154">
        <ele>394.39999389648</ele>
        <time>2016-11-16T15:27:47Z</time>
      </trkpt>
      <trkpt lat="43.42536" lon="6.0117">
        <ele>393.20001220703</ele>
        <time>2016-11-16T15:27:50Z</time>
      </trkpt>
      <trkpt lat="43.42535" lon="6.01183">
        <ele>393</ele>
        <time>2016-11-16T15:27:52Z</time>
      </trkpt>
      <trkpt lat="43.42533" lon="6.01188">
        <ele>392.60000610352</ele>
        <time>2016-11-16T15:27:53Z</time>
      </trkpt>
      <trkpt lat="43.42532" lon="6.01194">
        <ele>392.60000610352</ele>
        <time>2016-11-16T15:27:54Z</time>
      </trkpt>
      <trkpt lat="43.4253" lon="6.01202">
        <ele>392</ele>
        <time>2016-11-16T15:27:56Z</time>
      </trkpt>
      <trkpt lat="43.42523" lon="6.0121">
        <ele>390.79998779297</ele>
        <time>2016-11-16T15:27:59Z</time>
      </trkpt>
      <trkpt lat="43.4251" lon="6.01217">
        <ele>388.20001220703</ele>
        <time>2016-11-16T15:28:04Z</time>
      </trkpt>
      <trkpt lat="43.42503" lon="6.01222">
        <ele>386.79998779297</ele>
        <time>2016-11-16T15:28:07Z</time>
      </trkpt>
      <trkpt lat="43.42497" lon="6.01226">
        <ele>385.39999389648</ele>
        <time>2016-11-16T15:28:10Z</time>
      </trkpt>
      <trkpt lat="43.42493" lon="6.01229">
        <ele>384.20001220703</ele>
        <time>2016-11-16T15:28:12Z</time>
      </trkpt>
      <trkpt lat="43.42489" lon="6.01237">
        <ele>382.79998779297</ele>
        <time>2016-11-16T15:28:14Z</time>
      </trkpt>
      <trkpt lat="43.42487" lon="6.01245">
        <ele>382.20001220703</ele>
        <time>2016-11-16T15:28:16Z</time>
      </trkpt>
      <trkpt lat="43.4248" lon="6.01253">
        <ele>381.60000610352</ele>
        <time>2016-11-16T15:28:18Z</time>
      </trkpt>
      <trkpt lat="43.42478" lon="6.01255">
        <ele>381.60000610352</ele>
        <time>2016-11-16T15:28:19Z</time>
      </trkpt>
      <trkpt lat="43.42476" lon="6.01257">
        <ele>381.39999389648</ele>
        <time>2016-11-16T15:28:20Z</time>
      </trkpt>
      <trkpt lat="43.42476" lon="6.01258">
        <ele>381.20001220703</ele>
        <time>2016-11-16T15:28:22Z</time>
      </trkpt>
      <trkpt lat="43.42476" lon="6.01258">
        <ele>381.20001220703</ele>
        <time>2016-11-16T15:28:24Z</time>
      </trkpt>
      <trkpt lat="43.42476" lon="6.01258">
        <ele>381.39999389648</ele>
        <time>2016-11-16T15:28:29Z</time>
      </trkpt>
      <trkpt lat="43.42476" lon="6.01258">
        <ele>381.39999389648</ele>
        <time>2016-11-16T15:28:42Z</time>
      </trkpt>
      <trkpt lat="43.42476" lon="6.01258">
        <ele>381.39999389648</ele>
        <time>2016-11-16T15:28:44Z</time>
      </trkpt>
      <trkpt lat="43.42477" lon="6.01258">
        <ele>380.79998779297</ele>
        <time>2016-11-16T15:28:52Z</time>
      </trkpt>
      <trkpt lat="43.42477" lon="6.01258">
        <ele>380.79998779297</ele>
        <time>2016-11-16T15:28:54Z</time>
      </trkpt>
      <trkpt lat="43.42477" lon="6.01257">
        <ele>380.79998779297</ele>
        <time>2016-11-16T15:29:00Z</time>
      </trkpt>
      <trkpt lat="43.42477" lon="6.01258">
        <ele>381</ele>
        <time>2016-11-16T15:29:14Z</time>
      </trkpt>
      <trkpt lat="43.42477" lon="6.01258">
        <ele>381</ele>
        <time>2016-11-16T15:29:15Z</time>
      </trkpt>
      <trkpt lat="43.42477" lon="6.01258">
        <ele>381</ele>
        <time>2016-11-16T15:29:19Z</time>
      </trkpt>
      <trkpt lat="43.42477" lon="6.01257">
        <ele>381.20001220703</ele>
        <time>2016-11-16T15:29:54Z</time>
      </trkpt>
      <trkpt lat="43.42477" lon="6.01256">
        <ele>381.20001220703</ele>
        <time>2016-11-16T15:30:04Z</time>
      </trkpt>
      <trkpt lat="43.42477" lon="6.01256">
        <ele>381.20001220703</ele>
        <time>2016-11-16T15:30:14Z</time>
      </trkpt>
      <trkpt lat="43.42476" lon="6.01257">
        <ele>381.20001220703</ele>
        <time>2016-11-16T15:30:24Z</time>
      </trkpt>
      <trkpt lat="43.42476" lon="6.01257">
        <ele>381.20001220703</ele>
        <time>2016-11-16T15:30:34Z</time>
      </trkpt>
      <trkpt lat="43.42476" lon="6.01258">
        <ele>381.20001220703</ele>
        <time>2016-11-16T15:30:44Z</time>
      </trkpt>
      <trkpt lat="43.42476" lon="6.01259">
        <ele>381.20001220703</ele>
        <time>2016-11-16T15:30:49Z</time>
      </trkpt>
      <trkpt lat="43.42476" lon="6.01259">
        <ele>381.20001220703</ele>
        <time>2016-11-16T15:30:54Z</time>
      </trkpt>
      <trkpt lat="43.42476" lon="6.01259">
        <ele>381.20001220703</ele>
        <time>2016-11-16T15:31:04Z</time>
      </trkpt>
      <trkpt lat="43.42476" lon="6.01259">
        <ele>381.20001220703</ele>
        <time>2016-11-16T15:31:24Z</time>
      </trkpt>
      <trkpt lat="43.42477" lon="6.01259">
        <ele>381.20001220703</ele>
        <time>2016-11-16T15:31:34Z</time>
      </trkpt>
      <trkpt lat="43.42477" lon="6.01256">
        <ele>381.20001220703</ele>
        <time>2016-11-16T15:31:39Z</time>
      </trkpt>
      <trkpt lat="43.42478" lon="6.0125">
        <ele>381</ele>
        <time>2016-11-16T15:31:41Z</time>
      </trkpt>
      <trkpt lat="43.42477" lon="6.01243">
        <ele>380.60000610352</ele>
        <time>2016-11-16T15:31:43Z</time>
      </trkpt>
      <trkpt lat="43.42477" lon="6.01239">
        <ele>380.39999389648</ele>
        <time>2016-11-16T15:31:44Z</time>
      </trkpt>
      <trkpt lat="43.42468" lon="6.01208">
        <ele>379.20001220703</ele>
        <time>2016-11-16T15:31:49Z</time>
      </trkpt>
      <trkpt lat="43.42463" lon="6.01192">
        <ele>378</ele>
        <time>2016-11-16T15:31:51Z</time>
      </trkpt>
      <trkpt lat="43.42456" lon="6.01174">
        <ele>376.79998779297</ele>
        <time>2016-11-16T15:31:53Z</time>
      </trkpt>
      <trkpt lat="43.42452" lon="6.01164">
        <ele>376.20001220703</ele>
        <time>2016-11-16T15:31:54Z</time>
      </trkpt>
      <trkpt lat="43.42448" lon="6.01154">
        <ele>375.39999389648</ele>
        <time>2016-11-16T15:31:55Z</time>
      </trkpt>
      <trkpt lat="43.4244" lon="6.01131">
        <ele>373.79998779297</ele>
        <time>2016-11-16T15:31:57Z</time>
      </trkpt>
      <trkpt lat="43.42436" lon="6.01118">
        <ele>372.79998779297</ele>
        <time>2016-11-16T15:31:58Z</time>
      </trkpt>
      <trkpt lat="43.42432" lon="6.01106">
        <ele>371.20001220703</ele>
        <time>2016-11-16T15:31:59Z</time>
      </trkpt>
      <trkpt lat="43.42429" lon="6.01093">
        <ele>370</ele>
        <time>2016-11-16T15:32:00Z</time>
      </trkpt>
      <trkpt lat="43.42421" lon="6.01038">
        <ele>366.39999389648</ele>
        <time>2016-11-16T15:32:04Z</time>
      </trkpt>
      <trkpt lat="43.4242" lon="6.01023">
        <ele>365.60000610352</ele>
        <time>2016-11-16T15:32:05Z</time>
      </trkpt>
      <trkpt lat="43.42417" lon="6.00978">
        <ele>362.20001220703</ele>
        <time>2016-11-16T15:32:08Z</time>
      </trkpt>
      <trkpt lat="43.42415" lon="6.00946">
        <ele>360.39999389648</ele>
        <time>2016-11-16T15:32:10Z</time>
      </trkpt>
      <trkpt lat="43.42414" lon="6.00896">
        <ele>356.79998779297</ele>
        <time>2016-11-16T15:32:13Z</time>
      </trkpt>
      <trkpt lat="43.42413" lon="6.00879">
        <ele>355.39999389648</ele>
        <time>2016-11-16T15:32:14Z</time>
      </trkpt>
      <trkpt lat="43.42414" lon="6.00861">
        <ele>354.20001220703</ele>
        <time>2016-11-16T15:32:15Z</time>
      </trkpt>
      <trkpt lat="43.42416" lon="6.00825">
        <ele>352.20001220703</ele>
        <time>2016-11-16T15:32:17Z</time>
      </trkpt>
      <trkpt lat="43.42422" lon="6.00751">
        <ele>347.20001220703</ele>
        <time>2016-11-16T15:32:21Z</time>
      </trkpt>
      <trkpt lat="43.42424" lon="6.00713">
        <ele>344.60000610352</ele>
        <time>2016-11-16T15:32:23Z</time>
      </trkpt>
      <trkpt lat="43.42424" lon="6.00694">
        <ele>343.60000610352</ele>
        <time>2016-11-16T15:32:24Z</time>
      </trkpt>
      <trkpt lat="43.42422" lon="6.00675">
        <ele>342.79998779297</ele>
        <time>2016-11-16T15:32:25Z</time>
      </trkpt>
      <trkpt lat="43.42421" lon="6.00655">
        <ele>342</ele>
        <time>2016-11-16T15:32:26Z</time>
      </trkpt>
      <trkpt lat="43.42416" lon="6.00617">
        <ele>339.20001220703</ele>
        <time>2016-11-16T15:32:28Z</time>
      </trkpt>
      <trkpt lat="43.42413" lon="6.00598">
        <ele>337.39999389648</ele>
        <time>2016-11-16T15:32:29Z</time>
      </trkpt>
      <trkpt lat="43.42411" lon="6.00579">
        <ele>336.39999389648</ele>
        <time>2016-11-16T15:32:30Z</time>
      </trkpt>
      <trkpt lat="43.42409" lon="6.00559">
        <ele>335.20001220703</ele>
        <time>2016-11-16T15:32:31Z</time>
      </trkpt>
      <trkpt lat="43.42408" lon="6.0054">
        <ele>334.20001220703</ele>
        <time>2016-11-16T15:32:32Z</time>
      </trkpt>
      <trkpt lat="43.42406" lon="6.00521">
        <ele>333</ele>
        <time>2016-11-16T15:32:33Z</time>
      </trkpt>
      <trkpt lat="43.42406" lon="6.00484">
        <ele>331.20001220703</ele>
        <time>2016-11-16T15:32:35Z</time>
      </trkpt>
      <trkpt lat="43.42409" lon="6.00449">
        <ele>329.60000610352</ele>
        <time>2016-11-16T15:32:37Z</time>
      </trkpt>
      <trkpt lat="43.4241" lon="6.00397">
        <ele>328.39999389648</ele>
        <time>2016-11-16T15:32:40Z</time>
      </trkpt>
      <trkpt lat="43.42402" lon="6.00346">
        <ele>326.79998779297</ele>
        <time>2016-11-16T15:32:43Z</time>
      </trkpt>
      <trkpt lat="43.42397" lon="6.00313">
        <ele>325.20001220703</ele>
        <time>2016-11-16T15:32:45Z</time>
      </trkpt>
      <trkpt lat="43.42392" lon="6.00279">
        <ele>323.79998779297</ele>
        <time>2016-11-16T15:32:47Z</time>
      </trkpt>
      <trkpt lat="43.42391" lon="6.00262">
        <ele>322.79998779297</ele>
        <time>2016-11-16T15:32:48Z</time>
      </trkpt>
      <trkpt lat="43.42388" lon="6.00227">
        <ele>320.79998779297</ele>
        <time>2016-11-16T15:32:50Z</time>
      </trkpt>
      <trkpt lat="43.42384" lon="6.00192">
        <ele>318.39999389648</ele>
        <time>2016-11-16T15:32:52Z</time>
      </trkpt>
      <trkpt lat="43.42382" lon="6.00175">
        <ele>317.39999389648</ele>
        <time>2016-11-16T15:32:53Z</time>
      </trkpt>
      <trkpt lat="43.42379" lon="6.00139">
        <ele>315</ele>
        <time>2016-11-16T15:32:55Z</time>
      </trkpt>
      <trkpt lat="43.42378" lon="6.00121">
        <ele>314</ele>
        <time>2016-11-16T15:32:56Z</time>
      </trkpt>
      <trkpt lat="43.42374" lon="6.00067">
        <ele>310.39999389648</ele>
        <time>2016-11-16T15:32:59Z</time>
      </trkpt>
      <trkpt lat="43.42373" lon="6.0003">
        <ele>308.39999389648</ele>
        <time>2016-11-16T15:33:01Z</time>
      </trkpt>
      <trkpt lat="43.42371" lon="6.00011">
        <ele>307.20001220703</ele>
        <time>2016-11-16T15:33:02Z</time>
      </trkpt>
      <trkpt lat="43.42371" lon="5.99993">
        <ele>305.79998779297</ele>
        <time>2016-11-16T15:33:03Z</time>
      </trkpt>
      <trkpt lat="43.42371" lon="5.99976">
        <ele>304.39999389648</ele>
        <time>2016-11-16T15:33:04Z</time>
      </trkpt>
      <trkpt lat="43.4237" lon="5.9996">
        <ele>303.20001220703</ele>
        <time>2016-11-16T15:33:05Z</time>
      </trkpt>
      <trkpt lat="43.42369" lon="5.99944">
        <ele>302</ele>
        <time>2016-11-16T15:33:06Z</time>
      </trkpt>
      <trkpt lat="43.42369" lon="5.99929">
        <ele>301</ele>
        <time>2016-11-16T15:33:07Z</time>
      </trkpt>
      <trkpt lat="43.42368" lon="5.99905">
        <ele>299.20001220703</ele>
        <time>2016-11-16T15:33:09Z</time>
      </trkpt>
      <trkpt lat="43.42368" lon="5.99885">
        <ele>298.20001220703</ele>
        <time>2016-11-16T15:33:11Z</time>
      </trkpt>
      <trkpt lat="43.42367" lon="5.99877">
        <ele>297.79998779297</ele>
        <time>2016-11-16T15:33:12Z</time>
      </trkpt>
      <trkpt lat="43.42366" lon="5.99865">
        <ele>297.20001220703</ele>
        <time>2016-11-16T15:33:14Z</time>
      </trkpt>
      <trkpt lat="43.42365" lon="5.99862">
        <ele>297</ele>
        <time>2016-11-16T15:33:15Z</time>
      </trkpt>
      <trkpt lat="43.42366" lon="5.99861">
        <ele>296.39999389648</ele>
        <time>2016-11-16T15:33:23Z</time>
      </trkpt>
      <trkpt lat="43.42366" lon="5.99861">
        <ele>296.39999389648</ele>
        <time>2016-11-16T15:33:34Z</time>
      </trkpt>
      <trkpt lat="43.42365" lon="5.99861">
        <ele>295.79998779297</ele>
        <time>2016-11-16T15:34:14Z</time>
      </trkpt>
      <trkpt lat="43.42361" lon="5.99861">
        <ele>295.60000610352</ele>
        <time>2016-11-16T15:34:24Z</time>
      </trkpt>
      <trkpt lat="43.42353" lon="5.99858">
        <ele>295</ele>
        <time>2016-11-16T15:34:28Z</time>
      </trkpt>
      <trkpt lat="43.4235" lon="5.99856">
        <ele>294.79998779297</ele>
        <time>2016-11-16T15:34:29Z</time>
      </trkpt>
      <trkpt lat="43.4234" lon="5.99854">
        <ele>293.60000610352</ele>
        <time>2016-11-16T15:34:32Z</time>
      </trkpt>
      <trkpt lat="43.42337" lon="5.99855">
        <ele>293.20001220703</ele>
        <time>2016-11-16T15:34:34Z</time>
      </trkpt>
      <trkpt lat="43.4233" lon="5.99861">
        <ele>292.60000610352</ele>
        <time>2016-11-16T15:34:38Z</time>
      </trkpt>
      <trkpt lat="43.4232" lon="5.99878">
        <ele>292.20001220703</ele>
        <time>2016-11-16T15:34:44Z</time>
      </trkpt>
      <trkpt lat="43.42313" lon="5.99888">
        <ele>291.79998779297</ele>
        <time>2016-11-16T15:34:48Z</time>
      </trkpt>
      <trkpt lat="43.42312" lon="5.9989">
        <ele>291.79998779297</ele>
        <time>2016-11-16T15:34:49Z</time>
      </trkpt>
      <trkpt lat="43.42308" lon="5.99896">
        <ele>291.60000610352</ele>
        <time>2016-11-16T15:34:51Z</time>
      </trkpt>
      <trkpt lat="43.423" lon="5.99905">
        <ele>291</ele>
        <time>2016-11-16T15:34:54Z</time>
      </trkpt>
      <trkpt lat="43.42296" lon="5.99916">
        <ele>290.60000610352</ele>
        <time>2016-11-16T15:34:56Z</time>
      </trkpt>
      <trkpt lat="43.42295" lon="5.99922">
        <ele>290.39999389648</ele>
        <time>2016-11-16T15:34:57Z</time>
      </trkpt>
      <trkpt lat="43.42292" lon="5.99938">
        <ele>290.39999389648</ele>
        <time>2016-11-16T15:35:00Z</time>
      </trkpt>
      <trkpt lat="43.4229" lon="5.99943">
        <ele>290.39999389648</ele>
        <time>2016-11-16T15:35:01Z</time>
      </trkpt>
      <trkpt lat="43.42288" lon="5.99948">
        <ele>290.39999389648</ele>
        <time>2016-11-16T15:35:02Z</time>
      </trkpt>
      <trkpt lat="43.42276" lon="5.99973">
        <ele>291</ele>
        <time>2016-11-16T15:35:07Z</time>
      </trkpt>
      <trkpt lat="43.42275" lon="5.99979">
        <ele>291.20001220703</ele>
        <time>2016-11-16T15:35:08Z</time>
      </trkpt>
      <trkpt lat="43.42274" lon="5.99985">
        <ele>291.39999389648</ele>
        <time>2016-11-16T15:35:09Z</time>
      </trkpt>
      <trkpt lat="43.42273" lon="5.99997">
        <ele>291.39999389648</ele>
        <time>2016-11-16T15:35:11Z</time>
      </trkpt>
      <trkpt lat="43.42272" lon="6.00008">
        <ele>291.60000610352</ele>
        <time>2016-11-16T15:35:13Z</time>
      </trkpt>
      <trkpt lat="43.42271" lon="6.00014">
        <ele>291.79998779297</ele>
        <time>2016-11-16T15:35:14Z</time>
      </trkpt>
      <trkpt lat="43.4227" lon="6.00033">
        <ele>292</ele>
        <time>2016-11-16T15:35:17Z</time>
      </trkpt>
      <trkpt lat="43.42268" lon="6.00075">
        <ele>292.39999389648</ele>
        <time>2016-11-16T15:35:24Z</time>
      </trkpt>
      <trkpt lat="43.42266" lon="6.0011">
        <ele>293.60000610352</ele>
        <time>2016-11-16T15:35:31Z</time>
      </trkpt>
      <trkpt lat="43.42265" lon="6.00125">
        <ele>293.60000610352</ele>
        <time>2016-11-16T15:35:34Z</time>
      </trkpt>
      <trkpt lat="43.42264" lon="6.0014">
        <ele>293.60000610352</ele>
        <time>2016-11-16T15:35:37Z</time>
      </trkpt>
      <trkpt lat="43.42262" lon="6.00164">
        <ele>293.79998779297</ele>
        <time>2016-11-16T15:35:42Z</time>
      </trkpt>
      <trkpt lat="43.42261" lon="6.0018">
        <ele>293.60000610352</ele>
        <time>2016-11-16T15:35:45Z</time>
      </trkpt>
      <trkpt lat="43.42258" lon="6.00232">
        <ele>293.39999389648</ele>
        <time>2016-11-16T15:35:54Z</time>
      </trkpt>
      <trkpt lat="43.42253" lon="6.00294">
        <ele>292.60000610352</ele>
        <time>2016-11-16T15:36:04Z</time>
      </trkpt>
      <trkpt lat="43.4225" lon="6.00352">
        <ele>293.20001220703</ele>
        <time>2016-11-16T15:36:14Z</time>
      </trkpt>
      <trkpt lat="43.42246" lon="6.00409">
        <ele>294.39999389648</ele>
        <time>2016-11-16T15:36:24Z</time>
      </trkpt>
      <trkpt lat="43.42244" lon="6.0042">
        <ele>294.60000610352</ele>
        <time>2016-11-16T15:36:26Z</time>
      </trkpt>
      <trkpt lat="43.42241" lon="6.0046">
        <ele>294.79998779297</ele>
        <time>2016-11-16T15:36:33Z</time>
      </trkpt>
      <trkpt lat="43.42241" lon="6.00465">
        <ele>294.79998779297</ele>
        <time>2016-11-16T15:36:34Z</time>
      </trkpt>
      <trkpt lat="43.42239" lon="6.00486">
        <ele>294.60000610352</ele>
        <time>2016-11-16T15:36:39Z</time>
      </trkpt>
      <trkpt lat="43.42238" lon="6.00491">
        <ele>294.60000610352</ele>
        <time>2016-11-16T15:36:41Z</time>
      </trkpt>
      <trkpt lat="43.42238" lon="6.00491">
        <ele>294.79998779297</ele>
        <time>2016-11-16T15:36:56Z</time>
      </trkpt>
      <trkpt lat="43.42238" lon="6.00491">
        <ele>295</ele>
        <time>2016-11-16T15:37:13Z</time>
      </trkpt>
      <trkpt lat="43.42238" lon="6.00493">
        <ele>295</ele>
        <time>2016-11-16T15:37:14Z</time>
      </trkpt>
      <trkpt lat="43.42237" lon="6.00501">
        <ele>294.79998779297</ele>
        <time>2016-11-16T15:37:16Z</time>
      </trkpt>
      <trkpt lat="43.42231" lon="6.00553">
        <ele>294</ele>
        <time>2016-11-16T15:37:24Z</time>
      </trkpt>
      <trkpt lat="43.42228" lon="6.00578">
        <ele>293.20001220703</ele>
        <time>2016-11-16T15:37:27Z</time>
      </trkpt>
      <trkpt lat="43.42222" lon="6.00614">
        <ele>292</ele>
        <time>2016-11-16T15:37:31Z</time>
      </trkpt>
      <trkpt lat="43.42218" lon="6.00641">
        <ele>291</ele>
        <time>2016-11-16T15:37:34Z</time>
      </trkpt>
      <trkpt lat="43.42212" lon="6.00688">
        <ele>289.79998779297</ele>
        <time>2016-11-16T15:37:39Z</time>
      </trkpt>
      <trkpt lat="43.4221" lon="6.00716">
        <ele>289.60000610352</ele>
        <time>2016-11-16T15:37:42Z</time>
      </trkpt>
      <trkpt lat="43.42208" lon="6.00733">
        <ele>289.79998779297</ele>
        <time>2016-11-16T15:37:44Z</time>
      </trkpt>
      <trkpt lat="43.42205" lon="6.00758">
        <ele>290.20001220703</ele>
        <time>2016-11-16T15:37:47Z</time>
      </trkpt>
      <trkpt lat="43.42202" lon="6.00781">
        <ele>291</ele>
        <time>2016-11-16T15:37:50Z</time>
      </trkpt>
      <trkpt lat="43.42199" lon="6.0081">
        <ele>291.39999389648</ele>
        <time>2016-11-16T15:37:54Z</time>
      </trkpt>
      <trkpt lat="43.42194" lon="6.00851">
        <ele>291.39999389648</ele>
        <time>2016-11-16T15:38:00Z</time>
      </trkpt>
      <trkpt lat="43.4219" lon="6.00878">
        <ele>291</ele>
        <time>2016-11-16T15:38:04Z</time>
      </trkpt>
      <trkpt lat="43.42182" lon="6.00936">
        <ele>290</ele>
        <time>2016-11-16T15:38:12Z</time>
      </trkpt>
      <trkpt lat="43.4218" lon="6.0095">
        <ele>289.60000610352</ele>
        <time>2016-11-16T15:38:14Z</time>
      </trkpt>
      <trkpt lat="43.42168" lon="6.01024">
        <ele>289.60000610352</ele>
        <time>2016-11-16T15:38:24Z</time>
      </trkpt>
      <trkpt lat="43.42158" lon="6.01095">
        <ele>289.60000610352</ele>
        <time>2016-11-16T15:38:34Z</time>
      </trkpt>
      <trkpt lat="43.42151" lon="6.01138">
        <ele>291</ele>
        <time>2016-11-16T15:38:41Z</time>
      </trkpt>
      <trkpt lat="43.42148" lon="6.01158">
        <ele>291.39999389648</ele>
        <time>2016-11-16T15:38:44Z</time>
      </trkpt>
      <trkpt lat="43.42137" lon="6.01211">
        <ele>289.60000610352</ele>
        <time>2016-11-16T15:38:51Z</time>
      </trkpt>
      <trkpt lat="43.42133" lon="6.0123">
        <ele>288</ele>
        <time>2016-11-16T15:38:53Z</time>
      </trkpt>
      <trkpt lat="43.42131" lon="6.01239">
        <ele>287.39999389648</ele>
        <time>2016-11-16T15:38:54Z</time>
      </trkpt>
      <trkpt lat="43.42129" lon="6.01248">
        <ele>287</ele>
        <time>2016-11-16T15:38:55Z</time>
      </trkpt>
      <trkpt lat="43.42121" lon="6.01284">
        <ele>286.60000610352</ele>
        <time>2016-11-16T15:38:59Z</time>
      </trkpt>
      <trkpt lat="43.42112" lon="6.01326">
        <ele>286</ele>
        <time>2016-11-16T15:39:04Z</time>
      </trkpt>
      <trkpt lat="43.42107" lon="6.01351">
        <ele>286</ele>
        <time>2016-11-16T15:39:07Z</time>
      </trkpt>
      <trkpt lat="43.42096" lon="6.01402">
        <ele>286.39999389648</ele>
        <time>2016-11-16T15:39:14Z</time>
      </trkpt>
      <trkpt lat="43.42086" lon="6.01451">
        <ele>287</ele>
        <time>2016-11-16T15:39:21Z</time>
      </trkpt>
      <trkpt lat="43.42086" lon="6.01457">
        <ele>287.20001220703</ele>
        <time>2016-11-16T15:39:22Z</time>
      </trkpt>
      <trkpt lat="43.42086" lon="6.01467">
        <ele>288.20001220703</ele>
        <time>2016-11-16T15:39:24Z</time>
      </trkpt>
      <trkpt lat="43.42086" lon="6.01472">
        <ele>288.60000610352</ele>
        <time>2016-11-16T15:39:25Z</time>
      </trkpt>
      <trkpt lat="43.42086" lon="6.01481">
        <ele>289.39999389648</ele>
        <time>2016-11-16T15:39:27Z</time>
      </trkpt>
      <trkpt lat="43.42086" lon="6.01489">
        <ele>289.79998779297</ele>
        <time>2016-11-16T15:39:29Z</time>
      </trkpt>
      <trkpt lat="43.42086" lon="6.01496">
        <ele>290.20001220703</ele>
        <time>2016-11-16T15:39:31Z</time>
      </trkpt>
      <trkpt lat="43.42087" lon="6.01506">
        <ele>290.79998779297</ele>
        <time>2016-11-16T15:39:34Z</time>
      </trkpt>
      <trkpt lat="43.42088" lon="6.0151">
        <ele>291</ele>
        <time>2016-11-16T15:39:35Z</time>
      </trkpt>
      <trkpt lat="43.42088" lon="6.01523">
        <ele>292</ele>
        <time>2016-11-16T15:39:40Z</time>
      </trkpt>
      <trkpt lat="43.42089" lon="6.01524">
        <ele>292.79998779297</ele>
        <time>2016-11-16T15:39:44Z</time>
      </trkpt>
      <trkpt lat="43.42089" lon="6.01524">
        <ele>293</ele>
        <time>2016-11-16T15:39:47Z</time>
      </trkpt>
      <trkpt lat="43.42089" lon="6.01524">
        <ele>293</ele>
        <time>2016-11-16T15:40:04Z</time>
      </trkpt>
      <trkpt lat="43.42089" lon="6.01524">
        <ele>292.79998779297</ele>
        <time>2016-11-16T15:40:09Z</time>
      </trkpt>
      <trkpt lat="43.42089" lon="6.01523">
        <ele>292.60000610352</ele>
        <time>2016-11-16T15:40:14Z</time>
      </trkpt>
      <trkpt lat="43.42089" lon="6.01523">
        <ele>292.39999389648</ele>
        <time>2016-11-16T15:40:19Z</time>
      </trkpt>
      <trkpt lat="43.42089" lon="6.01523">
        <ele>292.60000610352</ele>
        <time>2016-11-16T15:40:28Z</time>
      </trkpt>
      <trkpt lat="43.42089" lon="6.01525">
        <ele>292.60000610352</ele>
        <time>2016-11-16T15:40:29Z</time>
      </trkpt>
      <trkpt lat="43.42088" lon="6.01532">
        <ele>292.60000610352</ele>
        <time>2016-11-16T15:40:31Z</time>
      </trkpt>
      <trkpt lat="43.42089" lon="6.01543">
        <ele>292.79998779297</ele>
        <time>2016-11-16T15:40:34Z</time>
      </trkpt>
      <trkpt lat="43.4209" lon="6.01569">
        <ele>294</ele>
        <time>2016-11-16T15:40:42Z</time>
      </trkpt>
      <trkpt lat="43.4209" lon="6.01574">
        <ele>294</ele>
        <time>2016-11-16T15:40:44Z</time>
      </trkpt>
      <trkpt lat="43.42091" lon="6.01605">
        <ele>295.39999389648</ele>
        <time>2016-11-16T15:40:54Z</time>
      </trkpt>
      <trkpt lat="43.42089" lon="6.01614">
        <ele>295.79998779297</ele>
        <time>2016-11-16T15:40:57Z</time>
      </trkpt>
      <trkpt lat="43.42085" lon="6.01634">
        <ele>296.20001220703</ele>
        <time>2016-11-16T15:41:04Z</time>
      </trkpt>
      <trkpt lat="43.42083" lon="6.01642">
        <ele>296.39999389648</ele>
        <time>2016-11-16T15:41:07Z</time>
      </trkpt>
      <trkpt lat="43.42078" lon="6.01658">
        <ele>296.20001220703</ele>
        <time>2016-11-16T15:41:12Z</time>
      </trkpt>
      <trkpt lat="43.42074" lon="6.01667">
        <ele>295.79998779297</ele>
        <time>2016-11-16T15:41:14Z</time>
      </trkpt>
      <trkpt lat="43.42069" lon="6.01676">
        <ele>295</ele>
        <time>2016-11-16T15:41:16Z</time>
      </trkpt>
      <trkpt lat="43.42063" lon="6.0169">
        <ele>294</ele>
        <time>2016-11-16T15:41:19Z</time>
      </trkpt>
      <trkpt lat="43.42059" lon="6.01701">
        <ele>292.79998779297</ele>
        <time>2016-11-16T15:41:21Z</time>
      </trkpt>
      <trkpt lat="43.42053" lon="6.01715">
        <ele>291.20001220703</ele>
        <time>2016-11-16T15:41:23Z</time>
      </trkpt>
      <trkpt lat="43.4205" lon="6.01724">
        <ele>290.39999389648</ele>
        <time>2016-11-16T15:41:24Z</time>
      </trkpt>
      <trkpt lat="43.42047" lon="6.01733">
        <ele>289.60000610352</ele>
        <time>2016-11-16T15:41:25Z</time>
      </trkpt>
      <trkpt lat="43.42038" lon="6.01752">
        <ele>288</ele>
        <time>2016-11-16T15:41:27Z</time>
      </trkpt>
      <trkpt lat="43.42028" lon="6.01772">
        <ele>286</ele>
        <time>2016-11-16T15:41:29Z</time>
      </trkpt>
      <trkpt lat="43.42023" lon="6.01783">
        <ele>284.79998779297</ele>
        <time>2016-11-16T15:41:30Z</time>
      </trkpt>
      <trkpt lat="43.42014" lon="6.01802">
        <ele>283.20001220703</ele>
        <time>2016-11-16T15:41:32Z</time>
      </trkpt>
      <trkpt lat="43.42007" lon="6.01817">
        <ele>282.79998779297</ele>
        <time>2016-11-16T15:41:34Z</time>
      </trkpt>
      <trkpt lat="43.42002" lon="6.01826">
        <ele>283.60000610352</ele>
        <time>2016-11-16T15:41:39Z</time>
      </trkpt>
      <trkpt lat="43.41999" lon="6.01833">
        <ele>283.60000610352</ele>
        <time>2016-11-16T15:41:44Z</time>
      </trkpt>
      <trkpt lat="43.41999" lon="6.01836">
        <ele>283.79998779297</ele>
        <time>2016-11-16T15:41:54Z</time>
      </trkpt>
      <trkpt lat="43.41999" lon="6.01835">
        <ele>283.60000610352</ele>
        <time>2016-11-16T15:42:04Z</time>
      </trkpt>
      <trkpt lat="43.41999" lon="6.01832">
        <ele>283.60000610352</ele>
        <time>2016-11-16T15:42:08Z</time>
      </trkpt>
      <trkpt lat="43.41999" lon="6.01831">
        <ele>283.39999389648</ele>
        <time>2016-11-16T15:42:13Z</time>
      </trkpt>
      <trkpt lat="43.41999" lon="6.01831">
        <ele>283.39999389648</ele>
        <time>2016-11-16T15:42:14Z</time>
      </trkpt>
      <trkpt lat="43.41999" lon="6.01829">
        <ele>283</ele>
        <time>2016-11-16T15:42:24Z</time>
      </trkpt>
      <trkpt lat="43.42" lon="6.0183">
        <ele>283.60000610352</ele>
        <time>2016-11-16T15:42:34Z</time>
      </trkpt>
      <trkpt lat="43.41999" lon="6.01831">
        <ele>284.20001220703</ele>
        <time>2016-11-16T15:42:44Z</time>
      </trkpt>
      <trkpt lat="43.42" lon="6.01831">
        <ele>283.79998779297</ele>
        <time>2016-11-16T15:42:54Z</time>
      </trkpt>
      <trkpt lat="43.42" lon="6.01831">
        <ele>283.20001220703</ele>
        <time>2016-11-16T15:43:04Z</time>
      </trkpt>
      <trkpt lat="43.41999" lon="6.01831">
        <ele>283.60000610352</ele>
        <time>2016-11-16T15:43:14Z</time>
      </trkpt>
      <trkpt lat="43.41998" lon="6.01832">
        <ele>283.60000610352</ele>
        <time>2016-11-16T15:43:28Z</time>
      </trkpt>
      <trkpt lat="43.41999" lon="6.01831">
        <ele>283.39999389648</ele>
        <time>2016-11-16T15:43:34Z</time>
      </trkpt>
      <trkpt lat="43.41999" lon="6.0183">
        <ele>283.39999389648</ele>
        <time>2016-11-16T15:43:54Z</time>
      </trkpt>
      <trkpt lat="43.41999" lon="6.0183">
        <ele>283.39999389648</ele>
        <time>2016-11-16T15:44:04Z</time>
      </trkpt>
      <trkpt lat="43.41999" lon="6.0183">
        <ele>283.39999389648</ele>
        <time>2016-11-16T15:44:14Z</time>
      </trkpt>
      <trkpt lat="43.41999" lon="6.0183">
        <ele>283.20001220703</ele>
        <time>2016-11-16T15:44:34Z</time>
      </trkpt>
      <trkpt lat="43.41999" lon="6.0183">
        <ele>283.20001220703</ele>
        <time>2016-11-16T15:44:44Z</time>
      </trkpt>
      <trkpt lat="43.41999" lon="6.0183">
        <ele>283.20001220703</ele>
        <time>2016-11-16T15:44:54Z</time>
      </trkpt>
      <trkpt lat="43.41999" lon="6.0183">
        <ele>283.39999389648</ele>
        <time>2016-11-16T15:45:04Z</time>
      </trkpt>
      <trkpt lat="43.41999" lon="6.0183">
        <ele>283.60000610352</ele>
        <time>2016-11-16T15:45:14Z</time>
      </trkpt>
      <trkpt lat="43.41998" lon="6.0183">
        <ele>284.20001220703</ele>
        <time>2016-11-16T15:45:34Z</time>
      </trkpt>
      <trkpt lat="43.41998" lon="6.0183">
        <ele>284</ele>
        <time>2016-11-16T15:45:44Z</time>
      </trkpt>
      <trkpt lat="43.41999" lon="6.01829">
        <ele>283.20001220703</ele>
        <time>2016-11-16T15:46:04Z</time>
      </trkpt>
      <trkpt lat="43.41999" lon="6.01829">
        <ele>283.20001220703</ele>
        <time>2016-11-16T15:46:14Z</time>
      </trkpt>
      <trkpt lat="43.41999" lon="6.0183">
        <ele>283.20001220703</ele>
        <time>2016-11-16T15:46:20Z</time>
      </trkpt>
      <trkpt lat="43.41999" lon="6.0183">
        <ele>283.20001220703</ele>
        <time>2016-11-16T15:46:27Z</time>
      </trkpt>
      <trkpt lat="43.41999" lon="6.0183">
        <ele>283.20001220703</ele>
        <time>2016-11-16T15:46:33Z</time>
      </trkpt>
      <trkpt lat="43.41999" lon="6.0183">
        <ele>283.20001220703</ele>
        <time>2016-11-16T15:46:39Z</time>
      </trkpt>
      <trkpt lat="43.41999" lon="6.0183">
        <ele>283.20001220703</ele>
        <time>2016-11-16T15:46:42Z</time>
      </trkpt>
      <trkpt lat="43.41998" lon="6.01829">
        <ele>283.20001220703</ele>
        <time>2016-11-16T15:46:44Z</time>
      </trkpt>
      <trkpt lat="43.41999" lon="6.01828">
        <ele>283.20001220703</ele>
        <time>2016-11-16T15:46:47Z</time>
      </trkpt>
      <trkpt lat="43.41999" lon="6.01828">
        <ele>283.20001220703</ele>
        <time>2016-11-16T15:46:54Z</time>
      </trkpt>
      <trkpt lat="43.41998" lon="6.01828">
        <ele>283.20001220703</ele>
        <time>2016-11-16T15:47:04Z</time>
      </trkpt>
      <trkpt lat="43.41998" lon="6.01828">
        <ele>283.20001220703</ele>
        <time>2016-11-16T15:47:14Z</time>
      </trkpt>
      <trkpt lat="43.41998" lon="6.01829">
        <ele>283.20001220703</ele>
        <time>2016-11-16T15:47:24Z</time>
      </trkpt>
      <trkpt lat="43.41998" lon="6.0183">
        <ele>283.20001220703</ele>
        <time>2016-11-16T15:47:34Z</time>
      </trkpt>
      <trkpt lat="43.41998" lon="6.0183">
        <ele>283.20001220703</ele>
        <time>2016-11-16T15:47:38Z</time>
      </trkpt>
      <trkpt lat="43.41998" lon="6.0183">
        <ele>283.20001220703</ele>
        <time>2016-11-16T15:47:43Z</time>
      </trkpt>
      <trkpt lat="43.41998" lon="6.0183">
        <ele>283.20001220703</ele>
        <time>2016-11-16T15:47:44Z</time>
      </trkpt>
      <trkpt lat="43.41998" lon="6.0183">
        <ele>283.20001220703</ele>
        <time>2016-11-16T15:47:54Z</time>
      </trkpt>
      <trkpt lat="43.41999" lon="6.0183">
        <ele>283.20001220703</ele>
        <time>2016-11-16T15:48:04Z</time>
      </trkpt>
      <trkpt lat="43.41999" lon="6.0183">
        <ele>283.20001220703</ele>
        <time>2016-11-16T15:48:24Z</time>
      </trkpt>
      <trkpt lat="43.41999" lon="6.0183">
        <ele>283.20001220703</ele>
        <time>2016-11-16T15:48:34Z</time>
      </trkpt>
      <trkpt lat="43.41998" lon="6.0183">
        <ele>283.20001220703</ele>
        <time>2016-11-16T15:48:44Z</time>
      </trkpt>
      <trkpt lat="43.41999" lon="6.01831">
        <ele>283.20001220703</ele>
        <time>2016-11-16T15:48:50Z</time>
      </trkpt>
      <trkpt lat="43.41998" lon="6.01831">
        <ele>283.20001220703</ele>
        <time>2016-11-16T15:48:53Z</time>
      </trkpt>
      <trkpt lat="43.41998" lon="6.01831">
        <ele>283.20001220703</ele>
        <time>2016-11-16T15:48:54Z</time>
      </trkpt>
      <trkpt lat="43.41998" lon="6.01832">
        <ele>283.20001220703</ele>
        <time>2016-11-16T15:49:08Z</time>
      </trkpt>
      <trkpt lat="43.41998" lon="6.01832">
        <ele>283.20001220703</ele>
        <time>2016-11-16T15:49:24Z</time>
      </trkpt>
      <trkpt lat="43.41998" lon="6.01833">
        <ele>283.20001220703</ele>
        <time>2016-11-16T15:49:34Z</time>
      </trkpt>
      <trkpt lat="43.41998" lon="6.01833">
        <ele>283.20001220703</ele>
        <time>2016-11-16T15:49:54Z</time>
      </trkpt>
      <trkpt lat="43.41998" lon="6.01833">
        <ele>283.20001220703</ele>
        <time>2016-11-16T15:50:02Z</time>
      </trkpt>
      <trkpt lat="43.41998" lon="6.01834">
        <ele>283.20001220703</ele>
        <time>2016-11-16T15:50:14Z</time>
      </trkpt>
      <trkpt lat="43.41998" lon="6.01833">
        <ele>283.20001220703</ele>
        <time>2016-11-16T15:50:24Z</time>
      </trkpt>
      <trkpt lat="43.41999" lon="6.01831">
        <ele>283.20001220703</ele>
        <time>2016-11-16T15:50:31Z</time>
      </trkpt>
      <trkpt lat="43.41998" lon="6.01832">
        <ele>283.20001220703</ele>
        <time>2016-11-16T15:50:33Z</time>
      </trkpt>
      <trkpt lat="43.41998" lon="6.01833">
        <ele>283.20001220703</ele>
        <time>2016-11-16T15:50:34Z</time>
      </trkpt>
      <trkpt lat="43.41998" lon="6.01834">
        <ele>283.20001220703</ele>
        <time>2016-11-16T15:50:35Z</time>
      </trkpt>
      <trkpt lat="43.41996" lon="6.01837">
        <ele>284</ele>
        <time>2016-11-16T15:50:44Z</time>
      </trkpt>
      <trkpt lat="43.41997" lon="6.01838">
        <ele>284.20001220703</ele>
        <time>2016-11-16T15:50:54Z</time>
      </trkpt>
      <trkpt lat="43.41997" lon="6.01838">
        <ele>284.39999389648</ele>
        <time>2016-11-16T15:50:57Z</time>
      </trkpt>
      <trkpt lat="43.41997" lon="6.01838">
        <ele>284</ele>
        <time>2016-11-16T15:51:01Z</time>
      </trkpt>
      <trkpt lat="43.41997" lon="6.01837">
        <ele>283.39999389648</ele>
        <time>2016-11-16T15:51:04Z</time>
      </trkpt>
      <trkpt lat="43.41998" lon="6.01837">
        <ele>284.20001220703</ele>
        <time>2016-11-16T15:51:09Z</time>
      </trkpt>
      <trkpt lat="43.41998" lon="6.01837">
        <ele>283.60000610352</ele>
        <time>2016-11-16T15:51:14Z</time>
      </trkpt>
      <trkpt lat="43.41998" lon="6.01836">
        <ele>283.79998779297</ele>
        <time>2016-11-16T15:51:24Z</time>
      </trkpt>
      <trkpt lat="43.41998" lon="6.01836">
        <ele>284.20001220703</ele>
        <time>2016-11-16T15:51:34Z</time>
      </trkpt>
      <trkpt lat="43.41999" lon="6.01834">
        <ele>284.39999389648</ele>
        <time>2016-11-16T15:51:43Z</time>
      </trkpt>
      <trkpt lat="43.41999" lon="6.01834">
        <ele>284.20001220703</ele>
        <time>2016-11-16T15:51:44Z</time>
      </trkpt>
      <trkpt lat="43.42" lon="6.01834">
        <ele>284.20001220703</ele>
        <time>2016-11-16T15:51:54Z</time>
      </trkpt>
      <trkpt lat="43.41999" lon="6.01836">
        <ele>284.20001220703</ele>
        <time>2016-11-16T15:52:01Z</time>
      </trkpt>
      <trkpt lat="43.41998" lon="6.01841">
        <ele>284</ele>
        <time>2016-11-16T15:52:04Z</time>
      </trkpt>
      <trkpt lat="43.41997" lon="6.01848">
        <ele>284.39999389648</ele>
        <time>2016-11-16T15:52:07Z</time>
      </trkpt>
      <trkpt lat="43.41991" lon="6.01874">
        <ele>284.79998779297</ele>
        <time>2016-11-16T15:52:14Z</time>
      </trkpt>
      <trkpt lat="43.41987" lon="6.01894">
        <ele>285.60000610352</ele>
        <time>2016-11-16T15:52:18Z</time>
      </trkpt>
      <trkpt lat="43.41986" lon="6.01903">
        <ele>286</ele>
        <time>2016-11-16T15:52:20Z</time>
      </trkpt>
      <trkpt lat="43.41985" lon="6.01908">
        <ele>286.20001220703</ele>
        <time>2016-11-16T15:52:21Z</time>
      </trkpt>
      <trkpt lat="43.41982" lon="6.01922">
        <ele>286.79998779297</ele>
        <time>2016-11-16T15:52:24Z</time>
      </trkpt>
      <trkpt lat="43.41974" lon="6.01958">
        <ele>287.39999389648</ele>
        <time>2016-11-16T15:52:33Z</time>
      </trkpt>
      <trkpt lat="43.41973" lon="6.01963">
        <ele>287.39999389648</ele>
        <time>2016-11-16T15:52:34Z</time>
      </trkpt>
      <trkpt lat="43.41962" lon="6.02012">
        <ele>286.39999389648</ele>
        <time>2016-11-16T15:52:44Z</time>
      </trkpt>
      <trkpt lat="43.41957" lon="6.02053">
        <ele>286.60000610352</ele>
        <time>2016-11-16T15:52:51Z</time>
      </trkpt>
      <trkpt lat="43.41955" lon="6.02071">
        <ele>287.79998779297</ele>
        <time>2016-11-16T15:52:54Z</time>
      </trkpt>
      <trkpt lat="43.41953" lon="6.02082">
        <ele>288.20001220703</ele>
        <time>2016-11-16T15:52:56Z</time>
      </trkpt>
      <trkpt lat="43.41951" lon="6.02099">
        <ele>288.20001220703</ele>
        <time>2016-11-16T15:52:59Z</time>
      </trkpt>
      <trkpt lat="43.41944" lon="6.0213">
        <ele>288</ele>
        <time>2016-11-16T15:53:04Z</time>
      </trkpt>
      <trkpt lat="43.41935" lon="6.02169">
        <ele>286.60000610352</ele>
        <time>2016-11-16T15:53:09Z</time>
      </trkpt>
      <trkpt lat="43.41928" lon="6.02202">
        <ele>285.39999389648</ele>
        <time>2016-11-16T15:53:13Z</time>
      </trkpt>
      <trkpt lat="43.41926" lon="6.0221">
        <ele>285.20001220703</ele>
        <time>2016-11-16T15:53:14Z</time>
      </trkpt>
      <trkpt lat="43.41925" lon="6.02218">
        <ele>285</ele>
        <time>2016-11-16T15:53:15Z</time>
      </trkpt>
      <trkpt lat="43.41916" lon="6.02284">
        <ele>285</ele>
        <time>2016-11-16T15:53:24Z</time>
      </trkpt>
      <trkpt lat="43.41912" lon="6.02306">
        <ele>284.39999389648</ele>
        <time>2016-11-16T15:53:27Z</time>
      </trkpt>
      <trkpt lat="43.41904" lon="6.0236">
        <ele>283.60000610352</ele>
        <time>2016-11-16T15:53:34Z</time>
      </trkpt>
      <trkpt lat="43.419" lon="6.02385">
        <ele>283</ele>
        <time>2016-11-16T15:53:37Z</time>
      </trkpt>
      <trkpt lat="43.41895" lon="6.02413">
        <ele>281.79998779297</ele>
        <time>2016-11-16T15:53:40Z</time>
      </trkpt>
      <trkpt lat="43.41889" lon="6.02446">
        <ele>280.39999389648</ele>
        <time>2016-11-16T15:53:43Z</time>
      </trkpt>
      <trkpt lat="43.41887" lon="6.02457">
        <ele>279.20001220703</ele>
        <time>2016-11-16T15:53:44Z</time>
      </trkpt>
      <trkpt lat="43.41886" lon="6.02469">
        <ele>277.79998779297</ele>
        <time>2016-11-16T15:53:45Z</time>
      </trkpt>
      <trkpt lat="43.41884" lon="6.0248">
        <ele>276.60000610352</ele>
        <time>2016-11-16T15:53:46Z</time>
      </trkpt>
      <trkpt lat="43.41882" lon="6.02503">
        <ele>275.39999389648</ele>
        <time>2016-11-16T15:53:48Z</time>
      </trkpt>
      <trkpt lat="43.4188" lon="6.02526">
        <ele>274.60000610352</ele>
        <time>2016-11-16T15:53:50Z</time>
      </trkpt>
      <trkpt lat="43.41876" lon="6.02565">
        <ele>275</ele>
        <time>2016-11-16T15:53:54Z</time>
      </trkpt>
      <trkpt lat="43.41874" lon="6.02584">
        <ele>275.39999389648</ele>
        <time>2016-11-16T15:53:56Z</time>
      </trkpt>
      <trkpt lat="43.41873" lon="6.02602">
        <ele>275.60000610352</ele>
        <time>2016-11-16T15:53:58Z</time>
      </trkpt>
      <trkpt lat="43.41872" lon="6.02611">
        <ele>275.60000610352</ele>
        <time>2016-11-16T15:53:59Z</time>
      </trkpt>
      <trkpt lat="43.41869" lon="6.02656">
        <ele>275.60000610352</ele>
        <time>2016-11-16T15:54:04Z</time>
      </trkpt>
      <trkpt lat="43.41866" lon="6.02702">
        <ele>275</ele>
        <time>2016-11-16T15:54:09Z</time>
      </trkpt>
      <trkpt lat="43.41865" lon="6.02721">
        <ele>274.79998779297</ele>
        <time>2016-11-16T15:54:11Z</time>
      </trkpt>
      <trkpt lat="43.41864" lon="6.02749">
        <ele>274.20001220703</ele>
        <time>2016-11-16T15:54:14Z</time>
      </trkpt>
      <trkpt lat="43.41863" lon="6.02806">
        <ele>273.20001220703</ele>
        <time>2016-11-16T15:54:20Z</time>
      </trkpt>
      <trkpt lat="43.41862" lon="6.02845">
        <ele>272.60000610352</ele>
        <time>2016-11-16T15:54:24Z</time>
      </trkpt>
      <trkpt lat="43.41863" lon="6.02877">
        <ele>271.79998779297</ele>
        <time>2016-11-16T15:54:27Z</time>
      </trkpt>
      <trkpt lat="43.41861" lon="6.0292">
        <ele>271</ele>
        <time>2016-11-16T15:54:31Z</time>
      </trkpt>
      <trkpt lat="43.41858" lon="6.02948">
        <ele>271.39999389648</ele>
        <time>2016-11-16T15:54:34Z</time>
      </trkpt>
      <trkpt lat="43.41856" lon="6.02971">
        <ele>273</ele>
        <time>2016-11-16T15:54:37Z</time>
      </trkpt>
      <trkpt lat="43.41855" lon="6.02984">
        <ele>274</ele>
        <time>2016-11-16T15:54:39Z</time>
      </trkpt>
      <trkpt lat="43.41856" lon="6.02996">
        <ele>275</ele>
        <time>2016-11-16T15:54:41Z</time>
      </trkpt>
      <trkpt lat="43.41856" lon="6.03012">
        <ele>276.39999389648</ele>
        <time>2016-11-16T15:54:44Z</time>
      </trkpt>
      <trkpt lat="43.41858" lon="6.03025">
        <ele>277.20001220703</ele>
        <time>2016-11-16T15:54:47Z</time>
      </trkpt>
      <trkpt lat="43.41858" lon="6.03031">
        <ele>277.39999389648</ele>
        <time>2016-11-16T15:54:49Z</time>
      </trkpt>
      <trkpt lat="43.41858" lon="6.03041">
        <ele>277.60000610352</ele>
        <time>2016-11-16T15:54:54Z</time>
      </trkpt>
      <trkpt lat="43.41858" lon="6.03041">
        <ele>278.39999389648</ele>
        <time>2016-11-16T15:55:00Z</time>
      </trkpt>
      <trkpt lat="43.41858" lon="6.03041">
        <ele>278.20001220703</ele>
        <time>2016-11-16T15:55:04Z</time>
      </trkpt>
      <trkpt lat="43.41858" lon="6.03039">
        <ele>278.20001220703</ele>
        <time>2016-11-16T15:55:07Z</time>
      </trkpt>
      <trkpt lat="43.41859" lon="6.03032">
        <ele>278</ele>
        <time>2016-11-16T15:55:11Z</time>
      </trkpt>
      <trkpt lat="43.4186" lon="6.03026">
        <ele>278</ele>
        <time>2016-11-16T15:55:14Z</time>
      </trkpt>
      <trkpt lat="43.4186" lon="6.0302">
        <ele>278</ele>
        <time>2016-11-16T15:55:17Z</time>
      </trkpt>
      <trkpt lat="43.41861" lon="6.03015">
        <ele>277.79998779297</ele>
        <time>2016-11-16T15:55:20Z</time>
      </trkpt>
      <trkpt lat="43.41861" lon="6.03014">
        <ele>277.60000610352</ele>
        <time>2016-11-16T15:55:23Z</time>
      </trkpt>
      <trkpt lat="43.41861" lon="6.03014">
        <ele>277.39999389648</ele>
        <time>2016-11-16T15:55:24Z</time>
      </trkpt>
      <trkpt lat="43.41861" lon="6.03013">
        <ele>277.20001220703</ele>
        <time>2016-11-16T15:55:27Z</time>
      </trkpt>
      <trkpt lat="43.41862" lon="6.03012">
        <ele>277.20001220703</ele>
        <time>2016-11-16T15:55:29Z</time>
      </trkpt>
      <trkpt lat="43.41864" lon="6.03011">
        <ele>277.20001220703</ele>
        <time>2016-11-16T15:55:34Z</time>
      </trkpt>
      <trkpt lat="43.41865" lon="6.03011">
        <ele>277.39999389648</ele>
        <time>2016-11-16T15:55:38Z</time>
      </trkpt>
      <trkpt lat="43.41864" lon="6.03012">
        <ele>277.20001220703</ele>
        <time>2016-11-16T15:55:44Z</time>
      </trkpt>
      <trkpt lat="43.41864" lon="6.03012">
        <ele>277.39999389648</ele>
        <time>2016-11-16T15:55:50Z</time>
      </trkpt>
      <trkpt lat="43.41864" lon="6.03012">
        <ele>277.39999389648</ele>
        <time>2016-11-16T15:55:54Z</time>
      </trkpt>
      <trkpt lat="43.41863" lon="6.03012">
        <ele>277.20001220703</ele>
        <time>2016-11-16T15:56:04Z</time>
      </trkpt>
      <trkpt lat="43.41863" lon="6.03011">
        <ele>276.79998779297</ele>
        <time>2016-11-16T15:56:14Z</time>
      </trkpt>
      <trkpt lat="43.41863" lon="6.03011">
        <ele>277.20001220703</ele>
        <time>2016-11-16T15:56:24Z</time>
      </trkpt>
      <trkpt lat="43.41863" lon="6.03011">
        <ele>277.20001220703</ele>
        <time>2016-11-16T15:56:34Z</time>
      </trkpt>
      <trkpt lat="43.41863" lon="6.0301">
        <ele>277.20001220703</ele>
        <time>2016-11-16T15:56:44Z</time>
      </trkpt>
      <trkpt lat="43.41863" lon="6.0301">
        <ele>277.20001220703</ele>
        <time>2016-11-16T15:56:53Z</time>
      </trkpt>
      <trkpt lat="43.41863" lon="6.0301">
        <ele>277.20001220703</ele>
        <time>2016-11-16T15:56:54Z</time>
      </trkpt>
      <trkpt lat="43.41863" lon="6.0301">
        <ele>277.20001220703</ele>
        <time>2016-11-16T15:57:04Z</time>
      </trkpt>
      <trkpt lat="43.41863" lon="6.03012">
        <ele>277.20001220703</ele>
        <time>2016-11-16T15:57:34Z</time>
      </trkpt>
      <trkpt lat="43.41863" lon="6.03013">
        <ele>277.20001220703</ele>
        <time>2016-11-16T15:57:44Z</time>
      </trkpt>
      <trkpt lat="43.41862" lon="6.03013">
        <ele>277.20001220703</ele>
        <time>2016-11-16T15:57:49Z</time>
      </trkpt>
      <trkpt lat="43.41862" lon="6.03013">
        <ele>277.20001220703</ele>
        <time>2016-11-16T15:57:54Z</time>
      </trkpt>
      <trkpt lat="43.41862" lon="6.03013">
        <ele>277.20001220703</ele>
        <time>2016-11-16T15:58:04Z</time>
      </trkpt>
      <trkpt lat="43.41863" lon="6.03012">
        <ele>277.20001220703</ele>
        <time>2016-11-16T15:58:34Z</time>
      </trkpt>
      <trkpt lat="43.41862" lon="6.03012">
        <ele>277.20001220703</ele>
        <time>2016-11-16T15:58:44Z</time>
      </trkpt>
      <trkpt lat="43.41862" lon="6.03012">
        <ele>277.20001220703</ele>
        <time>2016-11-16T15:58:54Z</time>
      </trkpt>
      <trkpt lat="43.41862" lon="6.03012">
        <ele>277.20001220703</ele>
        <time>2016-11-16T15:59:14Z</time>
      </trkpt>
      <trkpt lat="43.41862" lon="6.0301">
        <ele>277.20001220703</ele>
        <time>2016-11-16T15:59:34Z</time>
      </trkpt>
      <trkpt lat="43.41862" lon="6.0301">
        <ele>277.20001220703</ele>
        <time>2016-11-16T15:59:44Z</time>
      </trkpt>
      <trkpt lat="43.41862" lon="6.03012">
        <ele>277.20001220703</ele>
        <time>2016-11-16T15:59:54Z</time>
      </trkpt>
      <trkpt lat="43.41862" lon="6.03011">
        <ele>277.20001220703</ele>
        <time>2016-11-16T16:00:04Z</time>
      </trkpt>
      <trkpt lat="43.41863" lon="6.03012">
        <ele>277.20001220703</ele>
        <time>2016-11-16T16:00:18Z</time>
      </trkpt>
      <trkpt lat="43.41863" lon="6.03012">
        <ele>277.20001220703</ele>
        <time>2016-11-16T16:00:24Z</time>
      </trkpt>
      <trkpt lat="43.41863" lon="6.03012">
        <ele>277.20001220703</ele>
        <time>2016-11-16T16:00:26Z</time>
      </trkpt>
      <trkpt lat="43.41862" lon="6.03012">
        <ele>277.20001220703</ele>
        <time>2016-11-16T16:00:27Z</time>
      </trkpt>
      <trkpt lat="43.41862" lon="6.03013">
        <ele>277.20001220703</ele>
        <time>2016-11-16T16:00:34Z</time>
      </trkpt>
      <trkpt lat="43.41862" lon="6.03014">
        <ele>277.20001220703</ele>
        <time>2016-11-16T16:00:35Z</time>
      </trkpt>
      <trkpt lat="43.41861" lon="6.03022">
        <ele>277.39999389648</ele>
        <time>2016-11-16T16:00:38Z</time>
      </trkpt>
      <trkpt lat="43.41861" lon="6.03024">
        <ele>277.60000610352</ele>
        <time>2016-11-16T16:00:39Z</time>
      </trkpt>
      <trkpt lat="43.41861" lon="6.03027">
        <ele>277.60000610352</ele>
        <time>2016-11-16T16:00:40Z</time>
      </trkpt>
      <trkpt lat="43.4186" lon="6.0304">
        <ele>278</ele>
        <time>2016-11-16T16:00:44Z</time>
      </trkpt>
      <trkpt lat="43.41859" lon="6.0305">
        <ele>278</ele>
        <time>2016-11-16T16:00:47Z</time>
      </trkpt>
      <trkpt lat="43.4186" lon="6.03068">
        <ele>278.39999389648</ele>
        <time>2016-11-16T16:00:52Z</time>
      </trkpt>
      <trkpt lat="43.41861" lon="6.03076">
        <ele>278.60000610352</ele>
        <time>2016-11-16T16:00:54Z</time>
      </trkpt>
      <trkpt lat="43.41861" lon="6.03119">
        <ele>278.60000610352</ele>
        <time>2016-11-16T16:01:04Z</time>
      </trkpt>
      <trkpt lat="43.41862" lon="6.03151">
        <ele>279.60000610352</ele>
        <time>2016-11-16T16:01:11Z</time>
      </trkpt>
      <trkpt lat="43.41862" lon="6.03164">
        <ele>280</ele>
        <time>2016-11-16T16:01:14Z</time>
      </trkpt>
      <trkpt lat="43.41862" lon="6.03211">
        <ele>280.20001220703</ele>
        <time>2016-11-16T16:01:24Z</time>
      </trkpt>
      <trkpt lat="43.41864" lon="6.03234">
        <ele>280.79998779297</ele>
        <time>2016-11-16T16:01:29Z</time>
      </trkpt>
      <trkpt lat="43.41865" lon="6.03254">
        <ele>281.79998779297</ele>
        <time>2016-11-16T16:01:34Z</time>
      </trkpt>
      <trkpt lat="43.41866" lon="6.03274">
        <ele>283</ele>
        <time>2016-11-16T16:01:39Z</time>
      </trkpt>
      <trkpt lat="43.41868" lon="6.03292">
        <ele>283.60000610352</ele>
        <time>2016-11-16T16:01:44Z</time>
      </trkpt>
      <trkpt lat="43.41869" lon="6.03326">
        <ele>283.79998779297</ele>
        <time>2016-11-16T16:01:53Z</time>
      </trkpt>
      <trkpt lat="43.41869" lon="6.03331">
        <ele>283.79998779297</ele>
        <time>2016-11-16T16:01:54Z</time>
      </trkpt>
      <trkpt lat="43.41867" lon="6.0337">
        <ele>282.39999389648</ele>
        <time>2016-11-16T16:02:01Z</time>
      </trkpt>
      <trkpt lat="43.41866" lon="6.03402">
        <ele>280.60000610352</ele>
        <time>2016-11-16T16:02:06Z</time>
      </trkpt>
      <trkpt lat="43.41866" lon="6.03425">
        <ele>279.39999389648</ele>
        <time>2016-11-16T16:02:09Z</time>
      </trkpt>
      <trkpt lat="43.41864" lon="6.03448">
        <ele>278.39999389648</ele>
        <time>2016-11-16T16:02:12Z</time>
      </trkpt>
      <trkpt lat="43.41864" lon="6.03464">
        <ele>278</ele>
        <time>2016-11-16T16:02:14Z</time>
      </trkpt>
      <trkpt lat="43.41864" lon="6.03488">
        <ele>277</ele>
        <time>2016-11-16T16:02:17Z</time>
      </trkpt>
      <trkpt lat="43.41864" lon="6.03503">
        <ele>276.79998779297</ele>
        <time>2016-11-16T16:02:19Z</time>
      </trkpt>
      <trkpt lat="43.41865" lon="6.03517">
        <ele>276.79998779297</ele>
        <time>2016-11-16T16:02:21Z</time>
      </trkpt>
      <trkpt lat="43.41866" lon="6.03537">
        <ele>277</ele>
        <time>2016-11-16T16:02:24Z</time>
      </trkpt>
      <trkpt lat="43.41869" lon="6.03599">
        <ele>277.39999389648</ele>
        <time>2016-11-16T16:02:34Z</time>
      </trkpt>
      <trkpt lat="43.41869" lon="6.03616">
        <ele>277.60000610352</ele>
        <time>2016-11-16T16:02:37Z</time>
      </trkpt>
      <trkpt lat="43.41872" lon="6.03655">
        <ele>277.79998779297</ele>
        <time>2016-11-16T16:02:44Z</time>
      </trkpt>
      <trkpt lat="43.41874" lon="6.03676">
        <ele>278.20001220703</ele>
        <time>2016-11-16T16:02:48Z</time>
      </trkpt>
      <trkpt lat="43.41876" lon="6.03703">
        <ele>279.39999389648</ele>
        <time>2016-11-16T16:02:54Z</time>
      </trkpt>
      <trkpt lat="43.41877" lon="6.03715">
        <ele>280.20001220703</ele>
        <time>2016-11-16T16:02:57Z</time>
      </trkpt>
      <trkpt lat="43.41878" lon="6.03728">
        <ele>280.60000610352</ele>
        <time>2016-11-16T16:03:00Z</time>
      </trkpt>
      <trkpt lat="43.41879" lon="6.03744">
        <ele>281.20001220703</ele>
        <time>2016-11-16T16:03:04Z</time>
      </trkpt>
      <trkpt lat="43.4188" lon="6.0378">
        <ele>280.79998779297</ele>
        <time>2016-11-16T16:03:12Z</time>
      </trkpt>
      <trkpt lat="43.41881" lon="6.03791">
        <ele>280.60000610352</ele>
        <time>2016-11-16T16:03:14Z</time>
      </trkpt>
      <trkpt lat="43.4188" lon="6.03822">
        <ele>279.79998779297</ele>
        <time>2016-11-16T16:03:20Z</time>
      </trkpt>
      <trkpt lat="43.4188" lon="6.03833">
        <ele>279.60000610352</ele>
        <time>2016-11-16T16:03:22Z</time>
      </trkpt>
      <trkpt lat="43.41879" lon="6.03846">
        <ele>279.20001220703</ele>
        <time>2016-11-16T16:03:24Z</time>
      </trkpt>
      <trkpt lat="43.41879" lon="6.03859">
        <ele>278.39999389648</ele>
        <time>2016-11-16T16:03:26Z</time>
      </trkpt>
      <trkpt lat="43.41877" lon="6.03881">
        <ele>277.20001220703</ele>
        <time>2016-11-16T16:03:29Z</time>
      </trkpt>
      <trkpt lat="43.41876" lon="6.03906">
        <ele>275.79998779297</ele>
        <time>2016-11-16T16:03:32Z</time>
      </trkpt>
      <trkpt lat="43.41877" lon="6.03922">
        <ele>274.60000610352</ele>
        <time>2016-11-16T16:03:34Z</time>
      </trkpt>
      <trkpt lat="43.41876" lon="6.0398">
        <ele>273.60000610352</ele>
        <time>2016-11-16T16:03:42Z</time>
      </trkpt>
      <trkpt lat="43.41874" lon="6.03996">
        <ele>273.20001220703</ele>
        <time>2016-11-16T16:03:44Z</time>
      </trkpt>
      <trkpt lat="43.41873" lon="6.04013">
        <ele>272.60000610352</ele>
        <time>2016-11-16T16:03:46Z</time>
      </trkpt>
      <trkpt lat="43.41871" lon="6.04031">
        <ele>271.39999389648</ele>
        <time>2016-11-16T16:03:48Z</time>
      </trkpt>
      <trkpt lat="43.41872" lon="6.04049">
        <ele>270.20001220703</ele>
        <time>2016-11-16T16:03:50Z</time>
      </trkpt>
      <trkpt lat="43.41872" lon="6.04058">
        <ele>269.79998779297</ele>
        <time>2016-11-16T16:03:51Z</time>
      </trkpt>
      <trkpt lat="43.41876" lon="6.04075">
        <ele>269.20001220703</ele>
        <time>2016-11-16T16:03:53Z</time>
      </trkpt>
      <trkpt lat="43.41879" lon="6.04082">
        <ele>269.20001220703</ele>
        <time>2016-11-16T16:03:54Z</time>
      </trkpt>
      <trkpt lat="43.41882" lon="6.04098">
        <ele>269.39999389648</ele>
        <time>2016-11-16T16:03:57Z</time>
      </trkpt>
      <trkpt lat="43.41876" lon="6.04107">
        <ele>270</ele>
        <time>2016-11-16T16:04:00Z</time>
      </trkpt>
      <trkpt lat="43.41871" lon="6.04117">
        <ele>269.60000610352</ele>
        <time>2016-11-16T16:04:02Z</time>
      </trkpt>
      <trkpt lat="43.41873" lon="6.04129">
        <ele>268.60000610352</ele>
        <time>2016-11-16T16:04:04Z</time>
      </trkpt>
      <trkpt lat="43.41875" lon="6.04136">
        <ele>267.79998779297</ele>
        <time>2016-11-16T16:04:05Z</time>
      </trkpt>
      <trkpt lat="43.4188" lon="6.04152">
        <ele>266</ele>
        <time>2016-11-16T16:04:07Z</time>
      </trkpt>
      <trkpt lat="43.41883" lon="6.0416">
        <ele>265.20001220703</ele>
        <time>2016-11-16T16:04:08Z</time>
      </trkpt>
      <trkpt lat="43.41884" lon="6.0417">
        <ele>264.20001220703</ele>
        <time>2016-11-16T16:04:09Z</time>
      </trkpt>
      <trkpt lat="43.41884" lon="6.04179">
        <ele>263</ele>
        <time>2016-11-16T16:04:10Z</time>
      </trkpt>
      <trkpt lat="43.41882" lon="6.04188">
        <ele>262</ele>
        <time>2016-11-16T16:04:11Z</time>
      </trkpt>
      <trkpt lat="43.4188" lon="6.04196">
        <ele>261</ele>
        <time>2016-11-16T16:04:12Z</time>
      </trkpt>
      <trkpt lat="43.41878" lon="6.04202">
        <ele>260.39999389648</ele>
        <time>2016-11-16T16:04:13Z</time>
      </trkpt>
      <trkpt lat="43.41877" lon="6.04214">
        <ele>259.79998779297</ele>
        <time>2016-11-16T16:04:15Z</time>
      </trkpt>
      <trkpt lat="43.41876" lon="6.04229">
        <ele>260.79998779297</ele>
        <time>2016-11-16T16:04:18Z</time>
      </trkpt>
      <trkpt lat="43.41876" lon="6.04233">
        <ele>261.20001220703</ele>
        <time>2016-11-16T16:04:19Z</time>
      </trkpt>
      <trkpt lat="43.41875" lon="6.04242">
        <ele>261.79998779297</ele>
        <time>2016-11-16T16:04:21Z</time>
      </trkpt>
      <trkpt lat="43.41875" lon="6.04246">
        <ele>262.20001220703</ele>
        <time>2016-11-16T16:04:22Z</time>
      </trkpt>
      <trkpt lat="43.41874" lon="6.04258">
        <ele>263.20001220703</ele>
        <time>2016-11-16T16:04:25Z</time>
      </trkpt>
      <trkpt lat="43.41874" lon="6.04266">
        <ele>263.79998779297</ele>
        <time>2016-11-16T16:04:27Z</time>
      </trkpt>
      <trkpt lat="43.41874" lon="6.04277">
        <ele>264.39999389648</ele>
        <time>2016-11-16T16:04:30Z</time>
      </trkpt>
      <trkpt lat="43.41874" lon="6.04292">
        <ele>266</ele>
        <time>2016-11-16T16:04:34Z</time>
      </trkpt>
      <trkpt lat="43.41873" lon="6.04304">
        <ele>266.79998779297</ele>
        <time>2016-11-16T16:04:37Z</time>
      </trkpt>
      <trkpt lat="43.41871" lon="6.04334">
        <ele>267.20001220703</ele>
        <time>2016-11-16T16:04:44Z</time>
      </trkpt>
      <trkpt lat="43.41868" lon="6.04368">
        <ele>267</ele>
        <time>2016-11-16T16:04:50Z</time>
      </trkpt>
      <trkpt lat="43.41867" lon="6.04381">
        <ele>266.20001220703</ele>
        <time>2016-11-16T16:04:52Z</time>
      </trkpt>
      <trkpt lat="43.41866" lon="6.04395">
        <ele>265.60000610352</ele>
        <time>2016-11-16T16:04:54Z</time>
      </trkpt>
      <trkpt lat="43.41866" lon="6.04409">
        <ele>265.20001220703</ele>
        <time>2016-11-16T16:04:56Z</time>
      </trkpt>
      <trkpt lat="43.41866" lon="6.04425">
        <ele>264.60000610352</ele>
        <time>2016-11-16T16:04:58Z</time>
      </trkpt>
      <trkpt lat="43.41866" lon="6.04463">
        <ele>263.79998779297</ele>
        <time>2016-11-16T16:05:03Z</time>
      </trkpt>
      <trkpt lat="43.41867" lon="6.0447">
        <ele>263.79998779297</ele>
        <time>2016-11-16T16:05:04Z</time>
      </trkpt>
      <trkpt lat="43.41867" lon="6.0449">
        <ele>264</ele>
        <time>2016-11-16T16:05:07Z</time>
      </trkpt>
      <trkpt lat="43.41868" lon="6.04509">
        <ele>264.39999389648</ele>
        <time>2016-11-16T16:05:10Z</time>
      </trkpt>
      <trkpt lat="43.41868" lon="6.04521">
        <ele>264.39999389648</ele>
        <time>2016-11-16T16:05:12Z</time>
      </trkpt>
      <trkpt lat="43.41868" lon="6.04533">
        <ele>264.60000610352</ele>
        <time>2016-11-16T16:05:14Z</time>
      </trkpt>
      <trkpt lat="43.41868" lon="6.04557">
        <ele>264.79998779297</ele>
        <time>2016-11-16T16:05:18Z</time>
      </trkpt>
      <trkpt lat="43.41867" lon="6.04586">
        <ele>265.60000610352</ele>
        <time>2016-11-16T16:05:23Z</time>
      </trkpt>
      <trkpt lat="43.41867" lon="6.04592">
        <ele>265.79998779297</ele>
        <time>2016-11-16T16:05:24Z</time>
      </trkpt>
      <trkpt lat="43.41869" lon="6.04622">
        <ele>266.20001220703</ele>
        <time>2016-11-16T16:05:29Z</time>
      </trkpt>
      <trkpt lat="43.4187" lon="6.04633">
        <ele>266</ele>
        <time>2016-11-16T16:05:31Z</time>
      </trkpt>
      <trkpt lat="43.41871" lon="6.04652">
        <ele>265.79998779297</ele>
        <time>2016-11-16T16:05:34Z</time>
      </trkpt>
      <trkpt lat="43.41875" lon="6.04714">
        <ele>266</ele>
        <time>2016-11-16T16:05:44Z</time>
      </trkpt>
      <trkpt lat="43.41877" lon="6.04739">
        <ele>266</ele>
        <time>2016-11-16T16:05:48Z</time>
      </trkpt>
      <trkpt lat="43.41877" lon="6.04745">
        <ele>266</ele>
        <time>2016-11-16T16:05:49Z</time>
      </trkpt>
      <trkpt lat="43.41879" lon="6.04775">
        <ele>265.79998779297</ele>
        <time>2016-11-16T16:05:54Z</time>
      </trkpt>
      <trkpt lat="43.4188" lon="6.04785">
        <ele>265.79998779297</ele>
        <time>2016-11-16T16:05:56Z</time>
      </trkpt>
      <trkpt lat="43.4188" lon="6.04795">
        <ele>265.79998779297</ele>
        <time>2016-11-16T16:05:58Z</time>
      </trkpt>
      <trkpt lat="43.4188" lon="6.04809">
        <ele>265.79998779297</ele>
        <time>2016-11-16T16:06:01Z</time>
      </trkpt>
      <trkpt lat="43.4188" lon="6.04824">
        <ele>265.79998779297</ele>
        <time>2016-11-16T16:06:04Z</time>
      </trkpt>
      <trkpt lat="43.41882" lon="6.04846">
        <ele>265.79998779297</ele>
        <time>2016-11-16T16:06:08Z</time>
      </trkpt>
      <trkpt lat="43.41883" lon="6.04852">
        <ele>265.60000610352</ele>
        <time>2016-11-16T16:06:09Z</time>
      </trkpt>
      <trkpt lat="43.41885" lon="6.04882">
        <ele>264.60000610352</ele>
        <time>2016-11-16T16:06:14Z</time>
      </trkpt>
      <trkpt lat="43.41887" lon="6.04896">
        <ele>264.39999389648</ele>
        <time>2016-11-16T16:06:16Z</time>
      </trkpt>
      <trkpt lat="43.41887" lon="6.04903">
        <ele>264.20001220703</ele>
        <time>2016-11-16T16:06:17Z</time>
      </trkpt>
      <trkpt lat="43.41889" lon="6.04917">
        <ele>263.60000610352</ele>
        <time>2016-11-16T16:06:19Z</time>
      </trkpt>
      <trkpt lat="43.4189" lon="6.04924">
        <ele>263.39999389648</ele>
        <time>2016-11-16T16:06:20Z</time>
      </trkpt>
      <trkpt lat="43.41892" lon="6.04948">
        <ele>262.39999389648</ele>
        <time>2016-11-16T16:06:23Z</time>
      </trkpt>
      <trkpt lat="43.41893" lon="6.04956">
        <ele>262</ele>
        <time>2016-11-16T16:06:24Z</time>
      </trkpt>
      <trkpt lat="43.41896" lon="6.04981">
        <ele>261.20001220703</ele>
        <time>2016-11-16T16:06:27Z</time>
      </trkpt>
      <trkpt lat="43.419" lon="6.05014">
        <ele>260</ele>
        <time>2016-11-16T16:06:31Z</time>
      </trkpt>
      <trkpt lat="43.41901" lon="6.05039">
        <ele>259</ele>
        <time>2016-11-16T16:06:34Z</time>
      </trkpt>
      <trkpt lat="43.41904" lon="6.05053">
        <ele>258.20001220703</ele>
        <time>2016-11-16T16:06:36Z</time>
      </trkpt>
      <trkpt lat="43.41906" lon="6.05059">
        <ele>257.79998779297</ele>
        <time>2016-11-16T16:06:37Z</time>
      </trkpt>
      <trkpt lat="43.41909" lon="6.05065">
        <ele>257.20001220703</ele>
        <time>2016-11-16T16:06:38Z</time>
      </trkpt>
      <trkpt lat="43.41918" lon="6.05074">
        <ele>256.60000610352</ele>
        <time>2016-11-16T16:06:40Z</time>
      </trkpt>
      <trkpt lat="43.41923" lon="6.05078">
        <ele>256</ele>
        <time>2016-11-16T16:06:41Z</time>
      </trkpt>
      <trkpt lat="43.41929" lon="6.05083">
        <ele>255.39999389648</ele>
        <time>2016-11-16T16:06:42Z</time>
      </trkpt>
      <trkpt lat="43.41941" lon="6.05091">
        <ele>254</ele>
        <time>2016-11-16T16:06:44Z</time>
      </trkpt>
      <trkpt lat="43.41954" lon="6.05098">
        <ele>252.39999389648</ele>
        <time>2016-11-16T16:06:46Z</time>
      </trkpt>
      <trkpt lat="43.41967" lon="6.05103">
        <ele>250.80000305176</ele>
        <time>2016-11-16T16:06:48Z</time>
      </trkpt>
      <trkpt lat="43.4198" lon="6.05106">
        <ele>249.39999389648</ele>
        <time>2016-11-16T16:06:50Z</time>
      </trkpt>
      <trkpt lat="43.41987" lon="6.05108">
        <ele>248.80000305176</ele>
        <time>2016-11-16T16:06:51Z</time>
      </trkpt>
      <trkpt lat="43.41999" lon="6.05111">
        <ele>248</ele>
        <time>2016-11-16T16:06:53Z</time>
      </trkpt>
      <trkpt lat="43.42004" lon="6.05115">
        <ele>247.80000305176</ele>
        <time>2016-11-16T16:06:54Z</time>
      </trkpt>
      <trkpt lat="43.42006" lon="6.0512">
        <ele>247.60000610352</ele>
        <time>2016-11-16T16:06:55Z</time>
      </trkpt>
      <trkpt lat="43.42005" lon="6.0513">
        <ele>247.60000610352</ele>
        <time>2016-11-16T16:06:57Z</time>
      </trkpt>
      <trkpt lat="43.41985" lon="6.05134">
        <ele>247.80000305176</ele>
        <time>2016-11-16T16:07:02Z</time>
      </trkpt>
      <trkpt lat="43.41975" lon="6.05137">
        <ele>247.39999389648</ele>
        <time>2016-11-16T16:07:04Z</time>
      </trkpt>
      <trkpt lat="43.41966" lon="6.05141">
        <ele>246.80000305176</ele>
        <time>2016-11-16T16:07:06Z</time>
      </trkpt>
      <trkpt lat="43.41947" lon="6.05149">
        <ele>245.80000305176</ele>
        <time>2016-11-16T16:07:10Z</time>
      </trkpt>
      <trkpt lat="43.41943" lon="6.05151">
        <ele>245.39999389648</ele>
        <time>2016-11-16T16:07:11Z</time>
      </trkpt>
      <trkpt lat="43.41938" lon="6.05159">
        <ele>245.19999694824</ele>
        <time>2016-11-16T16:07:13Z</time>
      </trkpt>
      <trkpt lat="43.41938" lon="6.05164">
        <ele>245</ele>
        <time>2016-11-16T16:07:14Z</time>
      </trkpt>
      <trkpt lat="43.41938" lon="6.05184">
        <ele>246</ele>
        <time>2016-11-16T16:07:19Z</time>
      </trkpt>
      <trkpt lat="43.41938" lon="6.05192">
        <ele>246.60000610352</ele>
        <time>2016-11-16T16:07:21Z</time>
      </trkpt>
      <trkpt lat="43.41939" lon="6.05209">
        <ele>248.39999389648</ele>
        <time>2016-11-16T16:07:26Z</time>
      </trkpt>
      <trkpt lat="43.41941" lon="6.05229">
        <ele>249.60000610352</ele>
        <time>2016-11-16T16:07:32Z</time>
      </trkpt>
      <trkpt lat="43.41942" lon="6.05234">
        <ele>250</ele>
        <time>2016-11-16T16:07:34Z</time>
      </trkpt>
      <trkpt lat="43.41947" lon="6.05255">
        <ele>250.60000610352</ele>
        <time>2016-11-16T16:07:41Z</time>
      </trkpt>
      <trkpt lat="43.4195" lon="6.05263">
        <ele>251.19999694824</ele>
        <time>2016-11-16T16:07:44Z</time>
      </trkpt>
      <trkpt lat="43.41951" lon="6.05273">
        <ele>251.60000610352</ele>
        <time>2016-11-16T16:07:47Z</time>
      </trkpt>
      <trkpt lat="43.41956" lon="6.05295">
        <ele>252.60000610352</ele>
        <time>2016-11-16T16:07:54Z</time>
      </trkpt>
      <trkpt lat="43.41961" lon="6.05322">
        <ele>254</ele>
        <time>2016-11-16T16:08:02Z</time>
      </trkpt>
      <trkpt lat="43.41962" lon="6.05329">
        <ele>254.39999389648</ele>
        <time>2016-11-16T16:08:04Z</time>
      </trkpt>
      <trkpt lat="43.41964" lon="6.05346">
        <ele>255</ele>
        <time>2016-11-16T16:08:09Z</time>
      </trkpt>
      <trkpt lat="43.41967" lon="6.05362">
        <ele>255.39999389648</ele>
        <time>2016-11-16T16:08:14Z</time>
      </trkpt>
      <trkpt lat="43.41971" lon="6.05372">
        <ele>256.20001220703</ele>
        <time>2016-11-16T16:08:18Z</time>
      </trkpt>
      <trkpt lat="43.41978" lon="6.05391">
        <ele>257</ele>
        <time>2016-11-16T16:08:24Z</time>
      </trkpt>
      <trkpt lat="43.41981" lon="6.05401">
        <ele>257.39999389648</ele>
        <time>2016-11-16T16:08:27Z</time>
      </trkpt>
      <trkpt lat="43.41985" lon="6.05427">
        <ele>258.39999389648</ele>
        <time>2016-11-16T16:08:34Z</time>
      </trkpt>
      <trkpt lat="43.41985" lon="6.05431">
        <ele>258.39999389648</ele>
        <time>2016-11-16T16:08:35Z</time>
      </trkpt>
      <trkpt lat="43.4199" lon="6.05449">
        <ele>259.60000610352</ele>
        <time>2016-11-16T16:08:41Z</time>
      </trkpt>
      <trkpt lat="43.41992" lon="6.05459">
        <ele>260</ele>
        <time>2016-11-16T16:08:44Z</time>
      </trkpt>
      <trkpt lat="43.41998" lon="6.05489">
        <ele>260.60000610352</ele>
        <time>2016-11-16T16:08:53Z</time>
      </trkpt>
      <trkpt lat="43.41999" lon="6.05493">
        <ele>260.60000610352</ele>
        <time>2016-11-16T16:08:54Z</time>
      </trkpt>
      <trkpt lat="43.42001" lon="6.05506">
        <ele>260.79998779297</ele>
        <time>2016-11-16T16:08:57Z</time>
      </trkpt>
      <trkpt lat="43.42002" lon="6.05516">
        <ele>260.39999389648</ele>
        <time>2016-11-16T16:08:59Z</time>
      </trkpt>
      <trkpt lat="43.42004" lon="6.05534">
        <ele>259.39999389648</ele>
        <time>2016-11-16T16:09:02Z</time>
      </trkpt>
      <trkpt lat="43.42006" lon="6.05546">
        <ele>258.79998779297</ele>
        <time>2016-11-16T16:09:04Z</time>
      </trkpt>
      <trkpt lat="43.42007" lon="6.05557">
        <ele>258</ele>
        <time>2016-11-16T16:09:06Z</time>
      </trkpt>
      <trkpt lat="43.4201" lon="6.05575">
        <ele>257.20001220703</ele>
        <time>2016-11-16T16:09:09Z</time>
      </trkpt>
      <trkpt lat="43.42012" lon="6.05581">
        <ele>257</ele>
        <time>2016-11-16T16:09:10Z</time>
      </trkpt>
      <trkpt lat="43.42014" lon="6.05588">
        <ele>256.60000610352</ele>
        <time>2016-11-16T16:09:11Z</time>
      </trkpt>
      <trkpt lat="43.42017" lon="6.05602">
        <ele>255.60000610352</ele>
        <time>2016-11-16T16:09:13Z</time>
      </trkpt>
      <trkpt lat="43.4202" lon="6.05621">
        <ele>254.39999389648</ele>
        <time>2016-11-16T16:09:16Z</time>
      </trkpt>
      <trkpt lat="43.42023" lon="6.05635">
        <ele>253.39999389648</ele>
        <time>2016-11-16T16:09:18Z</time>
      </trkpt>
      <trkpt lat="43.42024" lon="6.05643">
        <ele>253.19999694824</ele>
        <time>2016-11-16T16:09:19Z</time>
      </trkpt>
      <trkpt lat="43.42027" lon="6.0566">
        <ele>252.39999389648</ele>
        <time>2016-11-16T16:09:21Z</time>
      </trkpt>
      <trkpt lat="43.42029" lon="6.05668">
        <ele>252</ele>
        <time>2016-11-16T16:09:22Z</time>
      </trkpt>
      <trkpt lat="43.42033" lon="6.05683">
        <ele>251</ele>
        <time>2016-11-16T16:09:24Z</time>
      </trkpt>
      <trkpt lat="43.42035" lon="6.05691">
        <ele>250.80000305176</ele>
        <time>2016-11-16T16:09:25Z</time>
      </trkpt>
      <trkpt lat="43.4204" lon="6.05722">
        <ele>250.19999694824</ele>
        <time>2016-11-16T16:09:29Z</time>
      </trkpt>
      <trkpt lat="43.42045" lon="6.05754">
        <ele>250.80000305176</ele>
        <time>2016-11-16T16:09:34Z</time>
      </trkpt>
      <trkpt lat="43.42052" lon="6.05798">
        <ele>251.39999389648</ele>
        <time>2016-11-16T16:09:42Z</time>
      </trkpt>
      <trkpt lat="43.42054" lon="6.05808">
        <ele>251.39999389648</ele>
        <time>2016-11-16T16:09:44Z</time>
      </trkpt>
      <trkpt lat="43.42061" lon="6.05839">
        <ele>251.80000305176</ele>
        <time>2016-11-16T16:09:50Z</time>
      </trkpt>
      <trkpt lat="43.42064" lon="6.05851">
        <ele>252.80000305176</ele>
        <time>2016-11-16T16:09:53Z</time>
      </trkpt>
      <trkpt lat="43.42064" lon="6.05855">
        <ele>253.19999694824</ele>
        <time>2016-11-16T16:09:54Z</time>
      </trkpt>
      <trkpt lat="43.42066" lon="6.05862">
        <ele>253.80000305176</ele>
        <time>2016-11-16T16:09:56Z</time>
      </trkpt>
      <trkpt lat="43.42067" lon="6.05865">
        <ele>254.19999694824</ele>
        <time>2016-11-16T16:09:57Z</time>
      </trkpt>
      <trkpt lat="43.4207" lon="6.05877">
        <ele>255</ele>
        <time>2016-11-16T16:10:00Z</time>
      </trkpt>
      <trkpt lat="43.42075" lon="6.05892">
        <ele>255.19999694824</ele>
        <time>2016-11-16T16:10:04Z</time>
      </trkpt>
      <trkpt lat="43.42086" lon="6.05934">
        <ele>255.39999389648</ele>
        <time>2016-11-16T16:10:14Z</time>
      </trkpt>
      <trkpt lat="43.42097" lon="6.05975">
        <ele>256</ele>
        <time>2016-11-16T16:10:24Z</time>
      </trkpt>
      <trkpt lat="43.421" lon="6.05984">
        <ele>256</ele>
        <time>2016-11-16T16:10:26Z</time>
      </trkpt>
      <trkpt lat="43.42108" lon="6.06018">
        <ele>256.39999389648</ele>
        <time>2016-11-16T16:10:34Z</time>
      </trkpt>
      <trkpt lat="43.4211" lon="6.0603">
        <ele>256.60000610352</ele>
        <time>2016-11-16T16:10:37Z</time>
      </trkpt>
      <trkpt lat="43.42114" lon="6.06048">
        <ele>256.39999389648</ele>
        <time>2016-11-16T16:10:41Z</time>
      </trkpt>
      <trkpt lat="43.42115" lon="6.06064">
        <ele>256.20001220703</ele>
        <time>2016-11-16T16:10:44Z</time>
      </trkpt>
      <trkpt lat="43.42118" lon="6.06091">
        <ele>254.60000610352</ele>
        <time>2016-11-16T16:10:48Z</time>
      </trkpt>
      <trkpt lat="43.42121" lon="6.06108">
        <ele>253.60000610352</ele>
        <time>2016-11-16T16:10:50Z</time>
      </trkpt>
      <trkpt lat="43.42126" lon="6.06134">
        <ele>252.19999694824</ele>
        <time>2016-11-16T16:10:53Z</time>
      </trkpt>
      <trkpt lat="43.42128" lon="6.06141">
        <ele>251.80000305176</ele>
        <time>2016-11-16T16:10:54Z</time>
      </trkpt>
      <trkpt lat="43.42146" lon="6.06188">
        <ele>253.39999389648</ele>
        <time>2016-11-16T16:11:03Z</time>
      </trkpt>
      <trkpt lat="43.42147" lon="6.06192">
        <ele>253.80000305176</ele>
        <time>2016-11-16T16:11:04Z</time>
      </trkpt>
      <trkpt lat="43.42149" lon="6.0621">
        <ele>254.39999389648</ele>
        <time>2016-11-16T16:11:08Z</time>
      </trkpt>
      <trkpt lat="43.42147" lon="6.06214">
        <ele>254.39999389648</ele>
        <time>2016-11-16T16:11:09Z</time>
      </trkpt>
      <trkpt lat="43.42139" lon="6.0622">
        <ele>254.39999389648</ele>
        <time>2016-11-16T16:11:12Z</time>
      </trkpt>
      <trkpt lat="43.42132" lon="6.06224">
        <ele>254.39999389648</ele>
        <time>2016-11-16T16:11:14Z</time>
      </trkpt>
      <trkpt lat="43.42111" lon="6.0623">
        <ele>253.39999389648</ele>
        <time>2016-11-16T16:11:19Z</time>
      </trkpt>
      <trkpt lat="43.42097" lon="6.06235">
        <ele>252.39999389648</ele>
        <time>2016-11-16T16:11:22Z</time>
      </trkpt>
      <trkpt lat="43.42087" lon="6.06239">
        <ele>251.60000610352</ele>
        <time>2016-11-16T16:11:24Z</time>
      </trkpt>
      <trkpt lat="43.42082" lon="6.06241">
        <ele>251</ele>
        <time>2016-11-16T16:11:25Z</time>
      </trkpt>
      <trkpt lat="43.4207" lon="6.06245">
        <ele>250</ele>
        <time>2016-11-16T16:11:27Z</time>
      </trkpt>
      <trkpt lat="43.42059" lon="6.06249">
        <ele>248.80000305176</ele>
        <time>2016-11-16T16:11:29Z</time>
      </trkpt>
      <trkpt lat="43.42046" lon="6.06253">
        <ele>247.39999389648</ele>
        <time>2016-11-16T16:11:31Z</time>
      </trkpt>
      <trkpt lat="43.42035" lon="6.06257">
        <ele>245.80000305176</ele>
        <time>2016-11-16T16:11:33Z</time>
      </trkpt>
      <trkpt lat="43.42028" lon="6.06259">
        <ele>244.80000305176</ele>
        <time>2016-11-16T16:11:34Z</time>
      </trkpt>
      <trkpt lat="43.42022" lon="6.06261">
        <ele>243.80000305176</ele>
        <time>2016-11-16T16:11:35Z</time>
      </trkpt>
      <trkpt lat="43.42011" lon="6.06265">
        <ele>242.19999694824</ele>
        <time>2016-11-16T16:11:37Z</time>
      </trkpt>
      <trkpt lat="43.41989" lon="6.06272">
        <ele>239.60000610352</ele>
        <time>2016-11-16T16:11:41Z</time>
      </trkpt>
      <trkpt lat="43.41973" lon="6.06276">
        <ele>237.60000610352</ele>
        <time>2016-11-16T16:11:44Z</time>
      </trkpt>
      <trkpt lat="43.41968" lon="6.06277">
        <ele>237</ele>
        <time>2016-11-16T16:11:45Z</time>
      </trkpt>
      <trkpt lat="43.41957" lon="6.0628">
        <ele>235.80000305176</ele>
        <time>2016-11-16T16:11:47Z</time>
      </trkpt>
      <trkpt lat="43.4194" lon="6.06286">
        <ele>234.60000610352</ele>
        <time>2016-11-16T16:11:50Z</time>
      </trkpt>
      <trkpt lat="43.41918" lon="6.06293">
        <ele>233.80000305176</ele>
        <time>2016-11-16T16:11:54Z</time>
      </trkpt>
      <trkpt lat="43.41912" lon="6.06293">
        <ele>233.60000610352</ele>
        <time>2016-11-16T16:11:55Z</time>
      </trkpt>
      <trkpt lat="43.4189" lon="6.06294">
        <ele>232.19999694824</ele>
        <time>2016-11-16T16:11:59Z</time>
      </trkpt>
      <trkpt lat="43.41873" lon="6.06292">
        <ele>230.80000305176</ele>
        <time>2016-11-16T16:12:02Z</time>
      </trkpt>
      <trkpt lat="43.41862" lon="6.06292">
        <ele>230.19999694824</ele>
        <time>2016-11-16T16:12:04Z</time>
      </trkpt>
      <trkpt lat="43.4185" lon="6.06291">
        <ele>229.60000610352</ele>
        <time>2016-11-16T16:12:06Z</time>
      </trkpt>
      <trkpt lat="43.41833" lon="6.06291">
        <ele>228.39999389648</ele>
        <time>2016-11-16T16:12:09Z</time>
      </trkpt>
      <trkpt lat="43.41819" lon="6.0629">
        <ele>227.39999389648</ele>
        <time>2016-11-16T16:12:12Z</time>
      </trkpt>
      <trkpt lat="43.4181" lon="6.06288">
        <ele>227</ele>
        <time>2016-11-16T16:12:14Z</time>
      </trkpt>
      <trkpt lat="43.41806" lon="6.06287">
        <ele>226.80000305176</ele>
        <time>2016-11-16T16:12:15Z</time>
      </trkpt>
      <trkpt lat="43.41797" lon="6.0628">
        <ele>226.19999694824</ele>
        <time>2016-11-16T16:12:17Z</time>
      </trkpt>
      <trkpt lat="43.41769" lon="6.0626">
        <ele>225</ele>
        <time>2016-11-16T16:12:23Z</time>
      </trkpt>
      <trkpt lat="43.41758" lon="6.06255">
        <ele>224</ele>
        <time>2016-11-16T16:12:25Z</time>
      </trkpt>
      <trkpt lat="43.41752" lon="6.06253">
        <ele>223.60000610352</ele>
        <time>2016-11-16T16:12:26Z</time>
      </trkpt>
      <trkpt lat="43.41726" lon="6.06249">
        <ele>222.39999389648</ele>
        <time>2016-11-16T16:12:30Z</time>
      </trkpt>
      <trkpt lat="43.41707" lon="6.06249">
        <ele>221.19999694824</ele>
        <time>2016-11-16T16:12:33Z</time>
      </trkpt>
      <trkpt lat="43.41701" lon="6.06248">
        <ele>220.80000305176</ele>
        <time>2016-11-16T16:12:34Z</time>
      </trkpt>
      <trkpt lat="43.41695" lon="6.06248">
        <ele>220.60000610352</ele>
        <time>2016-11-16T16:12:35Z</time>
      </trkpt>
      <trkpt lat="43.41683" lon="6.06248">
        <ele>220.60000610352</ele>
        <time>2016-11-16T16:12:37Z</time>
      </trkpt>
      <trkpt lat="43.41648" lon="6.0624">
        <ele>220.80000305176</ele>
        <time>2016-11-16T16:12:44Z</time>
      </trkpt>
      <trkpt lat="43.41635" lon="6.06233">
        <ele>220.80000305176</ele>
        <time>2016-11-16T16:12:47Z</time>
      </trkpt>
      <trkpt lat="43.41629" lon="6.06229">
        <ele>220.39999389648</ele>
        <time>2016-11-16T16:12:49Z</time>
      </trkpt>
      <trkpt lat="43.41624" lon="6.06228">
        <ele>220</ele>
        <time>2016-11-16T16:12:51Z</time>
      </trkpt>
      <trkpt lat="43.4162" lon="6.06228">
        <ele>220</ele>
        <time>2016-11-16T16:12:53Z</time>
      </trkpt>
      <trkpt lat="43.41618" lon="6.06229">
        <ele>220</ele>
        <time>2016-11-16T16:12:54Z</time>
      </trkpt>
      <trkpt lat="43.41607" lon="6.06235">
        <ele>219</ele>
        <time>2016-11-16T16:13:01Z</time>
      </trkpt>
      <trkpt lat="43.41606" lon="6.06236">
        <ele>219</ele>
        <time>2016-11-16T16:13:04Z</time>
      </trkpt>
      <trkpt lat="43.41604" lon="6.06244">
        <ele>219.19999694824</ele>
        <time>2016-11-16T16:13:08Z</time>
      </trkpt>
      <trkpt lat="43.41603" lon="6.06254">
        <ele>219.19999694824</ele>
        <time>2016-11-16T16:13:14Z</time>
      </trkpt>
      <trkpt lat="43.41595" lon="6.06262">
        <ele>218.80000305176</ele>
        <time>2016-11-16T16:13:20Z</time>
      </trkpt>
      <trkpt lat="43.41592" lon="6.06265">
        <ele>218.60000610352</ele>
        <time>2016-11-16T16:13:21Z</time>
      </trkpt>
      <trkpt lat="43.41587" lon="6.06273">
        <ele>218.60000610352</ele>
        <time>2016-11-16T16:13:23Z</time>
      </trkpt>
      <trkpt lat="43.41586" lon="6.06278">
        <ele>218.39999389648</ele>
        <time>2016-11-16T16:13:24Z</time>
      </trkpt>
      <trkpt lat="43.41587" lon="6.06289">
        <ele>218</ele>
        <time>2016-11-16T16:13:26Z</time>
      </trkpt>
      <trkpt lat="43.41586" lon="6.06295">
        <ele>217.80000305176</ele>
        <time>2016-11-16T16:13:27Z</time>
      </trkpt>
      <trkpt lat="43.41585" lon="6.06307">
        <ele>217.39999389648</ele>
        <time>2016-11-16T16:13:29Z</time>
      </trkpt>
      <trkpt lat="43.41581" lon="6.06319">
        <ele>216.80000305176</ele>
        <time>2016-11-16T16:13:31Z</time>
      </trkpt>
      <trkpt lat="43.41578" lon="6.06324">
        <ele>216.60000610352</ele>
        <time>2016-11-16T16:13:32Z</time>
      </trkpt>
      <trkpt lat="43.4157" lon="6.06336">
        <ele>215.80000305176</ele>
        <time>2016-11-16T16:13:34Z</time>
      </trkpt>
      <trkpt lat="43.41563" lon="6.06349">
        <ele>215.19999694824</ele>
        <time>2016-11-16T16:13:36Z</time>
      </trkpt>
      <trkpt lat="43.41557" lon="6.06362">
        <ele>214.60000610352</ele>
        <time>2016-11-16T16:13:38Z</time>
      </trkpt>
      <trkpt lat="43.41556" lon="6.06369">
        <ele>214.19999694824</ele>
        <time>2016-11-16T16:13:39Z</time>
      </trkpt>
      <trkpt lat="43.41551" lon="6.06391">
        <ele>213.19999694824</ele>
        <time>2016-11-16T16:13:42Z</time>
      </trkpt>
      <trkpt lat="43.41549" lon="6.06408">
        <ele>212.60000610352</ele>
        <time>2016-11-16T16:13:44Z</time>
      </trkpt>
      <trkpt lat="43.41547" lon="6.06418">
        <ele>212</ele>
        <time>2016-11-16T16:13:45Z</time>
      </trkpt>
      <trkpt lat="43.41544" lon="6.06437">
        <ele>210.60000610352</ele>
        <time>2016-11-16T16:13:47Z</time>
      </trkpt>
      <trkpt lat="43.41544" lon="6.06457">
        <ele>209.39999389648</ele>
        <time>2016-11-16T16:13:49Z</time>
      </trkpt>
      <trkpt lat="43.41545" lon="6.06475">
        <ele>208.80000305176</ele>
        <time>2016-11-16T16:13:51Z</time>
      </trkpt>
      <trkpt lat="43.41536" lon="6.06493">
        <ele>208.80000305176</ele>
        <time>2016-11-16T16:13:54Z</time>
      </trkpt>
      <trkpt lat="43.41526" lon="6.06513">
        <ele>208.60000610352</ele>
        <time>2016-11-16T16:13:57Z</time>
      </trkpt>
      <trkpt lat="43.41523" lon="6.06529">
        <ele>208.19999694824</ele>
        <time>2016-11-16T16:13:59Z</time>
      </trkpt>
      <trkpt lat="43.41516" lon="6.06566">
        <ele>207.80000305176</ele>
        <time>2016-11-16T16:14:04Z</time>
      </trkpt>
      <trkpt lat="43.41504" lon="6.06631">
        <ele>207.39999389648</ele>
        <time>2016-11-16T16:14:14Z</time>
      </trkpt>
      <trkpt lat="43.41498" lon="6.06667">
        <ele>207.39999389648</ele>
        <time>2016-11-16T16:14:20Z</time>
      </trkpt>
      <trkpt lat="43.41496" lon="6.06686">
        <ele>207</ele>
        <time>2016-11-16T16:14:23Z</time>
      </trkpt>
      <trkpt lat="43.41494" lon="6.06741">
        <ele>206</ele>
        <time>2016-11-16T16:14:31Z</time>
      </trkpt>
      <trkpt lat="43.41492" lon="6.06763">
        <ele>205.60000610352</ele>
        <time>2016-11-16T16:14:34Z</time>
      </trkpt>
      <trkpt lat="43.41487" lon="6.06793">
        <ele>204.80000305176</ele>
        <time>2016-11-16T16:14:38Z</time>
      </trkpt>
      <trkpt lat="43.4148" lon="6.06824">
        <ele>204.39999389648</ele>
        <time>2016-11-16T16:14:42Z</time>
      </trkpt>
      <trkpt lat="43.41475" lon="6.06837">
        <ele>204.19999694824</ele>
        <time>2016-11-16T16:14:44Z</time>
      </trkpt>
      <trkpt lat="43.41475" lon="6.06883">
        <ele>204.80000305176</ele>
        <time>2016-11-16T16:14:54Z</time>
      </trkpt>
      <trkpt lat="43.41475" lon="6.06891">
        <ele>205</ele>
        <time>2016-11-16T16:15:02Z</time>
      </trkpt>
      <trkpt lat="43.41475" lon="6.06896">
        <ele>205</ele>
        <time>2016-11-16T16:15:04Z</time>
      </trkpt>
      <trkpt lat="43.41469" lon="6.06932">
        <ele>205</ele>
        <time>2016-11-16T16:15:14Z</time>
      </trkpt>
      <trkpt lat="43.41489" lon="6.06968">
        <ele>204</ele>
        <time>2016-11-16T16:15:24Z</time>
      </trkpt>
      <trkpt lat="43.41491" lon="6.0697">
        <ele>204</ele>
        <time>2016-11-16T16:15:25Z</time>
      </trkpt>
      <trkpt lat="43.415" lon="6.06967">
        <ele>204.19999694824</ele>
        <time>2016-11-16T16:15:31Z</time>
      </trkpt>
      <trkpt lat="43.41505" lon="6.06971">
        <ele>204.19999694824</ele>
        <time>2016-11-16T16:15:34Z</time>
      </trkpt>
      <trkpt lat="43.41533" lon="6.06974">
        <ele>204.19999694824</ele>
        <time>2016-11-16T16:15:44Z</time>
      </trkpt>
      <trkpt lat="43.4156" lon="6.06973">
        <ele>205</ele>
        <time>2016-11-16T16:15:54Z</time>
      </trkpt>
      <trkpt lat="43.41569" lon="6.06973">
        <ele>205.19999694824</ele>
        <time>2016-11-16T16:16:04Z</time>
      </trkpt>
      <trkpt lat="43.41569" lon="6.06973">
        <ele>205.39999389648</ele>
        <time>2016-11-16T16:16:14Z</time>
      </trkpt>
      <trkpt lat="43.4157" lon="6.06973">
        <ele>204.80000305176</ele>
        <time>2016-11-16T16:16:24Z</time>
      </trkpt>
      <trkpt lat="43.41572" lon="6.06983">
        <ele>205</ele>
        <time>2016-11-16T16:16:30Z</time>
      </trkpt>
      <trkpt lat="43.41573" lon="6.06992">
        <ele>205</ele>
        <time>2016-11-16T16:16:32Z</time>
      </trkpt>
      <trkpt lat="43.41574" lon="6.07001">
        <ele>205</ele>
        <time>2016-11-16T16:16:34Z</time>
      </trkpt>
      <trkpt lat="43.41578" lon="6.07031">
        <ele>205</ele>
        <time>2016-11-16T16:16:40Z</time>
      </trkpt>
      <trkpt lat="43.41579" lon="6.07038">
        <ele>205.19999694824</ele>
        <time>2016-11-16T16:16:42Z</time>
      </trkpt>
      <trkpt lat="43.41579" lon="6.0704">
        <ele>205.19999694824</ele>
        <time>2016-11-16T16:16:44Z</time>
      </trkpt>
      <trkpt lat="43.41579" lon="6.0704">
        <ele>205.60000610352</ele>
        <time>2016-11-16T16:16:54Z</time>
      </trkpt>
      <trkpt lat="43.41579" lon="6.0704">
        <ele>205.80000305176</ele>
        <time>2016-11-16T16:16:58Z</time>
      </trkpt>
    </trkseg>
  </trk>
</gpx>